[[{"header":{"parameterUnit":"m.s-1","parameterCategory":1,"la1":31.0,"la2":29.5877,"lo1":-88.7671,"lo2":-86.6584,"dy":0.0162,"dx":0.0185,"nx":115,"ny":88,"refTime":"2026-05-19T00:00:00:Z","depth":0,"parameterNumber":2,"parameterNumberName":"U-component_of_WINDS"},"data":[0.0,0.0,0.0,0.0,0.0,0.0,0.0,0.0,0.0,0.0,0.0,0.0,0.0,0.0,0.0,0.0,0.0,0.0,0.0,0.0,0.0,0.0,0.0,0.0,0.0,0.0,0.0,0.0,0.0,0.0,0.0,0.0,0.0,0.0,0.0,0.0,0.0,0.0,0.0,0.0,0.0,0.0,0.0,0.0,0.0,0.0,0.0,0.0,0.0,0.0,0.0,0.0,0.0,0.0,0.0,0.0,0.0,0.0,0.0,0.0,0.0,0.0,0.0,0.0,0.0,0.0,0.0,0.0,0.0,0.0,0.0,0.0,0.0,0.0,0.0,0.0,0.0,0.0,0.0,0.0,0.0,0.0,0.0,0.0,0.0,0.0,0.0,0.0,0.0,0.0,0.0,0.0,0.0,0.0,0.0,0.0,0.0,0.0,0.0,0.0,0.0,0.0,0.0,0.0,0.0,0.0,0.0,0.0,0.0,0.0,0.0,0.0,0.0,0.0,0.0,0.0,0.0,0.0,0.0,0.0,0.0,0.0,0.0,0.0,0.0,0.0,0.0,0.0,0.0,0.0,0.0,0.0,0.0,0.0,0.0,0.0,0.0,0.0,0.0,0.0,0.0,0.0,0.0,0.0,0.0,0.0,0.0,0.0,0.0,0.0,0.0,0.0,0.0,0.0,0.0,0.0,0.0,0.0,0.0,0.0,0.0,0.0,0.0,0.0,0.0,0.0,0.0,0.0,0.0,0.0,0.0,0.0,0.0,0.0,0.0,0.0,0.0,0.0,0.0,0.0,0.0,0.0,0.0,0.0,0.0,0.0,0.0,0.0,0.0,0.0,0.0,0.0,0.0,0.0,0.0,0.0,0.0,0.0,0.0,0.0,0.0,0.0,0.0,0.0,0.0,0.0,0.0,0.0,0.0,0.0,0.0,0.0,0.0,0.0,0.0,0.0,0.0,0.0,0.0,0.0,0.0,0.0,0.0,0.0,0.0,0.0,0.0,0.0,0.0,0.0,0.0,0.0,0.0,0.0,0.0,0.0,0.0,0.0,0.0,0.0,0.0,0.0,0.0,0.0,0.0,0.0,0.0,0.0,0.0,0.0,0.0,0.0,0.0,0.0,0.0,0.0,0.0,0.0,0.0,0.0,0.0,0.0,0.0,0.0,0.0,0.0,0.0,0.0,0.0,0.0,0.0,0.0,0.0,0.0,0.0,0.0,0.0,0.0,0.0,0.0,0.0,0.0,0.0,0.0,0.0,0.0,0.0,0.0,0.0,0.0,0.0,0.0,0.0,0.0,0.0,0.0,0.0,0.0,0.0,0.0,0.0,0.0,0.0,0.0,0.0,0.0,0.0,0.0,0.0,0.0,0.0,0.0,0.0,0.0,0.0,0.0,0.0,0.0,0.0,0.0,0.0,0.0,0.0,0.0,0.0,0.0,0.0,0.0,0.0,0.0,0.0,0.0,0.0,0.0,0.0,0.0,0.0,0.0,0.0,0.0,0.0,0.0,0.0,0.0,0.0,0.0,0.0,0.0,0.0,0.0,0.0,0.0,0.0,0.0,0.0,0.0,0.0,0.0,0.0,0.0,0.0,0.0,0.0,0.0,0.0,0.0,0.0,0.0,0.0,0.0,0.0,0.0,0.0,0.0,0.0,0.0,0.0,0.0,0.0,0.0,0.0,0.0,0.0,0.0,0.0,0.0,0.0,0.0,0.0,0.0,0.0,0.0,0.0,0.0,0.0,0.0,0.0,0.0,0.0,0.0,0.0,0.0,0.0,0.0,0.0,0.0,0.0,0.0,0.0,0.0,0.0,0.0,0.0,0.0,0.0,0.0,0.0,0.0,0.0,0.0,0.0,0.0,0.0,0.0,0.0,0.0,0.0,0.0,0.0,0.0,0.0,0.0,0.0,0.0,0.0,0.0,0.0,0.0,0.0,0.0,0.0,0.0,0.0,0.0,0.0,0.0,0.0,0.0,0.0,0.0,0.0,0.0,0.0,0.0,0.0,0.0,0.0,0.0,0.0,0.0,0.0,0.0,0.0,0.0,0.0,0.0,0.0,0.0,0.0,0.0,0.0,0.0,0.0,0.0,0.0,0.0,0.0,0.0,0.0,0.0,0.0,0.0,0.0,0.0,0.0,0.0,0.0,0.0,0.0,0.0,0.0,0.0,0.0,0.0,0.0,0.0,0.0,0.0,0.0,0.0,0.0,0.0,0.0,0.0,0.0,0.0,0.0,0.0,0.0,0.0,0.0,0.0,0.0,0.0,0.0,0.0,0.0,0.0,0.0,0.0,0.0,0.0,0.0,0.0,0.0,0.0,0.0,0.0,0.0,0.0,0.0,0.0,0.0,0.0,0.0,0.0,0.0,0.0,0.0,0.0,0.0,0.0,0.0,0.0,0.0,0.0,0.0,0.0,0.0,0.0,0.0,0.0,0.0,0.0,0.0,0.0,0.0,0.0,0.0,0.0,0.0,0.0,0.0,0.0,0.0,0.0,0.0,0.0,0.0,0.0,0.0,0.0,0.0,0.0,0.0,0.0,0.0,0.0,0.0,0.0,0.0,0.0,0.0,0.0,0.0,0.0,0.0,0.0,0.0,0.0,0.0,0.0,0.0,0.0,0.0,0.0,0.0,0.0,0.0,0.0,0.0,0.0,0.0,0.0,0.0,0.0,0.0,0.0,0.0,0.0,0.0,0.0,0.0,0.0,0.0,0.0,0.0,0.0,0.0,0.0,0.0,0.0,0.0,0.0,0.0,0.0,0.0,0.0,0.0,0.0,0.0,0.0,0.0,0.0,0.0,0.0,0.0,0.0,0.0,0.0,0.0,0.0,0.0,0.0,0.0,0.0,0.0,0.0,0.0,0.0,0.0,0.0,0.0,0.0,0.0,0.0,0.0,0.0,0.0,0.0,0.0,0.0,0.0,0.0,0.0,0.0,0.0,0.0,0.0,0.0,0.0,0.0,0.0,0.0,0.0,0.0,0.0,0.0,0.0,0.0,0.0,0.0,0.0,0.0,0.0,0.0,0.0,0.0,0.0,0.0,0.0,0.0,0.0,0.0,0.0,0.0,0.0,0.0,0.0,0.0,0.0,0.0,0.0,0.0,0.0,0.0,0.0,0.0,0.0,0.0,0.0,0.0,0.0,0.0,0.0,0.0,0.0,0.0,0.0,0.0,0.0,0.0,0.0,0.0,0.0,0.0,0.0,0.0,0.0,0.0,0.0,0.0,0.0,0.0,0.0,0.0,0.0,0.0,0.0,0.0,0.0,0.0,0.0,0.0,0.0,0.0,0.0,0.0,0.0,0.0,0.0,0.0,0.0,0.0,0.0,0.0,0.0,0.0,0.0,0.0,0.0,0.0,0.0,0.0,0.0,0.0,0.0,0.0,0.0,0.0,0.0,0.0,0.0,0.0,0.0,0.0,0.0,0.0,0.0,0.0,0.0,0.0,0.0,0.0,0.0,0.0,0.0,0.0,0.0,0.0,0.0,0.0,0.0,0.0,0.0,0.0,0.0,0.0,0.0,0.0,0.0,0.0,0.0,0.0,0.0,0.0,0.0,0.0,0.0,0.0,0.0,0.0,0.0,0.0,0.0,0.0,0.0,0.0,0.0,0.0,0.0,0.0,0.0,0.0,0.0,0.0,0.0,0.0,0.0,0.0,0.0,0.0,0.0,0.0,0.0,0.0,0.0,0.0,0.0,0.0,0.0,0.0,0.0,0.0,0.0,0.0,0.0,0.0,0.0,0.0,0.0,0.0,0.0,0.0,0.0,0.0,0.0,0.0,0.0,0.0,0.0,0.0,0.0,0.0,0.0,0.0,0.0,0.0,0.0,0.0,0.0,0.0,0.0,0.0,0.0,0.0,0.0,0.0,0.0,0.0,0.0,0.0,0.0,0.0,0.0,0.0,0.0,0.0,0.0,0.0,0.0,0.0,0.0,0.0,0.0,0.0,0.0,0.0,0.0,0.0,0.0,0.0,0.0,0.0,0.0,0.0,0.0,0.0,0.0,0.0,0.0,0.0,0.0,0.0,0.0,0.0,0.0,0.0,0.0,0.0,0.0,0.0,0.0,0.0,0.0,0.0,0.0,0.0,0.0,0.0,0.0,0.0,0.0,0.0,0.0,0.0,0.0,0.0,0.0,0.0,0.0,0.0,0.0,0.0,0.0,0.0,0.0,0.0,0.0,0.0,0.0,0.0,0.0,0.0,0.0,0.0,0.0,0.0,0.0,0.0,0.0,0.0,0.0,0.0,0.0,0.0,-2.358,0.0,0.0,0.0,0.0,0.0,0.0,0.0,0.0,0.0,0.0,0.0,0.0,0.0,0.0,0.0,0.0,0.0,0.0,0.0,0.0,0.0,0.0,0.0,0.0,0.0,0.0,0.0,0.0,0.0,0.0,0.0,0.0,0.0,0.0,0.0,0.0,0.0,0.0,0.0,0.0,0.0,0.0,0.0,0.0,0.0,0.0,0.0,0.0,0.0,0.0,0.0,0.0,0.0,0.0,0.0,0.0,0.0,0.0,0.0,0.0,0.0,0.0,0.0,0.0,0.0,0.0,0.0,0.0,0.0,0.0,0.0,0.0,0.0,0.0,0.0,0.0,0.0,0.0,0.0,0.0,0.0,0.0,0.0,0.0,0.0,0.0,0.0,0.0,0.0,0.0,0.0,0.0,0.0,0.0,0.0,0.0,0.0,0.0,0.0,0.0,0.0,0.0,0.0,0.0,0.0,0.0,0.0,0.0,0.0,0.0,-2.3595,-2.3595,-2.3595,-2.3595,-2.3595,0.0,0.0,0.0,0.0,0.0,0.0,0.0,0.0,0.0,0.0,0.0,0.0,0.0,0.0,0.0,0.0,0.0,0.0,0.0,0.0,0.0,0.0,0.0,0.0,0.0,0.0,0.0,0.0,0.0,0.0,0.0,0.0,0.0,0.0,0.0,0.0,0.0,0.0,0.0,0.0,0.0,0.0,0.0,0.0,0.0,0.0,0.0,0.0,0.0,0.0,0.0,0.0,0.0,0.0,0.0,0.0,0.0,0.0,0.0,0.0,0.0,0.0,0.0,0.0,0.0,0.0,0.0,0.0,0.0,0.0,0.0,0.0,0.0,0.0,0.0,0.0,0.0,0.0,0.0,0.0,0.0,0.0,0.0,0.0,0.0,0.0,0.0,0.0,0.0,0.0,0.0,0.0,0.0,0.0,0.0,0.0,0.0,0.0,0.0,0.0,0.0,0.0,0.0,0.0,0.0,0.0,0.0,0.0,0.0,0.0,0.0,0.0,-2.3834,-2.3834,-2.3812,0.0,0.0,0.0,0.0,0.0,0.0,0.0,0.0,0.0,0.0,0.0,0.0,0.0,0.0,0.0,0.0,0.0,0.0,0.0,0.0,0.0,0.0,0.0,0.0,0.0,0.0,0.0,0.0,0.0,0.0,0.0,0.0,0.0,0.0,0.0,0.0,0.0,0.0,0.0,0.0,0.0,0.0,0.0,0.0,0.0,0.0,0.0,0.0,0.0,0.0,0.0,0.0,0.0,0.0,0.0,0.0,0.0,0.0,0.0,0.0,0.0,0.0,0.0,0.0,0.0,0.0,0.0,0.0,0.0,0.0,0.0,0.0,0.0,0.0,0.0,0.0,0.0,0.0,0.0,0.0,0.0,0.0,0.0,0.0,0.0,0.0,0.0,0.0,0.0,0.0,0.0,0.0,0.0,0.0,0.0,0.0,0.0,0.0,0.0,0.0,0.0,0.0,0.0,0.0,0.0,0.0,0.0,0.0,0.0,0.0,-2.3909,-2.4485,-2.4515,0.0,-2.4492,0.0,0.0,0.0,0.0,0.0,0.0,0.0,0.0,0.0,0.0,0.0,0.0,0.0,0.0,0.0,0.0,0.0,0.0,0.0,0.0,0.0,0.0,0.0,0.0,0.0,0.0,0.0,0.0,0.0,0.0,0.0,0.0,0.0,0.0,0.0,0.0,0.0,0.0,0.0,0.0,0.0,0.0,0.0,0.0,0.0,0.0,0.0,0.0,0.0,0.0,0.0,0.0,0.0,0.0,0.0,0.0,0.0,0.0,0.0,0.0,0.0,0.0,0.0,0.0,0.0,0.0,0.0,0.0,0.0,0.0,0.0,0.0,0.0,0.0,0.0,0.0,0.0,0.0,0.0,0.0,0.0,0.0,0.0,0.0,0.0,0.0,0.0,0.0,0.0,0.0,0.0,0.0,0.0,0.0,0.0,0.0,0.0,0.0,0.0,0.0,0.0,0.0,0.0,0.0,0.0,0.0,0.0,0.0,0.0,0.0,-2.4321,-2.459,-2.4256,-2.3927,0.0,0.0,0.0,0.0,0.0,0.0,0.0,0.0,0.0,0.0,0.0,0.0,0.0,0.0,0.0,0.0,0.0,0.0,0.0,0.0,0.0,0.0,0.0,0.0,0.0,0.0,0.0,0.0,0.0,0.0,0.0,0.0,0.0,0.0,0.0,0.0,0.0,0.0,0.0,0.0,0.0,0.0,0.0,0.0,0.0,0.0,0.0,0.0,0.0,0.0,0.0,0.0,0.0,0.0,0.0,0.0,0.0,0.0,0.0,0.0,0.0,0.0,0.0,0.0,0.0,0.0,0.0,0.0,0.0,0.0,0.0,0.0,0.0,0.0,0.0,0.0,0.0,0.0,0.0,0.0,0.0,0.0,0.0,0.0,0.0,0.0,0.0,0.0,0.0,0.0,0.0,0.0,0.0,0.0,0.0,0.0,0.0,0.0,0.0,0.0,0.0,0.0,0.0,0.0,0.0,0.0,0.0,0.0,0.0,0.0,-2.4154,-2.4299,-2.4297,-2.3918,-2.334,-2.2669,0.0,0.0,0.0,0.0,0.0,0.0,0.0,0.0,0.0,0.0,0.0,0.0,0.0,0.0,0.0,0.0,0.0,0.0,0.0,0.0,0.0,0.0,0.0,0.0,0.0,0.0,0.0,0.0,0.0,0.0,0.0,0.0,0.0,0.0,0.0,0.0,0.0,0.0,0.0,0.0,0.0,0.0,0.0,0.0,0.0,0.0,0.0,0.0,0.0,0.0,0.0,0.0,0.0,0.0,0.0,0.0,0.0,0.0,0.0,0.0,0.0,0.0,0.0,0.0,0.0,0.0,0.0,0.0,0.0,0.0,0.0,0.0,0.0,0.0,0.0,0.0,0.0,0.0,0.0,0.0,0.0,0.0,0.0,0.0,0.0,0.0,0.0,0.0,0.0,0.0,0.0,0.0,0.0,0.0,0.0,0.0,0.0,0.0,0.0,0.0,0.0,0.0,0.0,0.0,0.0,0.0,0.0,0.0,0.0,-2.387,-2.3595,-2.3687,-2.3624,-2.3056,0.0,0.0,0.0,0.0,0.0,0.0,0.0,0.0,0.0,0.0,0.0,0.0,0.0,0.0,0.0,0.0,0.0,0.0,0.0,0.0,0.0,0.0,0.0,0.0,0.0,0.0,0.0,0.0,0.0,0.0,0.0,0.0,0.0,0.0,0.0,0.0,0.0,0.0,0.0,0.0,0.0,0.0,0.0,0.0,0.0,0.0,0.0,0.0,0.0,0.0,0.0,0.0,0.0,0.0,0.0,0.0,0.0,0.0,0.0,0.0,0.0,0.0,0.0,0.0,0.0,0.0,0.0,0.0,0.0,0.0,0.0,0.0,0.0,0.0,0.0,0.0,0.0,0.0,0.0,0.0,0.0,0.0,0.0,0.0,0.0,0.0,0.0,0.0,0.0,0.0,0.0,0.0,0.0,0.0,0.0,0.0,0.0,0.0,0.0,0.0,0.0,0.0,0.0,0.0,0.0,0.0,0.0,0.0,0.0,-2.3864,-2.3731,-2.4013,-2.4719,-2.2947,-2.1743,0.0,0.0,0.0,0.0,0.0,0.0,0.0,0.0,0.0,0.0,0.0,0.0,0.0,0.0,0.0,0.0,0.0,0.0,0.0,0.0,0.0,0.0,0.0,0.0,0.0,0.0,0.0,0.0,0.0,0.0,0.0,0.0,0.0,0.0,0.0,0.0,0.0,0.0,0.0,0.0,0.0,0.0,0.0,0.0,0.0,0.0,0.0,0.0,0.0,0.0,0.0,0.0,0.0,0.0,0.0,0.0,0.0,0.0,0.0,0.0,0.0,0.0,0.0,0.0,0.0,0.0,0.0,0.0,0.0,0.0,0.0,0.0,0.0,0.0,0.0,0.0,0.0,0.0,0.0,0.0,0.0,0.0,0.0,0.0,0.0,0.0,0.0,0.0,0.0,0.0,0.0,0.0,0.0,0.0,0.0,0.0,0.0,0.0,0.0,0.0,0.0,0.0,0.0,0.0,0.0,0.0,0.0,0.0,0.0,-2.3531,0.0,-2.3687,0.0,-2.2183,-2.0648,0.0,0.0,0.0,0.0,0.0,0.0,0.0,0.0,0.0,0.0,0.0,0.0,0.0,0.0,0.0,0.0,0.0,0.0,0.0,0.0,0.0,0.0,0.0,0.0,0.0,0.0,0.0,0.0,0.0,0.0,0.0,0.0,0.0,0.0,0.0,0.0,0.0,0.0,0.0,0.0,0.0,0.0,0.0,0.0,0.0,0.0,0.0,0.0,0.0,0.0,0.0,0.0,0.0,0.0,0.0,0.0,0.0,0.0,0.0,0.0,0.0,0.0,0.0,0.0,0.0,0.0,0.0,0.0,0.0,0.0,0.0,0.0,0.0,0.0,0.0,0.0,0.0,0.0,0.0,0.0,0.0,0.0,0.0,0.0,0.0,0.0,0.0,0.0,0.0,0.0,0.0,0.0,0.0,0.0,0.0,0.0,0.0,0.0,0.0,0.0,0.0,0.0,0.0,0.0,0.0,0.0,0.0,0.0,-2.173,-2.3442,-2.2748,-2.2467,-2.2591,-2.1388,-1.9938,0.0,0.0,0.0,0.0,0.0,0.0,0.0,0.0,0.0,0.0,0.0,0.0,0.0,0.0,0.0,0.0,0.0,0.0,0.0,0.0,0.0,0.0,0.0,0.0,0.0,0.0,0.0,0.0,0.0,0.0,0.0,0.0,0.0,0.0,0.0,0.0,0.0,0.0,0.0,0.0,0.0,0.0,0.0,0.0,0.0,0.0,0.0,0.0,0.0,0.0,0.0,0.0,0.0,0.0,0.0,0.0,0.0,0.0,0.0,0.0,0.0,0.0,0.0,0.0,0.0,0.0,0.0,0.0,0.0,0.0,0.0,0.0,0.0,0.0,0.0,0.0,0.0,0.0,0.0,0.0,0.0,0.0,0.0,0.0,0.0,0.0,0.0,0.0,0.0,0.0,0.0,0.0,0.0,0.0,0.0,0.0,0.0,0.0,0.0,0.0,0.0,0.0,0.0,0.0,0.0,0.0,0.0,0.0,0.0,-2.2177,-2.2323,-2.2605,-2.301,-2.1142,-2.0012,0.0,0.0,0.0,0.0,0.0,0.0,0.0,0.0,0.0,0.0,0.0,0.0,0.0,0.0,0.0,0.0,0.0,0.0,0.0,0.0,0.0,0.0,0.0,0.0,0.0,0.0,0.0,0.0,0.0,0.0,0.0,0.0,0.0,0.0,0.0,0.0,0.0,0.0,0.0,0.0,0.0,0.0,0.0,0.0,0.0,0.0,0.0,0.0,0.0,0.0,0.0,0.0,0.0,0.0,0.0,0.0,0.0,0.0,0.0,0.0,0.0,0.0,0.0,0.0,0.0,0.0,0.0,0.0,0.0,0.0,0.0,0.0,0.0,0.0,0.0,0.0,0.0,0.0,0.0,0.0,0.0,0.0,0.0,0.0,0.0,0.0,0.0,0.0,0.0,0.0,0.0,0.0,0.0,0.0,0.0,0.0,0.0,0.0,0.0,0.0,0.0,0.0,0.0,0.0,0.0,0.0,0.0,0.0,0.0,-2.2139,-2.2474,-2.2888,-2.3339,-2.1243,-2.0214,-2.0327,0.0,0.0,0.0,0.0,0.0,0.0,0.0,0.0,0.0,0.0,0.0,0.0,0.0,0.0,0.0,0.0,0.0,0.0,0.0,0.0,0.0,0.0,0.0,0.0,0.0,0.0,0.0,0.0,0.0,0.0,0.0,0.0,0.0,0.0,0.0,0.0,0.0,0.0,0.0,0.0,0.0,0.0,0.0,0.0,0.0,0.0,0.0,0.0,0.0,0.0,0.0,0.0,0.0,0.0,0.0,0.0,0.0,0.0,0.0,0.0,0.0,0.0,0.0,0.0,0.0,0.0,0.0,0.0,0.0,0.0,0.0,0.0,0.0,0.0,0.0,0.0,0.0,0.0,0.0,0.0,0.0,0.0,0.0,0.0,0.0,0.0,0.0,0.0,0.0,0.0,0.0,0.0,0.0,0.0,0.0,0.0,0.0,0.0,0.0,0.0,0.0,0.0,0.0,0.0,0.0,0.0,0.0,0.0,-2.3133,-2.3183,-2.3263,-2.3443,-2.1705,-2.0478,0.0,0.0,0.0,0.0,0.0,0.0,0.0,0.0,0.0,0.0,0.0,0.0,0.0,0.0,0.0,0.0,0.0,0.0,0.0,0.0,0.0,0.0,0.0,0.0,0.0,0.0,0.0,0.0,0.0,0.0,0.0,0.0,0.0,0.0,0.0,0.0,0.0,0.0,0.0,0.0,0.0,0.0,0.0,0.0,0.0,0.0,0.0,0.0,0.0,0.0,0.0,0.0,0.0,0.0,0.0,0.0,0.0,0.0,0.0,0.0,0.0,0.0,0.0,0.0,0.0,0.0,0.0,0.0,0.0,0.0,0.0,0.0,0.0,0.0,0.0,0.0,0.0,0.0,0.0,0.0,0.0,0.0,0.0,0.0,0.0,0.0,0.0,0.0,0.0,0.0,0.0,0.0,0.0,0.0,0.0,0.0,0.0,0.0,0.0,0.0,0.0,0.0,0.0,0.0,0.0,0.0,0.0,0.0,0.0,-2.3728,-2.4136,-2.4167,-2.3831,-2.2185,-2.1232,0.0,0.0,0.0,0.0,0.0,0.0,0.0,0.0,0.0,0.0,0.0,0.0,0.0,0.0,0.0,0.0,0.0,0.0,0.0,0.0,0.0,0.0,0.0,0.0,0.0,0.0,0.0,0.0,0.0,0.0,0.0,0.0,0.0,0.0,0.0,0.0,0.0,0.0,0.0,0.0,0.0,0.0,0.0,0.0,0.0,0.0,0.0,0.0,0.0,0.0,0.0,0.0,0.0,0.0,0.0,0.0,0.0,0.0,0.0,0.0,0.0,0.0,0.0,0.0,0.0,0.0,0.0,0.0,0.0,0.0,0.0,0.0,0.0,0.0,0.0,0.0,0.0,0.0,0.0,0.0,0.0,0.0,0.0,0.0,0.0,0.0,0.0,0.0,0.0,0.0,0.0,0.0,0.0,0.0,0.0,0.0,0.0,0.0,0.0,0.0,0.0,0.0,0.0,0.0,0.0,0.0,0.0,0.0,-2.3283,-2.4632,-2.477,-2.477,-2.4669,-2.3288,-2.2209,0.0,0.0,0.0,0.0,0.0,0.0,0.0,0.0,0.0,0.0,0.0,0.0,0.0,0.0,0.0,0.0,0.0,0.0,0.0,0.0,0.0,0.0,0.0,0.0,0.0,0.0,0.0,0.0,0.0,0.0,0.0,0.0,0.0,0.0,0.0,0.0,0.0,0.0,0.0,0.0,0.0,0.0,0.0,0.0,0.0,0.0,0.0,0.0,0.0,0.0,0.0,0.0,0.0,0.0,0.0,0.0,0.0,0.0,0.0,0.0,0.0,0.0,0.0,0.0,0.0,0.0,0.0,0.0,0.0,0.0,0.0,0.0,0.0,0.0,0.0,0.0,0.0,0.0,0.0,0.0,0.0,0.0,0.0,0.0,0.0,0.0,0.0,0.0,0.0,0.0,0.0,0.0,0.0,0.0,0.0,0.0,0.0,0.0,0.0,0.0,0.0,0.0,0.0,0.0,0.0,0.0,0.0,0.0,-2.4029,-2.5636,-2.5222,-2.5197,-2.5536,-2.4506,-2.3201,0.0,0.0,0.0,0.0,0.0,0.0,0.0,0.0,0.0,0.0,0.0,0.0,0.0,0.0,0.0,0.0,0.0,0.0,0.0,0.0,0.0,0.0,0.0,0.0,0.0,0.0,0.0,0.0,0.0,0.0,0.0,0.0,0.0,0.0,0.0,0.0,0.0,0.0,0.0,0.0,0.0,0.0,0.0,0.0,0.0,0.0,0.0,0.0,0.0,0.0,0.0,0.0,0.0,0.0,0.0,0.0,0.0,0.0,0.0,0.0,0.0,0.0,0.0,0.0,0.0,0.0,0.0,0.0,0.0,0.0,0.0,0.0,0.0,0.0,0.0,0.0,0.0,0.0,0.0,0.0,0.0,0.0,0.0,0.0,0.0,0.0,0.0,0.0,0.0,0.0,0.0,0.0,0.0,0.0,0.0,0.0,0.0,0.0,0.0,0.0,0.0,0.0,0.0,0.0,0.0,0.0,0.0,0.0,-2.4619,-2.6248,-2.6197,-2.5937,-2.5598,-2.4117,-2.312,0.0,0.0,0.0,0.0,0.0,0.0,0.0,0.0,0.0,0.0,0.0,0.0,0.0,0.0,0.0,0.0,0.0,0.0,0.0,0.0,0.0,0.0,0.0,0.0,0.0,0.0,0.0,0.0,0.0,0.0,0.0,0.0,0.0,0.0,0.0,0.0,0.0,0.0,0.0,0.0,0.0,0.0,0.0,0.0,0.0,0.0,0.0,0.0,-3.0253,0.0,0.0,0.0,0.0,0.0,0.0,0.0,0.0,0.0,0.0,0.0,0.0,0.0,0.0,0.0,0.0,0.0,0.0,0.0,0.0,0.0,0.0,0.0,0.0,0.0,0.0,0.0,0.0,0.0,0.0,0.0,0.0,0.0,0.0,0.0,0.0,0.0,0.0,0.0,0.0,0.0,0.0,0.0,0.0,0.0,0.0,0.0,0.0,0.0,0.0,0.0,0.0,0.0,0.0,0.0,0.0,0.0,0.0,0.0,-2.531,-2.6449,-2.6487,-2.6348,-2.6009,-2.4883,-2.3772,0.0,0.0,0.0,0.0,0.0,0.0,0.0,0.0,0.0,0.0,0.0,0.0,0.0,0.0,0.0,0.0,0.0,0.0,0.0,0.0,0.0,0.0,0.0,0.0,0.0,0.0,0.0,0.0,0.0,0.0,0.0,0.0,0.0,0.0,0.0,0.0,0.0,0.0,0.0,0.0,0.0,0.0,0.0,0.0,0.0,0.0,0.0,0.0,0.0,0.0,0.0,0.0,0.0,0.0,0.0,0.0,0.0,0.0,0.0,0.0,0.0,0.0,0.0,0.0,0.0,0.0,0.0,0.0,0.0,0.0,0.0,0.0,0.0,0.0,0.0,0.0,0.0,0.0,0.0,0.0,0.0,0.0,0.0,0.0,0.0,0.0,0.0,0.0,0.0,0.0,0.0,0.0,0.0,0.0,0.0,0.0,0.0,0.0,0.0,0.0,0.0,0.0,0.0,0.0,0.0,0.0,0.0,-2.5109,-2.5837,-2.6587,-2.6537,-2.6487,-2.6487,-2.59,-2.4644,-2.2631,0.0,0.0,0.0,0.0,0.0,0.0,0.0,0.0,0.0,0.0,0.0,0.0,0.0,0.0,0.0,0.0,0.0,0.0,0.0,0.0,0.0,0.0,0.0,0.0,0.0,0.0,0.0,0.0,0.0,0.0,0.0,0.0,0.0,0.0,0.0,0.0,0.0,0.0,-2.9411,-3.1157,0.0,0.0,0.0,0.0,0.0,0.0,0.0,0.0,-3.2422,0.0,0.0,0.0,0.0,0.0,0.0,0.0,0.0,0.0,0.0,0.0,0.0,0.0,0.0,0.0,0.0,0.0,0.0,0.0,0.0,0.0,0.0,0.0,0.0,0.0,0.0,0.0,0.0,0.0,0.0,0.0,0.0,0.0,0.0,0.0,0.0,0.0,0.0,0.0,0.0,0.0,0.0,0.0,0.0,0.0,0.0,0.0,0.0,0.0,0.0,0.0,0.0,0.0,0.0,0.0,0.0,-2.6047,-2.5322,-2.5661,-2.7128,-2.6725,-2.6487,-2.6474,-2.5933,-2.5008,-2.3791,0.0,0.0,0.0,0.0,0.0,0.0,0.0,0.0,0.0,0.0,0.0,0.0,0.0,0.0,0.0,0.0,0.0,0.0,0.0,0.0,0.0,0.0,0.0,0.0,0.0,0.0,0.0,0.0,0.0,0.0,0.0,0.0,0.0,0.0,0.0,0.0,0.0,0.0,0.0,-3.1259,-3.1256,0.0,0.0,0.0,0.0,0.0,0.0,0.0,0.0,-3.1824,0.0,0.0,0.0,0.0,0.0,0.0,0.0,0.0,0.0,0.0,0.0,0.0,0.0,0.0,0.0,0.0,0.0,0.0,0.0,0.0,0.0,0.0,0.0,0.0,0.0,0.0,0.0,0.0,0.0,0.0,0.0,0.0,0.0,0.0,0.0,0.0,0.0,0.0,0.0,0.0,0.0,0.0,0.0,0.0,0.0,0.0,0.0,0.0,0.0,0.0,0.0,0.0,0.0,0.0,0.0,-2.5937,-2.6352,-2.6904,-2.767,-2.7444,-2.7216,-2.6927,-2.6373,-2.5536,0.0,0.0,0.0,0.0,0.0,0.0,0.0,0.0,0.0,0.0,0.0,0.0,0.0,0.0,0.0,0.0,0.0,0.0,0.0,0.0,0.0,0.0,0.0,0.0,0.0,0.0,0.0,0.0,0.0,0.0,0.0,0.0,0.0,0.0,0.0,0.0,0.0,0.0,0.0,0.0,-3.0958,-3.1301,-3.1808,0.0,0.0,0.0,0.0,0.0,0.0,-3.1776,-3.1556,0.0,0.0,0.0,0.0,0.0,0.0,0.0,0.0,0.0,0.0,0.0,0.0,0.0,0.0,0.0,0.0,0.0,0.0,0.0,0.0,0.0,0.0,0.0,0.0,0.0,0.0,0.0,0.0,0.0,0.0,0.0,0.0,0.0,0.0,0.0,0.0,0.0,0.0,0.0,0.0,0.0,0.0,0.0,0.0,0.0,0.0,0.0,0.0,0.0,0.0,0.0,0.0,0.0,0.0,0.0,-2.5787,-2.7205,-2.8047,-2.8247,-2.816,-2.7896,-2.7457,-2.6939,-2.6135,0.0,0.0,0.0,0.0,0.0,0.0,0.0,0.0,0.0,0.0,0.0,0.0,0.0,0.0,0.0,0.0,0.0,0.0,0.0,0.0,0.0,0.0,0.0,0.0,0.0,0.0,0.0,0.0,0.0,0.0,0.0,0.0,0.0,0.0,0.0,0.0,0.0,0.0,0.0,0.0,0.0,-3.1387,-3.1367,-3.1295,0.0,0.0,0.0,0.0,-3.2222,-3.1931,0.0,0.0,0.0,0.0,0.0,0.0,0.0,0.0,0.0,0.0,0.0,0.0,0.0,0.0,0.0,0.0,0.0,0.0,0.0,0.0,0.0,0.0,0.0,0.0,0.0,0.0,0.0,0.0,0.0,0.0,0.0,0.0,0.0,0.0,0.0,0.0,0.0,0.0,0.0,0.0,0.0,0.0,0.0,0.0,0.0,0.0,0.0,0.0,0.0,0.0,0.0,0.0,0.0,0.0,0.0,0.0,-2.6373,-2.7065,-2.7846,-2.8712,-2.8373,-2.8072,-2.8009,-2.7482,-2.6653,0.0,0.0,0.0,0.0,0.0,0.0,0.0,0.0,0.0,0.0,0.0,0.0,0.0,0.0,0.0,0.0,0.0,0.0,0.0,0.0,0.0,0.0,0.0,0.0,0.0,0.0,0.0,0.0,0.0,0.0,0.0,0.0,0.0,0.0,0.0,0.0,0.0,0.0,0.0,0.0,0.0,-3.0676,-3.053,-3.0232,-3.024,0.0,0.0,-3.1648,-3.2964,-3.3101,0.0,0.0,0.0,0.0,0.0,0.0,0.0,0.0,0.0,0.0,0.0,0.0,0.0,0.0,0.0,0.0,0.0,0.0,0.0,0.0,0.0,0.0,0.0,0.0,0.0,0.0,0.0,0.0,0.0,0.0,0.0,0.0,0.0,0.0,0.0,0.0,0.0,0.0,0.0,0.0,0.0,0.0,0.0,0.0,0.0,0.0,0.0,0.0,0.0,0.0,0.0,0.0,0.0,0.0,0.0,-2.4324,-2.5523,-2.6992,-2.7991,-2.8429,-2.8847,-2.89,-2.8537,-2.7733,-2.6615,0.0,0.0,0.0,0.0,0.0,0.0,0.0,0.0,0.0,0.0,0.0,0.0,0.0,0.0,0.0,0.0,0.0,0.0,0.0,0.0,0.0,0.0,0.0,0.0,0.0,0.0,0.0,0.0,0.0,0.0,0.0,0.0,0.0,0.0,0.0,0.0,0.0,0.0,0.0,0.0,0.0,0.0,-2.9363,-2.8795,0.0,0.0,0.0,-3.0533,-3.1318,0.0,0.0,0.0,0.0,0.0,0.0,0.0,0.0,0.0,0.0,0.0,0.0,0.0,0.0,0.0,0.0,0.0,0.0,0.0,0.0,0.0,0.0,0.0,0.0,0.0,0.0,0.0,0.0,0.0,0.0,0.0,0.0,0.0,0.0,0.0,0.0,0.0,0.0,0.0,0.0,0.0,0.0,0.0,0.0,0.0,0.0,0.0,0.0,0.0,0.0,0.0,0.0,0.0,0.0,0.0,0.0,0.0,-2.4654,-2.6671,-2.7862,-2.8286,-2.8971,-2.9296,-2.9101,-2.8059,0.0,0.0,0.0,0.0,0.0,0.0,0.0,0.0,0.0,0.0,0.0,0.0,0.0,0.0,0.0,0.0,0.0,0.0,0.0,0.0,0.0,0.0,0.0,0.0,0.0,0.0,0.0,-1.9315,0.0,0.0,0.0,0.0,0.0,0.0,0.0,0.0,0.0,0.0,0.0,0.0,0.0,0.0,-2.7303,-2.8521,-2.8089,-2.7923,0.0,0.0,-2.9541,-2.9963,-3.0521,-3.0812,0.0,0.0,0.0,0.0,0.0,0.0,0.0,0.0,0.0,0.0,0.0,0.0,0.0,0.0,0.0,0.0,0.0,0.0,0.0,0.0,0.0,0.0,0.0,0.0,0.0,0.0,0.0,0.0,0.0,0.0,0.0,0.0,0.0,0.0,0.0,0.0,0.0,0.0,0.0,0.0,0.0,0.0,0.0,0.0,0.0,0.0,0.0,0.0,0.0,0.0,0.0,0.0,0.0,0.0,-2.334,-2.4269,-2.5779,-2.7275,-2.8662,-2.8386,-2.8715,-2.9678,-2.8637,-2.7256,0.0,0.0,0.0,0.0,0.0,0.0,0.0,0.0,0.0,0.0,0.0,0.0,0.0,0.0,0.0,0.0,0.0,0.0,0.0,0.0,0.0,0.0,0.0,0.0,0.0,0.0,0.0,0.0,0.0,0.0,0.0,0.0,0.0,0.0,0.0,0.0,0.0,0.0,0.0,0.0,0.0,-2.7952,-2.8355,-2.8767,-2.9379,0.0,-2.9799,-2.9385,-2.9926,-3.0041,-2.984,-2.9101,0.0,0.0,0.0,0.0,0.0,0.0,0.0,0.0,0.0,0.0,0.0,0.0,0.0,0.0,0.0,0.0,0.0,0.0,0.0,0.0,0.0,0.0,0.0,0.0,0.0,0.0,0.0,0.0,-2.8201,0.0,0.0,0.0,0.0,0.0,0.0,0.0,0.0,0.0,0.0,0.0,0.0,0.0,0.0,0.0,0.0,0.0,0.0,0.0,0.0,0.0,0.0,0.0,0.0,-2.1508,-2.3129,-2.4929,-2.613,-2.6721,-2.7886,-2.859,-2.8727,-2.8325,-2.7318,0.0,0.0,0.0,0.0,0.0,0.0,0.0,0.0,0.0,0.0,0.0,0.0,0.0,0.0,0.0,0.0,0.0,0.0,0.0,0.0,0.0,0.0,0.0,0.0,0.0,0.0,0.0,0.0,-1.8875,-1.8998,-1.8993,0.0,0.0,0.0,0.0,0.0,0.0,0.0,0.0,0.0,0.0,-2.6218,-2.7597,-2.761,0.0,0.0,-2.8494,-2.8758,-2.9219,-2.9168,-2.9015,-2.8701,-2.7748,0.0,0.0,0.0,0.0,0.0,0.0,0.0,0.0,0.0,0.0,0.0,0.0,0.0,0.0,0.0,0.0,0.0,0.0,0.0,0.0,0.0,0.0,0.0,0.0,0.0,0.0,0.0,-2.7451,0.0,0.0,0.0,0.0,0.0,0.0,0.0,0.0,0.0,0.0,0.0,0.0,0.0,0.0,0.0,0.0,0.0,0.0,0.0,0.0,0.0,0.0,0.0,0.0,-2.0609,-2.2503,-2.4219,-2.5279,-2.5622,-2.7023,-2.7881,-2.8096,-2.7956,-2.71,0.0,0.0,0.0,0.0,0.0,0.0,0.0,0.0,0.0,0.0,0.0,0.0,0.0,0.0,0.0,0.0,0.0,0.0,0.0,0.0,0.0,0.0,0.0,0.0,0.0,0.0,0.0,0.0,-1.8676,-1.8676,-1.8887,0.0,0.0,0.0,0.0,0.0,0.0,0.0,0.0,0.0,0.0,-2.4297,-2.6338,-2.6278,-2.6244,-2.7097,-2.7452,-2.7762,-2.807,-2.8078,-2.8093,-2.8025,0.0,0.0,0.0,0.0,0.0,0.0,0.0,0.0,0.0,0.0,0.0,0.0,0.0,0.0,0.0,0.0,0.0,0.0,0.0,0.0,0.0,0.0,0.0,0.0,0.0,0.0,0.0,-2.765,0.0,0.0,-2.6487,0.0,0.0,0.0,0.0,0.0,0.0,0.0,0.0,0.0,0.0,0.0,0.0,0.0,0.0,0.0,0.0,0.0,0.0,0.0,0.0,0.0,0.0,-2.1192,-2.2513,-2.3765,-2.4981,-2.6003,-2.5698,-2.6342,-2.7959,-2.7573,-2.6562,-2.5004,0.0,0.0,0.0,0.0,0.0,0.0,0.0,0.0,0.0,0.0,0.0,0.0,0.0,0.0,0.0,0.0,0.0,0.0,0.0,0.0,0.0,0.0,0.0,0.0,0.0,0.0,-1.9219,-1.8861,-1.8426,0.0,0.0,0.0,0.0,0.0,0.0,0.0,0.0,0.0,-2.0083,-2.0892,-2.2401,-2.4702,-2.4898,-2.5479,-2.7317,-2.6953,-2.6406,-2.6445,-2.6759,-2.6973,0.0,0.0,0.0,0.0,0.0,0.0,0.0,0.0,0.0,0.0,0.0,0.0,0.0,0.0,0.0,0.0,0.0,0.0,0.0,0.0,0.0,0.0,0.0,0.0,0.0,0.0,0.0,-2.6635,-2.6165,0.0,0.0,0.0,0.0,0.0,0.0,0.0,0.0,0.0,0.0,0.0,-2.4089,-2.3556,0.0,0.0,0.0,0.0,0.0,0.0,0.0,0.0,0.0,0.0,0.0,0.0,-2.0918,-2.248,-2.376,-2.4736,-2.5421,-2.5719,-2.6006,-2.632,-2.6228,-2.5063,-2.2691,0.0,0.0,0.0,0.0,0.0,0.0,0.0,0.0,0.0,0.0,0.0,0.0,0.0,0.0,0.0,0.0,0.0,0.0,0.0,0.0,0.0,0.0,0.0,0.0,0.0,-1.9131,0.0,0.0,0.0,0.0,0.0,0.0,0.0,0.0,0.0,0.0,-1.9112,-1.9666,-2.0178,-2.1016,-2.2069,-2.3328,-2.3704,-2.4164,0.0,0.0,0.0,0.0,0.0,0.0,0.0,0.0,0.0,0.0,0.0,0.0,0.0,0.0,-2.597,-2.7192,-2.7151,-2.6986,-2.7151,0.0,0.0,0.0,0.0,0.0,0.0,0.0,0.0,0.0,0.0,0.0,0.0,0.0,0.0,-2.6497,-2.6289,-2.5989,0.0,0.0,0.0,0.0,0.0,0.0,0.0,0.0,-2.5183,-2.5102,-2.496,-2.4295,-2.3773,-2.3379,-2.2822,-2.2174,0.0,0.0,0.0,0.0,0.0,0.0,0.0,0.0,-2.1533,-2.2939,-2.4219,-2.4941,-2.5096,-2.551,-2.5657,-2.539,-2.5216,-2.4097,-2.2003,-2.0988,-1.9658,0.0,0.0,0.0,0.0,0.0,0.0,0.0,0.0,0.0,0.0,0.0,0.0,0.0,0.0,0.0,0.0,0.0,0.0,0.0,0.0,0.0,0.0,0.0,-1.8945,0.0,0.0,0.0,0.0,0.0,0.0,0.0,0.0,0.0,-1.7911,-1.8509,-1.9058,-1.9384,-2.0002,-2.0812,-2.1973,0.0,0.0,0.0,0.0,0.0,0.0,0.0,-2.2292,-2.2478,-2.2258,-2.205,-2.2164,-2.309,-2.3739,-2.3317,0.0,0.0,-2.6255,-2.621,-2.6051,-2.619,-2.6574,-2.6517,-2.5476,-2.6161,-2.6615,0.0,0.0,0.0,0.0,-2.8488,0.0,0.0,0.0,-2.7833,-2.7732,0.0,-2.702,0.0,0.0,0.0,0.0,-2.4158,-2.4918,0.0,0.0,-2.5801,-2.6162,-2.5723,-2.5703,-2.5537,-2.5174,-2.5001,-2.4339,-2.3081,-2.0964,0.0,0.0,0.0,0.0,0.0,0.0,-2.2886,-2.3769,-2.4982,-2.5498,-2.5165,-2.5125,-2.5195,-2.5313,-2.4556,-2.3736,-2.2864,-2.1406,-2.0028,-1.8724,-1.8281,0.0,0.0,0.0,0.0,0.0,0.0,0.0,0.0,0.0,0.0,0.0,0.0,0.0,0.0,0.0,0.0,0.0,0.0,0.0,0.0,-1.8723,0.0,0.0,0.0,0.0,0.0,0.0,0.0,0.0,0.0,-1.6258,-1.7347,-1.7937,-1.8117,-1.7705,0.0,0.0,0.0,0.0,-2.1068,-2.2778,-2.2697,-2.2379,-2.2379,-2.273,-2.282,-2.2411,0.0,0.0,-2.3027,-2.3813,-2.4104,-2.3116,-2.3731,-2.4561,-2.4571,-2.4096,-2.3736,-2.4145,-2.3747,-2.3283,-2.399,-2.5282,-2.6163,-2.9469,0.0,0.0,0.0,0.0,-2.8634,-2.8841,-2.9935,-2.8645,-2.7784,-2.725,-2.7047,0.0,0.0,0.0,0.0,0.0,0.0,-2.5382,-2.583,-2.6211,-2.6475,-2.665,-2.66,-2.6426,-2.6006,-2.4718,-2.3738,-2.2989,-2.0833,-1.9563,-1.9254,0.0,0.0,0.0,0.0,-2.2064,-2.3744,-2.4756,-2.5352,-2.5547,-2.5234,-2.4834,-2.4282,-2.3414,-2.2878,-2.2629,-2.1587,-2.0723,-2.0077,-1.9316,0.0,0.0,0.0,0.0,0.0,0.0,0.0,0.0,0.0,0.0,0.0,0.0,0.0,0.0,0.0,0.0,0.0,0.0,0.0,-1.6911,-1.6733,-1.666,0.0,0.0,0.0,0.0,0.0,0.0,0.0,0.0,0.0,-1.72,-1.7413,-1.7514,0.0,0.0,-1.8279,-1.9147,-1.9313,-1.9611,-2.0366,-2.0395,0.0,-2.0274,-2.0032,-1.998,-2.0217,-2.0736,-2.1071,-2.1003,-2.1282,-2.1374,-2.1038,-2.1282,-2.1591,-2.1904,-2.3291,-2.4251,-2.4482,-2.4343,-2.4212,-2.4515,-2.5697,-2.6769,-3.0023,-2.9824,-2.9045,-2.9168,-2.9749,-2.8758,-2.9122,-3.0248,-2.9036,-2.8437,-2.8232,-2.7744,-2.7141,-2.6465,-2.5766,0.0,0.0,0.0,-2.6064,-2.6894,-2.6894,-2.7109,-2.75,-2.7353,-2.7051,-2.658,-2.4779,-2.3719,-2.3224,-2.1227,-1.9742,-1.8908,0.0,-1.8981,-1.9281,-2.0669,-2.2071,-2.3474,-2.4677,-2.5469,-2.5674,-2.5303,-2.4736,-2.4053,-2.3369,-2.2861,-2.2519,-2.198,-2.1543,-2.1143,-2.0302,-1.9482,0.0,0.0,0.0,0.0,0.0,0.0,0.0,0.0,0.0,0.0,0.0,-1.7167,-1.5272,0.0,0.0,0.0,-1.5811,-1.6288,-1.6415,-1.6124,0.0,0.0,0.0,0.0,0.0,0.0,0.0,-1.4484,-1.5258,-1.5922,-1.6311,-1.6931,-1.7527,-1.7889,-1.8103,-1.837,-1.8784,0.0,-1.9032,-1.9325,-1.9424,-1.9424,-1.9424,-1.9072,-1.9005,-1.9459,-1.9673,-1.984,-2.002,-2.0087,-2.0127,-2.01,-2.0154,-2.0327,-2.0621,-2.2076,-2.3171,-2.3233,-2.3255,-2.3255,-2.3255,-2.5036,-2.6637,-3.0664,-3.0156,-2.8984,-2.8691,-2.9014,-2.9023,-2.9277,-2.9639,-2.9248,-2.9502,-3.0098,-2.8965,-2.8389,-2.8184,-2.6621,0.0,-2.6484,-2.6523,-2.6973,-2.7767,-2.7715,-2.791,-2.8262,-2.7953,-2.7428,-2.6846,-2.5034,-2.3913,-2.3329,-2.157,-1.9996,-1.8666,-1.8878,-1.919,-1.9665,-2.138,-2.2545,-2.2982,-2.4802,-2.5684,-2.5674,-2.5303,-2.4816,-2.4275,-2.3958,-2.331,-2.2298,-2.2473,-2.2321,-2.1809,-2.1112,-2.0508,-1.9982,0.0,0.0,0.0,0.0,0.0,0.0,0.0,0.0,0.0,0.0,0.0,0.0,0.0,0.0,0.0,-1.6429,0.0,-1.6934,-1.627,0.0,0.0,0.0,-1.2711,-1.2768,-1.2249,-1.1933,-1.1968,0.0,0.0,-1.5012,-1.6466,-1.7709,-1.8384,-1.8477,-1.8691,-1.9252,-1.9112,-1.9058,-1.9332,-1.9424,-1.9424,-1.9424,-1.9397,-1.9399,-1.9659,-1.9766,-1.9753,-1.978,-1.9953,-2.0027,-1.9813,-1.9987,-2.0247,-2.0548,-2.0733,-2.0708,-2.1157,-2.1308,-2.1398,-2.1427,-2.3793,-2.6031,-3.1113,-3.0693,-3.04,-3.0127,-2.9893,-2.9893,-3.0156,-3.0557,-3.0469,-3.0342,-3.0166,-2.9883,-2.9209,-2.8252,-2.7529,-2.7266,-2.7425,-2.7695,-2.7949,-2.8135,-2.8144,-2.8193,-2.8281,-2.8193,-2.7299,-2.5729,-2.4062,-2.2427,-2.093,-1.9257,-1.8202,-1.7874,-1.7935,-1.8146,-1.8542,-2.0475,-2.2002,-2.2991,-2.4753,-2.5684,-2.5674,-2.5303,-2.441,-2.3093,-2.3539,-2.2657,-2.0381,-2.1998,-2.2342,-2.109,-2.1677,-2.1709,-2.0908,-1.9005,0.0,0.0,0.0,0.0,0.0,0.0,0.0,0.0,0.0,-1.6027,-1.361,0.0,-1.495,0.0,-1.4465,-1.5014,-1.5435,-1.4132,0.0,0.0,-1.2637,-1.1786,-1.2432,-1.2134,-1.2097,-1.2531,-1.3027,-1.3841,-1.5141,-1.5881,-1.6755,-1.7919,-1.835,-1.8624,-1.8978,-1.9172,-1.9285,-1.9345,-1.9417,-1.9424,-1.9424,-1.9424,-1.9392,-1.9517,-1.9472,-1.9466,-1.9472,-1.9526,-1.9539,-1.9486,-1.9519,-1.9686,-1.9967,-2.0007,-2.0214,-2.0785,-2.1929,-2.2591,-2.1481,-2.373,-2.6037,-3.1445,-3.0898,-3.0898,-3.0742,-3.0508,-3.0498,-3.0654,-3.0889,-3.0898,-3.0742,-3.0498,-3.0293,-2.959,-2.8574,-2.833,-2.8115,-2.7969,-2.8193,-2.8301,-2.8301,-2.8301,-2.8301,-2.8237,-2.7609,-2.7006,-2.6318,-2.3395,-2.1658,-2.0958,-1.8706,-1.7589,-1.7589,-1.7589,-1.7698,-1.7924,-1.9617,-2.0795,-2.1503,-2.3682,-2.4815,-2.4805,-2.5189,-2.4479,-2.2679,-2.301,-2.2089,-1.9596,-2.0764,-2.1042,-2.0079,-2.0433,-2.0443,-1.9956,-1.8413,-1.7424,0.0,0.0,0.0,0.0,0.0,0.0,0.0,0.0,0.0,0.0,0.0,-1.4269,-1.3121,-1.3047,-1.3197,-1.3596,-1.2889,-1.2608,-1.3045,-1.182,-1.1097,-1.158,-1.1019,-1.0668,-1.1035,-1.1643,-1.2432,-1.3411,-1.478,-1.6006,-1.6961,-1.7788,-1.8397,-1.8684,-1.8985,-1.9165,-1.9165,-1.9279,-1.9424,-1.9424,-1.9424,-1.9424,-1.9424,-1.9424,-1.9424,-1.9424,-1.9424,-1.9424,-1.9424,-1.9424,-1.9517,-1.9733,-2.0364,-2.076,-2.0895,-2.3179,-2.4101,-2.1755,-2.4278,-2.6953,-3.1621,-3.0898,-3.0898,-3.0898,-3.0898,-3.0898,-3.0898,-3.0898,-3.0898,-3.0898,-3.0859,-3.04,-2.9756,-2.9014,-2.8945,-2.8691,-2.8301,-2.8301,-2.8301,-2.8301,-2.8301,-2.8174,-2.795,-2.6717,-2.637,-2.6739,-2.2662,-2.1094,-2.1703,-1.8984,-1.7589,-1.7589,-1.7589,-1.7589,-1.7635,-1.8767,-1.9531,-1.9878,-2.2206,-2.3434,-2.3434,-2.4609,-2.4216,-2.2224,-2.2265,-2.1284,-1.9163,-1.9314,-1.9303,-1.8953,-1.8685,-1.8556,-1.8496,-1.7619,-1.6999,0.0,-1.6332,0.0,0.0,0.0,0.0,0.0,0.0,0.0,0.0,-1.4167,-1.3724,-1.2768,-1.2167,-1.185,-1.1948,-1.2108,-1.2184,-1.2142,-1.1177,-1.0444,-1.0452,-0.9559,-0.8937,-0.8937,-1.0021,-1.0836,-1.1269,-1.348,-1.5242,-1.5922,-1.7134,-1.8022,-1.8343,-1.8691,-1.8945,-1.8868,-1.9172,-1.9424,-1.9424,-1.9424,-1.9424,-1.9424,-1.9424,-1.9424,-1.9424,-1.9424,-1.9424,-1.9424,-1.9424,-1.9452,-1.9706,-2.0751,-2.1195,-2.0408,-2.3841,-2.5727,-2.2901,-2.5037,-2.7751,-3.1348,-3.0898,-3.0898,-3.0898,-3.0898,-3.0898,-3.0898,-3.0898,-3.0898,-3.0898,-3.085,-3.04,-2.9922,-2.9434,-2.9072,-2.8691,-2.8301,-2.8301,-2.8301,-2.8301,-2.8301,-2.7672,-2.6545,-2.6209,-2.4896,-2.2736,-2.1369,-2.0211,-1.9201,-1.811,-1.7589,-1.7589,-1.7589,-1.7589,-1.7635,0.0,0.0,0.0,-2.1803,-2.2114,-2.2055,-2.2316,-2.1512,-1.9552,-2.0425,0.0,-1.6737,-1.8442,-1.9007,-1.8049,-1.8841,0.0,0.0,0.0,0.0,0.0,0.0,0.0,0.0,0.0,0.0,0.0,-1.5334,-1.5147,-1.483,-1.4397,-1.3556,-1.2229,-1.2179,-1.2287,-1.2286,-1.1504,-1.1045,-1.0996,-0.9931,-0.9223,-0.9219,-0.903,-0.8937,-0.8937,-0.9158,-0.975,-1.0945,-1.262,-1.4143,-1.5327,-1.674,-1.7636,-1.7762,-1.8424,-1.8835,-1.8945,-1.9178,-1.9417,-1.9424,-1.9424,-1.9424,-1.9424,-1.9424,-1.9424,-1.9424,-1.9424,-1.9424,-1.9424,-1.9424,-1.9437,-1.9446,-1.973,-2.0168,-1.9886,-2.302,-2.5,-2.3217,-2.5726,-2.8307,-3.1465,-3.0898,-3.0898,-3.0898,0.0,-3.0898,-3.0898,-3.0898,-3.0898,-3.0898,-3.0859,-3.04,-2.9961,-2.9551,-2.9111,-2.8691,-2.8301,-2.8301,-2.7897,-2.7222,-2.7222,-2.6436,-2.4931,-2.4211,-2.3479,-2.2614,-2.0597,-1.9607,-1.9516,-1.8237,-1.7589,-1.7589,-1.7589,-1.7589,-1.7589,-1.7589,-1.8297,-1.9672,-2.0333,-2.0684,-2.0684,-2.1347,-2.0843,-1.9067,-1.9411,0.0,0.0,0.0,0.0,0.0,0.0,0.0,0.0,0.0,0.0,-1.6267,-1.5732,-1.5311,-1.5132,-1.5438,-1.5725,-1.6019,-1.5528,-1.5032,-1.4584,-1.3172,-1.2023,-1.1362,-1.0893,-1.0623,-1.0662,-1.017,-0.9791,-0.9794,-0.9274,-0.8937,-0.8937,-0.8937,-0.8937,-0.8937,-0.8937,-0.921,-0.9915,-1.1969,-1.348,-1.4341,-1.6227,-1.7589,-1.7635,-1.809,-1.8508,-1.8815,-1.9172,-1.9424,-1.9424,-1.9424,-1.9424,-1.9424,-1.9424,-1.9424,-1.9424,-1.9424,-1.9424,-1.9424,-1.9424,-1.9424,-1.954,-2.0486,-2.1375,-2.1278,-2.4236,-2.6672,-2.5646,-2.7532,-2.9344,-3.1601,-3.0898,-3.0898,-3.0898,-3.0898,-3.0898,-3.0898,-3.0898,-3.0898,0.0,0.0,-3.04,-2.9971,-2.9607,-2.9111,-2.8691,-2.8301,-2.8301,-2.7501,-2.6091,-2.6091,-2.5151,-2.3375,-2.2145,-2.205,-2.2751,-1.9939,-1.9098,-2.0123,-1.8469,-1.7589,-1.7589,-1.7589,-1.7589,-1.7589,-1.7589,-1.7589,-1.7635,-1.8708,-1.9272,-1.9272,-2.0385,-2.0323,-1.8911,-1.8581,-1.776,-1.6458,-1.6112,-1.5872,-1.5645,-1.5625,-1.5631,-1.5638,-1.5858,-1.6092,-1.6333,-1.6368,-1.6349,-1.6293,-1.6137,-1.603,-1.6081,-1.4982,-1.4073,-1.3529,-1.1667,-1.0501,-1.0391,-0.9392,-0.8801,-0.8871,-0.8937,-0.8937,-0.8937,-0.8937,-0.8937,-0.8937,-0.8937,-0.8937,-0.8937,-0.8937,-0.9047,-0.9427,-1.1647,-1.3431,-1.3965,-1.6009,-1.7589,-1.7622,-1.7869,-1.8249,-1.8768,-1.9112,-1.9285,-1.941,-1.9424,-1.9424,-1.9424,-1.9424,-1.9424,-1.9424,-1.9424,-1.9424,-1.9424,-1.9424,-1.9533,-1.9866,-2.1601,-2.3015,-2.2279,-2.5804,-2.8841,-2.798,-2.9247,-3.0372,-3.1338,-3.0898,-3.0898,-3.0898,-3.0898,-3.0898,-3.0898,-3.0898,-3.0898,-3.0898,-3.0859,-3.04,-2.9961,-2.9597,-2.9111,-2.8691,-2.8301,-2.8301,-2.7501,-2.6091,-2.6091,-2.4591,-2.1975,-2.1699,-2.0892,-1.9631,-1.8861,-1.846,-1.83,-1.7855,-1.7589,-1.7589,-1.7589,-1.7589,-1.7589,-1.7589,-1.7589,-1.7635,-1.7786,-1.7884,-1.7891,-1.8094,-1.795,-1.7514,-1.7466,-1.7194,-1.666,-1.66,-1.6567,-1.6526,-1.6526,-1.6526,-1.6526,-1.6547,-1.6607,-1.659,-1.5557,-1.4856,-1.4811,-1.392,-1.3499,-1.3683,-1.245,-1.1509,-1.1199,-1.108,-1.0502,-0.934,-0.9006,-0.8858,-0.8937,-0.8937,-0.8937,-0.8937,-0.8937,-0.8937,-0.8937,-0.8937,-0.8937,-0.8937,-0.8937,-0.9478,-1.0621,-1.224,-1.3857,-1.499,-1.6446,-1.7589,-1.7629,-1.7849,-1.8215,-1.8715,-1.8951,-1.9092,-1.9305,-1.9424,-1.9424,-1.9424,-1.9424,-1.9424,-1.9424,-1.9424,-1.9424,-1.9424,-1.9424,-1.9873,-2.0923,-2.1536,-2.2665,-2.3748,-2.6355,-2.7811,-2.7998,-2.962,-3.0752,-3.1484,-3.0918,-3.0898,-3.0898,-3.0898,-3.0898,-3.0898,-3.0898,-3.0898,-3.0898,-3.082,-3.0156,-2.9812,-2.9521,-2.8877,-2.8476,-2.8301,-2.8301,-2.7051,-2.4931,-2.4875,-2.3271,-2.0594,-2.0422,-1.988,-1.8918,-1.8631,-1.8337,-1.7989,-1.7729,-1.7589,-1.7589,-1.7589,-1.7589,-1.7589,-1.7589,-1.7589,-1.7589,-1.7589,-1.7589,-1.7589,-1.7589,-1.7522,-1.7388,-1.7286,-1.7146,-1.6998,-1.6794,-1.6707,-1.6707,-1.6707,-1.6707,-1.6707,-1.686,-1.6941,-1.6897,-1.5731,-1.5018,-1.5012,-1.38,-1.2783,-1.2122,-1.1483,-1.0694,-0.9759,-0.9819,-0.9644,-0.8992,-0.8937,-0.8937,-0.8937,-0.8937,-0.8937,-0.8937,-0.8937,-0.8937,-0.8937,-0.8937,-0.8937,-0.8992,-0.9644,-1.0351,-1.1,-1.3048,-1.4609,-1.5417,-1.6658,-1.7582,-1.7589,-1.7709,-1.8016,-1.8577,-1.8951,-1.9199,-1.9397,-1.9424,-1.9424,-1.9424,-1.9424,-1.9424,-1.9424,-1.9424,-1.9424,-1.9424,-1.9424,-1.9982,-2.1365,-2.2534,-2.378,-2.5371,-2.7448,-2.8765,-2.9326,-3.0142,-3.0801,-3.167,-3.0898,-3.0898,-3.0898,-3.0898,-3.0898,-3.0898,-3.0898,-3.0898,-3.0898,-3.0771,-2.9951,-2.958,-2.9538,-2.8682,-2.8301,-2.8237,-2.796,-2.6336,-2.3933,-2.3431,-2.1934,-1.9591,-1.9424,-1.9178,-1.8838,-1.8597,-1.8303,-1.7896,-1.7695,-1.7589,-1.7589,-1.7589,-1.7589,-1.7589,-1.7589,-1.7589,-1.7589,-1.7589,-1.7589,-1.7589,-1.7589,-1.7589,-1.7621,-1.742,-1.73,-1.7286,-1.7021,-1.6901,-1.6907,-1.6907,-1.6907,-1.6914,-1.7166,-1.7293,-1.7158,-1.5793,-1.4609,-1.3906,-1.294,-1.181,-1.0726,-1.0621,-1.0131,-0.9099,-0.8937,-0.8937,-0.8937,-0.8937,-0.8937,-0.8937,-0.8937,-0.8937,-0.8937,-0.8937,-0.8937,-0.8937,-0.8937,-0.8937,-0.9047,-1.0186,-1.116,-1.1914,-1.3798,-1.5417,-1.6009,-1.6929,-1.7529,-1.7589,-1.7629,-1.7903,-1.831,-1.8838,-1.9138,-1.9245,-1.939,-1.9417,-1.9424,-1.9424,-1.9424,-1.9424,-1.9424,-1.9424,-1.9424,-1.9424,-2.0263,-2.1729,-2.3318,-2.5105,-2.6886,-2.8804,-3.0071,-3.0266,-3.0587,-3.0889,-3.166,-3.0947,-3.0898,-3.0898,-3.0898,-3.0898,-3.0898,-3.0898,-3.0898,-3.0898,-3.0675,-2.9951,-2.958,-2.9453,-2.8682,-2.8257,-2.8121,-2.6888,-2.538,-2.371,-2.2428,-2.0923,-1.9482,-1.9424,-1.9078,-1.8604,-1.851,-1.821,-1.7695,-1.7609,-1.7589,-1.7589,-1.7589,-1.7589,-1.7589,-1.7589,-1.7589,-1.7589,-1.7589,-1.7589,-1.7589,-1.7589,-1.7589,-1.7589,-1.7555,-1.7542,-1.7574,-1.7568,-1.7502,-1.7502,-1.7488,-1.7495,-1.7495,-1.7522,-1.7535,-1.743,-1.4973,-1.2398,-0.9915,-0.9372,-0.9372,-0.9154,-0.921,-0.9099,-0.8937,-0.8937,-0.8937,-0.8937,-0.8937,-0.8937,-0.8937,-0.8937,-0.8937,-0.8937,-0.8937,-0.8937,-0.8937,-0.8937,-0.8937,-0.8937,-1.0296,-1.1592,-1.2886,-1.4502,-1.5956,-1.7041,-1.7364,-1.7589,-1.7602,-1.7762,-1.7923,-1.8096,-1.8384,-1.8684,-1.8931,-1.9212,-1.9397,-1.9424,-1.9424,-1.9424,-1.9424,-1.9424,-1.9424,-1.9424,-1.9424,-2.0314,-2.2585,-2.4232,-2.5639,-2.8192,-2.9686,-3.0342,-3.0703,-3.0859,-3.0898,-3.1435,-3.0898,-3.0898,-3.0898,-3.0898,-3.0898,-3.0898,-3.0898,-3.0898,-3.0392,-2.9486,-2.9535,-2.958,-2.9531,-2.8028,-2.7249,-2.6888,-2.5434,-2.3925,-2.2533,-2.1862,-2.0809,-1.954,-1.9424,-1.9145,-1.8751,-1.8577,-1.827,-1.7889,-1.7675,-1.7589,-1.7589,-1.7589,-1.7589,-1.7589,-1.7589,-1.7589,-1.7589,-1.7589,-1.7589,-1.7589,-1.7589,-1.7589,-1.7589,-1.7589,-1.7589,-1.7589,-1.7589,-1.7589,-1.7589,-1.7589,-1.7589,-1.7589,-1.677,-1.628,-1.6121,-1.3583,-1.1105,-0.9047,-0.8937,-0.8937,-0.8937,-0.8937,-0.8937,-0.8937,-0.8937,-0.8937,-0.8937,-0.8937,-0.8937,-0.8937,-0.8937,-0.8937,-0.8937,-0.8937,-0.8937,-0.8937,-0.8937,-0.8937,-0.9044,-1.0945,-1.2566,-1.348,-1.531,-1.6823,-1.7529,-1.7589,-1.7589,-1.7595,-1.7695,-1.7756,-1.7809,-1.8029,-1.8417,-1.8818,-1.9178,-1.9383,-1.9424,-1.9424,-1.9424,-1.9424,-1.9424,-1.9424,-1.9424,-1.9424,-2.0629,-2.3634,-2.4669,-2.5892,-2.8738,-3.0283,-3.0684,-3.0859,-3.0889,-3.0898,-3.1269,-3.0918,-3.0898,-3.0898,-3.0898,-3.0898,-3.0898,-3.0898,-3.0898,-2.9962,-2.8532,-2.8935,-2.8795,-2.8164,-2.7057,-2.615,-2.5351,-2.3869,-2.2645,-2.1586,-2.1194,-2.0422,-1.9482,-1.9424,-1.9212,-1.8931,-1.8711,-1.8417,-1.8002,-1.7729,-1.7589,-1.7589,-1.7589,-1.7589,-1.7589,-1.7589,-1.7589,-1.7589,-1.7589,-1.7589,-1.7589,-1.7589,-1.7589,-1.7589,-1.7589,-1.7589,-1.7589,-1.7589,-1.7589,-1.7589,-1.7589,-1.7589,-1.7582,-1.6552,-1.5689,-1.4722,-1.2507,-1.0457,-0.8992,-0.8937,-0.8937,-0.8937,-0.8937,-0.8937,-0.8937,-0.8937,-0.8937,-0.8937,-0.8937,-0.8937,-0.8937,-0.8937,-0.8937,-0.8937,-0.8937,-0.8937,-0.8937,-0.8937,-0.8937,-0.9154,-1.1378,-1.3701,-1.4561,-1.6287,-1.7589,-1.7589,-1.7589,-1.7589,-1.7589,-1.7589,-1.7595,-1.7602,-1.7849,-1.8135,-1.8568,-1.8991,-1.9192,-1.9279,-1.9279,-1.9424,-1.9424,-1.9424,-1.9424,-1.9424,-1.9424,-2.0657,-2.3568,-2.491,-2.6328,-2.9181,-3.0644,-3.0869,-3.0889,-3.0898,-3.0898,-3.1279,-3.0918,-3.0898,-3.0898,-3.0898,-3.0898,-3.0898,-3.0898,-3.0898,-2.9962,-2.8372,-2.8191,-2.6999,-2.5202,-2.5608,-2.5287,-2.383,-2.2363,-2.1643,-2.1365,-2.0206,-1.9482,-1.9424,-1.9424,-1.9219,-1.8978,-1.8898,-1.8584,-1.8002,-1.7749,-1.7589,-1.7589,-1.7589,-1.7589,-1.7589,-1.7589,-1.7589,-1.7589,-1.7589,-1.7589,-1.7589,-1.7589,-1.7589,-1.7589,-1.7589,-1.7589,-1.7589,-1.7589,-1.7589,-1.7589,-1.7589,-1.7589,-1.7582,-1.7417,-1.6068,-1.3534,-1.1914,-1.0402,-0.9154,-0.8937,-0.8937,-0.8937,-0.8937,-0.8937,-0.8937,-0.8937,-0.8937,-0.8937,-0.8937,-0.8937,-0.8937,-0.8937,-0.8937,-0.8937,-0.8937,-0.8937,-0.8937,-0.8937,-0.8937,-0.9316,-1.1487,-1.4186,-1.6823,-1.7477,-1.7589,-1.7589,-1.7589,-1.7589,-1.7589,-1.7589,-1.7589,-1.7635,-1.7809,-1.8002,-1.8082,-1.8657,-1.8945,-1.9045,-1.9219,-1.9424,-1.9424,-1.9424,-1.9424,-1.9424,-1.9424,-2.0679,-2.3411,-2.5562,-2.7334,-2.9303,-3.0539,-3.0889,-3.0898,-3.0898,-3.0898,-3.1025,-3.0898,-3.0898,-3.0898,-3.0898,-3.0898,-3.0898,-3.0898,-3.0898,-2.9353,-2.727,-2.7324,-2.5436,-2.1955,-2.2845,-2.2919,-2.2258,-2.0866,-2.0206,-2.0148,-1.9649,-1.9424,-1.9424,-1.9424,-1.9325,-1.9199,-1.9005,-1.8568,-1.8042,-1.7876,-1.7776,-1.7609,-1.7589,-1.7589,-1.7589,-1.7589,-1.7589,-1.7589,-1.7589,-1.7589,-1.7589,-1.7589,-1.7589,-1.7589,-1.7589,-1.7589,-1.7589,-1.7589,-1.7589,-1.7589,-1.7589,-1.7589,-1.7424,-1.5855,-1.3534,-1.0836,-0.997,-0.9482,-0.8992,-0.8937,-0.8937,-0.8937,-0.8937,-0.8937,-0.8937,-0.8937,-0.8937,-0.8937,-0.8937,-0.8937,-0.8937,-0.8937,-0.8937,-0.8937,-0.8937,-0.8937,-0.8937,-0.8937,-0.8937,-0.9316,-1.1487,-1.4395,-1.6717,-1.7589,-1.7589,-1.7589,-1.7589,-1.7589,-1.7589,-1.7589,-1.7589,-1.7595,-1.7675,-1.7749,-1.7749,-1.8444,-1.8938,-1.9011,-1.9138,-1.9357,-1.9424,-1.9424,-1.9424,-1.9424,-1.9424,-2.0873,-2.3662,-2.7222,-2.8802,-2.9773,-3.0898,-3.0898,-3.0898,-3.0898,-3.0898,-3.0898,-3.0898,-3.0898,-3.0898,-3.0898,-3.0898,-3.0898,-3.083,-3.0333,-2.8554,-2.6344,-2.5999,-2.3799,-2.069,-2.0803,-2.0946,-2.0823,-1.9873,-1.9424,-1.9424,-1.9424,-1.9424,-1.9424,-1.9424,-1.9424,-1.9319,-1.9065,-1.8608,-1.8175,-1.8035,-1.7883,-1.7595,-1.7589,-1.7589,-1.7589,-1.7589,-1.7589,-1.7589,-1.7589,-1.7589,-1.7589,-1.7589,-1.7589,-1.7589,-1.7589,-1.7589,-1.7589,-1.7589,-1.7589,-1.7589,-1.7589,-1.7364,-1.6711,-1.4609,-1.2186,-0.997,-0.9158,-0.8937,-0.8937,-0.8937,-0.8937,-0.8937,-0.8937,-0.8937,-0.8937,-0.8937,-0.8937,-0.8937,-0.8937,-0.8937,-0.8937,-0.8937,-0.8937,-0.8937,-0.8937,-0.8937,-0.8937,-0.8937,-0.9427,-1.0511,-1.2077,-1.4502,-1.6876,-1.7477,-1.7589,-1.7589,-1.7589,-1.7589,-1.7589,-1.7589,-1.7589,-1.7589,-1.7595,-1.7615,-1.7675,-1.817,-1.8637,-1.8758,-1.9118,-1.9336,-1.9424,-1.9424,-1.9424,-1.9424,-2.0222,-2.1714,-2.434,-2.8135,-2.991,-3.0694,-3.0898,-3.0898,-3.0898,-3.0898,-3.0898,-3.0898,-3.0898,-3.0898,-3.0898,-3.0898,-3.0898,-3.0898,-3.046,-2.9157,-2.7563,-2.5623,-2.409,-2.2321,-2.0449,-2.0059,-1.9744,-1.9566,-1.9475,-1.9424,-1.9424,-1.9424,-1.9424,-1.9424,-1.9424,-1.9424,-1.941,-1.9065,-1.8764,-1.845,-1.8122,-1.7836,-1.7635,-1.7589,-1.7589,-1.7589,-1.7589,-1.7589,-1.7589,-1.7589,-1.7589,-1.7589,-1.7589,-1.7589,-1.7589,-1.7589,-1.7589,-1.7589,-1.7589,-1.7589,-1.7589,-1.7589,-1.6876,-1.547,-1.3911,-1.2507,-1.0836,-0.9644,-0.8992,-0.8937,-0.8937,-0.8937,-0.8937,-0.8937,-0.8937,-0.8937,-0.8937,-0.8937,-0.8937,-0.8937,-0.8937,-0.8937,-0.8937,-0.8937,-0.8937,-0.8937,-0.8937,-0.8937,-0.8992,-1.0025,-1.2354,-1.3378,-1.4561,-1.6717,-1.7589,-1.7589,-1.7589,-1.7589,-1.7589,-1.7589,-1.7589,-1.7589,-1.7589,-1.7589,-1.7589,-1.7695,-1.7849,-1.817,-1.849,-1.8971,-1.935,-1.9403,-1.9424,-1.9424,-1.9488,-2.078,-2.2271,-2.4366,-2.7812,-2.9882,-3.0713,-3.0791,-3.0898,-3.0898,-3.0898,-3.0898,-3.0898,-3.0898,-3.0898,-3.0898,-3.0898,-3.0898,-3.0274,-2.9226,-2.8605,-2.6841,-2.4539,-2.3459,-2.2001,-2.0449,-1.9927,-1.9646,-1.9437,-1.9424,-1.9424,-1.9424,-1.9424,-1.9424,-1.9424,-1.9424,-1.9424,-1.9377,-1.9065,-1.8771,-1.8477,-1.8135,-1.7889,-1.7635,-1.7589,-1.7589,-1.7589,-1.7589,-1.7589,-1.7589,-1.7589,-1.7589,-1.7589,-1.7589,-1.7589,-1.7589,-1.7589,-1.7589,-1.7589,-1.7589,-1.7589,-1.7589,-1.7589,-1.6499,-1.4234,-1.2561,-1.1105,-0.9805,-0.921,-0.8937,-0.8937,-0.8937,-0.8937,-0.8937,-0.8937,-0.8937,-0.8937,-0.8937,-0.8937,-0.8937,-0.8937,-0.8937,-0.8937,-0.8937,-0.8937,-0.8937,-0.8937,-0.8937,-0.9047,-0.975,-1.1219,-1.294,-1.4126,-1.5577,-1.7041,-1.7589,-1.7589,-1.7589,-1.7589,-1.7589,-1.7589,-1.7589,-1.7589,-1.7589,-1.7589,-1.7655,-1.7802,-1.7976,-1.823,-1.8504,-1.8898,-1.9252,-1.9377,-1.9424,-1.9424,-2.0037,-2.1277,-2.3025,-2.5135,-2.7369,-2.9623,-3.0684,-3.085,-3.0898,-3.0898,-3.0898,-3.0898,-3.0898,-3.0898,-3.0898,-3.0898,-3.0898,-3.0898,-2.9952,-2.8417,-2.7751,-2.5993,-2.3823,-2.2693,-2.1565,-2.0375,-2.0034,-1.974,-1.9457,-1.9424,-1.9424,-1.9424,-1.9424,-1.9424,-1.9424,-1.9424,-1.9299,-1.9185,-1.9011,-1.8718,-1.833,-1.8082,-1.7889,-1.7629,-1.7589,-1.7589,-1.7589,-1.7589,-1.7589,-1.7589,-1.7589,-1.7589,-1.7589,-1.7589,-1.7589,-1.7589,-1.7589,-1.7589,-1.7589,-1.7589,-1.7589,-1.7477,-1.7094,-1.5636,-1.3426,-1.1914,-1.0457,-0.9261,-0.8937,-0.8937,-0.8937,-0.8937,-0.8937,-0.8937,-0.8937,-0.8937,-0.8937,-0.8937,-0.8937,-0.8937,-0.8937,-0.8937,-0.8937,-0.8937,-0.8937,-0.8937,-0.8937,-0.8937,-0.9103,-1.0186,-1.1647,-1.3102,-1.4502,-1.5962,-1.7153,-1.7589,-1.7589,-1.7589,-1.7589,-1.7589,-1.7589,-1.7589,-1.7629,-1.7695,-1.7789,-1.7869,-1.7956,-1.8136,-1.8337,-1.8577,-1.8844,-1.9125,-1.9292,-1.9403,-1.9424,-2.0347,-2.1465,-2.3375,-2.5474,-2.807,-3.0322,-3.0586,-3.0889,-3.0898,-3.0898,-3.0898,-3.0898,-3.0898,-3.0898,-3.0898,-3.0898,-3.0889,-3.0704,-2.9589,-2.811,-2.6539,-2.4893,-2.3256,-2.1881,-2.0886,-2.0327,-2.0194,-1.9893,-1.9504,-1.9424,-1.9424,-1.9424,-1.9424,-1.9424,-1.9424,-1.9424,-1.9252,-1.9052,-1.8918,-1.8555,-1.8135,-1.7975,-1.7876,-1.7609,-1.7589,-1.7589,-1.7589,-1.7589,-1.7589,-1.7589,-1.7589,-1.7589,-1.7589,-1.7589,-1.7589,-1.7589,-1.7589,-1.7589,-1.7589,-1.7589,-1.7589,-1.7424,-1.6168,-1.4663,-1.3318,-1.1864,-1.0186,-0.8992,-0.8937,-0.8937,-0.8937,-0.8937,-0.8937,-0.8937,-0.8937,-0.8937,-0.8937,-0.8937,-0.8937,-0.8937,-0.8937,-0.8937,-0.8937,-0.8937,-0.8992,-0.9044,-0.9261,-0.9316,-0.9372,-1.0672,-1.2295,-1.348,-1.4716,-1.6068,-1.7424,-1.7589,-1.7589,-1.7589,-1.7589,-1.7589,-1.7609,-1.7649,-1.7769,-1.7869,-1.7983,-1.811,-1.8203,-1.825,-1.8457,-1.8684,-1.8891,-1.9072,-1.9279,-1.9397,-1.9424,-2.0347,-2.2007,-2.3874,-2.5771,-2.8251,-3.0102,-3.0723,-3.0879,-3.0889,-3.0898,-3.0898,-3.0898,-3.0898,-3.0898,-3.0898,-3.0898,-3.0704,-2.9658,-2.8179,-2.653,-2.4962,-2.3442,-2.1908,-2.1292,-2.0782,-2.0213,-2.0167,-1.992,-1.9479,-1.9424,-1.9424,-1.9424,-1.9424,-1.9424,-1.9424,-1.9424,-1.9383,-1.9185,-1.8831,-1.8524,-1.8343,-1.7949,-1.7702,-1.7595,-1.7589,-1.7589,-1.7589,-1.7589,-1.7589,-1.7589,-1.7589,-1.7589,-1.7589,-1.7589,-1.7589,-1.7589,-1.7589,-1.7589,-1.7589,-1.7589,-1.7589,-1.7424,-1.515,-1.375,-1.3156,-1.0945,-0.9372,-0.9047,-0.8937,-0.8937,-0.8937,-0.8937,-0.8937,-0.8937,-0.8937,-0.8937,-0.8937,-0.8937,-0.8937,-0.8937,-0.8937,-0.8937,-0.8937,-0.8937,-0.9316,-1.0347,-1.0511,-1.0891,-1.1919,-1.3372,-1.4449,-1.4936,-1.6068,-1.7041,-1.7417,-1.7589,-1.7589,-1.7589,-1.7589,-1.7589,-1.7609,-1.7736,-1.7862,-1.8043,-1.8176,-1.8337,-1.8437,-1.8457,-1.8577,-1.8798,-1.8958,-1.9058,-1.9239,-1.9417,-1.9424,-1.9734,-2.2479,-2.4598,-2.6045,-2.7906,-2.9218,-3.085,-3.0879,-3.0898,-3.0898,-3.0898,-3.0898,-3.0898,-3.0898,-3.0898,-3.0898,-3.0704,-2.9098,-2.7503,-2.5855,-2.4294,-2.2654,-2.1355,-2.1102,-2.0782,-2.02,-2.0167,-1.9907,-1.9477,-1.9424,-1.9424,-1.9424,-1.9424,-1.9424,-1.9424,-1.9424,-1.9305,-1.9158,-1.8844,-1.8624,-1.843,-1.8003,-1.7802,-1.7756,-1.7642,-1.7589,-1.7589,-1.7589,-1.7589,-1.7589,-1.7589,-1.7589,-1.7589,-1.7589,-1.7589,-1.7589,-1.7589,-1.7589,-1.7589,-1.7589,-1.7589,-1.7041,-1.499,-1.3318,-1.3053,-1.0511,-0.8937,-0.8937,-0.8937,-0.8937,-0.8937,-0.8937,-0.8937,-0.8937,-0.8937,-0.8937,-0.8937,-0.8937,-0.8937,-0.8937,-0.9427,-0.9427,-0.8992,-0.8937,-0.9915,-1.1592,-1.2023,-1.2403,-1.327,-1.4449,-1.5257,-1.5743,-1.6605,-1.7589,-1.7589,-1.7589,-1.7589,-1.7589,-1.7589,-1.7589,-1.7609,-1.7789,-1.7996,-1.819,-1.8397,-1.8571,-1.8791,-1.8871,-1.8851,-1.9038,-1.9078,-1.9165,-1.9239,-1.9424,-1.9444,-2.0143,-2.2902,-2.5009,-2.6114,-2.7642,-2.9736,-3.0859,-3.0879,-3.0898,-3.0898,-3.0898,-3.0898,-3.0898,-3.0898,-3.0898,-3.0898,-3.0645,-2.8911,-2.7263,-2.5863,-2.3985,-2.2404,-2.1355,-2.1102,-2.0775,-2.018,-2.0227,-1.992,-1.943,-1.9424,-1.9424,-1.9424,-1.9424,-1.9424,-1.9424,-1.9424,-1.9259,-1.9072,-1.8965,-1.8778,-1.8537,-1.8217,-1.7989,-1.7882,-1.7722,-1.7602,-1.7589,-1.7589,-1.7589,-1.7589,-1.7589,-1.7589,-1.7589,-1.7589,-1.7589,-1.7589,-1.7589,-1.7589,-1.7589,-1.7589,-1.7589,-1.7589,-1.4824,-1.348,-1.2945,-1.0511,-0.9099,-0.8937,-0.8937,-0.8937,-0.8937,-0.8937,-0.8937,-0.8937,-0.8937,-0.8937,-0.8937,-0.8937,-0.8937,-0.8937,-1.0241,-1.0241,-0.9588,-0.921,-1.0457,-1.2457,-1.3264,-1.3534,-1.3965,-1.4883,-1.5636,-1.5683,-1.6882,-1.7477,-1.7589,-1.7589,-1.7589,-1.7589,-1.7589,-1.7589,-1.7682,-1.7883,-1.8123,-1.8377,-1.8597,-1.8824,-1.9065,-1.9363,-1.9323,-1.9357,-1.9272,-1.9357,-1.9357,-1.9437,-1.9406,-2.0503,-2.2968,-2.4539,-2.5444,-2.7369,-3.0025,-3.0859,-3.0889,-3.0898,-3.0898,-3.0898,-3.0898,-3.0898,-3.0898,-3.0898,-3.0898,-3.0401,-2.782,-2.6349,-2.5794,-2.2882,-2.1538,-2.1166,-2.1102,-2.0762,-2.0234,-2.0187,-1.9913,-1.947,-1.9424,-1.9424,-1.9424,-1.9424,-1.9424,-1.9424,-1.9424,-1.939,-1.9212,-1.9018,-1.8898,-1.8731,-1.8357,-1.7995,-1.7969,-1.7769,-1.7589,-1.7589,-1.7589,-1.7589,-1.7589,-1.7589,-1.7589,-1.7589,-1.7589,-1.7589,-1.7589,-1.7589,-1.7589,-1.7589,-1.7589,-1.7589,-1.6935,-1.5043,-1.348,-1.2783,-1.0515,-0.9047,-0.8937,-0.8937,-0.8937,-0.8937,-0.8937,-0.8937,-0.8937,-0.8937,-0.8937,-0.8937,-0.8937,-0.8937,-0.9154,-1.0186,-1.1,-1.0891,-1.0672,-1.1592,-1.3102,-1.4288,-1.531,-1.6387,-1.6882,-1.6988,-1.7094,-1.7312,-1.7589,-1.7589,-1.7589,-1.7589,-1.7589,-1.7589,-1.7589,-1.7736,-1.7929,-1.8136,-1.8357,-1.8671,-1.8871,-1.9078,-1.9363,-1.9424,-1.9424,-1.9424,-1.9424,-1.9424,-1.9504,-1.9499,-2.0847,-2.2882,-2.4135,-2.5319,-2.8065,-3.0869,-3.0889,-3.0898,-3.0898,-3.0898,-3.0898,-3.0898,-3.0898,-3.0898,-3.0898,-3.0898,-3.0392,-2.7452,-2.5976,-2.5375,-2.2507,-2.1102,-2.1069,-2.0975,-2.0641,-2.0227,-2.008,-1.9773,-1.9517,-1.9424,-1.9424,-1.9424,-1.9424,-1.9424,-1.9424,-1.9424,-1.9424,-1.9339,-1.9219,-1.9138,-1.8978,-1.8577,-1.8277,-1.8203,-1.7802,-1.7602,-1.7589,-1.7589,-1.7589,-1.7589,-1.7589,-1.7589,-1.7589,-1.7589,-1.7589,-1.7589,-1.7589,-1.7589,-1.7589,-1.7589,-1.7589,-1.7041,-1.547,-1.3911,-1.2891,-1.0566,-0.9099,-0.8937,-0.8937,-0.8937,-0.8937,-0.8937,-0.8937,-0.8937,-0.8937,-0.8937,-0.8937,-0.8937,-0.8937,-0.9372,-1.0731,-1.2354,-1.294,-1.2349,-1.2945,-1.3965,-1.4931,-1.6015,-1.7206,-1.7589,-1.7589,-1.7589,-1.7582,-1.7589,-1.7589,-1.7589,-1.7589,-1.7589,-1.7589,-1.7589,-1.7589,-1.7776,-1.7969,-1.823,-1.8617,-1.8891,-1.9072,-1.9239,-1.9417,-1.9424,-1.9424,-1.9424,-1.9424,-1.9492,-1.9633,-2.1297,-2.2938,-2.4432,-2.5898,-2.8803,-3.083,-3.0898,-3.0898,-3.0898,-3.0898,-3.0898,-3.0898,-3.0898,-3.0898,-3.0898,-3.0898,-3.0401,-2.7443,-2.5976,-2.5558,-2.2514,-2.1102,-2.1049,-2.0802,-2.0535,-2.0227,-1.994,-1.9646,-1.9491,-1.9424,-1.9424,-1.9424,-1.9424,-1.9424,-1.9424,-1.9424,-1.9424,-1.9424,-1.9397,-1.9383,-1.9118,-1.8784,-1.8404,-1.8317,-1.7862,-1.7609,-1.7589,-1.7589,-1.7589,-1.7589,-1.7589,-1.7589,-1.7589,-1.7589,-1.7589,-1.7589,-1.7589,-1.7589,-1.7589,-1.7589,-1.7589,-1.7536,-1.6174,-1.4776,-1.3048,-1.0945,-0.8992,-0.8992,-0.8937,-0.8937,-0.8937,-0.8937,-0.8937,-0.8937,-0.8937,-0.8937,-0.8937,-0.8937,-0.9154,-1.0131,-1.1538,-1.3642,-1.5037,-1.4341,-1.4234,-1.5091,-1.547,-1.6333,-1.7199,-1.7589,-1.7589,-1.7589,-1.7589,-1.7589,-1.7589,-1.7589,-1.7589,-1.7589,-1.7589,-1.7589,-1.7589,-1.7682,-1.7909,-1.8176,-1.8571,-1.8965,-1.9172,-1.9245,-1.941,-1.9424,-1.9424,-1.9437,-1.9457,-1.9566,-1.9963,-2.1206,-2.2786,-2.4553,-2.6523,-2.9053,-3.049,-3.0752,-3.0898,-3.0898,-3.0898,-3.0898,-3.0898,-3.0898,-3.0898,-3.0898,-3.0898,-3.0401,-2.7383,-2.5915,-2.5428,-2.2452,-2.1102,-2.1062,-2.0795,-2.0488,-2.0214,-1.9927,-1.9639,-1.947,-1.9424,-1.9424,-1.9424,-1.9424,-1.9424,-1.9424,-1.9424,-1.9424,-1.9424,-1.9397,-1.9225,-1.8998,-1.8657,-1.8384,-1.8103,-1.7769,-1.7589,-1.7589,-1.7589,-1.7589,-1.7589,-1.7589,-1.7589,-1.7589,-1.7589,-1.7589,-1.7589,-1.7589,-1.7589,-1.7589,-1.7589,-1.7589,-1.7477,-1.6174,-1.477,-1.3318,-1.1592,-1.0241,-0.9154,-0.8937,-0.8937,-0.8937,-0.8937,-0.8937,-0.8937,-0.8937,-0.8937,-0.8937,-0.9099,-0.975,-1.1051,-1.2349,-1.3965,-1.5198,-1.5204,-1.515,-1.5683,-1.644,-1.7206,-1.7529,-1.7589,-1.7589,-1.7589,-1.7589,-1.7589,-1.7589,-1.7589,-1.7589,-1.7589,-1.7589,-1.7589,-1.7589,-1.7736,-1.7902,-1.8189,-1.8557,-1.8945,-1.9285,-1.9312,-1.9424,-1.9424,-1.943,-1.947,-1.9537,-1.9653,-2.036,-2.2157,-2.3794,-2.5585,-2.7612,-2.9554,-3.0363,-3.083,-3.0898,-3.0898,-3.0898,-3.0898,-3.0898,-3.0898,-3.083,-2.9962,-2.9589,-2.9039,-2.6122,-2.4778,-2.4409,-2.2215,-2.1102,-2.0969,-2.0661,-2.0374,-2.014,-1.9753,-1.9492,-1.9464,-1.9424,-1.9424,-1.9424,-1.9424,-1.9424,-1.9424,-1.9424,-1.9424,-1.9377,-1.9219,-1.9085,-1.8905,-1.8631,-1.8317,-1.7989,-1.7736,-1.7589,-1.7589,-1.7589,-1.7589,-1.7589,-1.7589,-1.7589,-1.7589,-1.7589,-1.7589,-1.7589,-1.7589,-1.7589,-1.7589,-1.7589,-1.7589,-1.7477,-1.6929,-1.5417,-1.375,-1.2512,-1.1214,-0.9427,-0.8937,-0.8937,-0.8937,-0.8937,-0.8937,-0.8937,-0.8937,-0.8937,-0.9154,-0.9695,-1.0941,-1.2832,-1.3745,-1.499,-1.6387,-1.644,-1.6552,-1.6658,-1.7206,-1.7529,-1.7589,-1.7589,-1.7589,-1.7589,-1.7589,-1.7589,-1.7589,-1.7589,-1.7589,-1.7589,-1.7589,-1.7589,-1.7589,-1.7716,-1.7849,-1.8202,-1.8564,-1.8951,-1.9279,-1.9403,-1.9424,-1.9424,-1.9444,-1.9484,-1.9606,-1.9806,-2.1675,-2.3841,-2.5431,-2.6304,-2.7973,-2.9688,-3.0323,-3.0898,-3.0898,-3.0898,-3.0898,-3.0898,-3.0898,-3.0898,-3.0772,-2.9098,-2.8417,-2.7871,-2.4962,-2.3628,-2.3263,-2.1853,-2.1062,-2.0949,-2.0494,-2.0214,-2.002,-1.9666,-1.943,-1.9424,-1.9424,-1.9424,-1.9424,-1.9424,-1.9424,-1.9424,-1.9417,-1.9383,-1.9192,-1.9072,-1.8898,-1.8751,-1.8504,-1.8237,-1.7943,-1.7669,-1.7589,-1.7589,-1.7589,-1.7589,-1.7589,-1.7589,-1.7589,-1.7589,-1.7589,-1.7589,-1.7589,-1.7589,-1.7589,-1.7589,-1.7589,-1.7589,-1.7589,-1.7259,-1.628,-1.3911,-1.3318,-1.1919,-0.9537,-0.8937,-0.8937,-0.8992,-0.9427,-0.9588,-0.9588,-0.943,-0.9372,-0.9754,-1.0891,-1.2507,-1.477,-1.5796,-1.6174,-1.7206,-1.7529,-1.7529,-1.7529,-1.7477,-1.7589,-1.7589,-1.7589,-1.7589,-1.7589,-1.7589,-1.7589,-1.7589,-1.7589,-1.7589,-1.7589,-1.7589,-1.7589,-1.7589,-1.7589,-1.7796,-1.821,-1.8584,-1.8971,-1.9232,-1.941,-1.9424,-1.9424,-1.9457,-1.9439,-1.9713,-1.9993,-2.2303,-2.4567,-2.5392,-2.6363,-2.8089,-2.9717,-3.046,-3.0898,-3.0898,-3.0898,-3.0898,-3.0898,-3.0898,-3.0898,-3.0762,-2.9089,-2.8417,-2.7871,-2.4848,-2.3512,-2.3263,-2.179,-2.0955,-2.0748,-2.0394,-2.0094,-1.9806,-1.9533,-1.9437,-1.9424,-1.9424,-1.9424,-1.9424,-1.9424,-1.9424,-1.9424,-1.9424,-1.9245,-1.9092,-1.8965,-1.8771,-1.8577,-1.829,-1.7963,-1.7702,-1.7642,-1.7589,-1.7589,-1.7589,-1.7589,-1.7589,-1.7589,-1.7589,-1.7589,-1.7589,-1.7589,-1.7589,-1.7589,-1.7589,-1.7589,-1.7589,-1.7529,-1.7424,-1.7529,-1.6121,-1.3917,-1.3318,-1.1701,-0.986,-0.8937,-0.8937,-0.9103,-0.9915,-1.0402,-1.0347,-1.0566,-1.0781,-1.1214,-1.2186,-1.375,-1.515,-1.644,-1.7147,-1.7477,-1.7589,-1.7589,-1.7589,-1.7589,-1.7589,-1.7589,-1.7589,-1.7589,-1.7589,-1.7589,-1.7589,-1.7589,-1.7589,-1.7589,-1.7589,-1.7589,-1.7589,-1.7649,-1.7702,-1.7909,-1.837,-1.8718,-1.9092,-1.9239,-1.9403,-1.9424,-1.9424,-1.9459,-1.9636,-2.0367,-2.1089,-2.2564,-2.4452,-2.5414,-2.7056,-2.9229,-3.0518,-3.083,-3.0898,-3.0898,-3.0898,-3.0898,-3.0898,-3.0898,-3.0898,-3.0635,-2.8119,-2.7013,-2.6651,-2.3551,-2.2153,-2.2034,-2.1411,-2.0949,-2.0655,-2.0361,-1.9987,-1.9599,-1.9406,-1.943,-1.9424,-1.9424,-1.9424,-1.9424,-1.9424,-1.9424,-1.9424,-1.9424,-1.9259,-1.9105,-1.8851,-1.8631,-1.841,-1.8176,-1.7889,-1.7622,-1.7589,-1.7589,-1.7589,-1.7589,-1.7589,-1.7589,-1.7589,-1.7589,-1.7589,-1.7589,-1.7589,-1.7589,-1.7589,-1.7589,-1.7589,-1.7589,-1.7087,-1.6658,-1.6333,-1.499,-1.2837,-1.1973,-1.1265,-1.0511,-0.9316,-0.8937,-0.9099,-1.0347,-1.0566,-1.0402,-1.0676,-1.1374,-1.229,-1.3529,-1.4556,-1.5304,-1.6711,-1.747,-1.7589,-1.7589,-1.7589,-1.7589,-1.7589,-1.7589,-1.7589,-1.7589,-1.7589,-1.7589,-1.7589,-1.7589,-1.7589,-1.7589,-1.7589,-1.7589,-1.7595,-1.7602,-1.7782,-1.8003,-1.8283,-1.8671,-1.8965,-1.9245,-1.9363,-1.9424,-1.9424,-1.9464,-1.9613,-2.0081,-2.1365,-2.2423,-2.3623,-2.5308,-2.697,-2.8687,-3.0587,-3.0898,-3.0898,-3.0898,-3.0898,-3.0898,-3.0898,-3.0898,-3.0898,-3.0898,-3.0577,-2.7383,-2.5976,-2.5672,-2.2507,-2.1102,-2.1102,-2.1102,-2.0909,-2.0535,-2.0167,-1.974,-1.9459,-1.943,-1.9424,-1.9424,-1.9424,-1.9424,-1.9424,-1.9424,-1.9424,-1.9424,-1.9424,-1.9377,-1.9252,-1.8744,-1.847,-1.8283,-1.807,-1.7782,-1.7589,-1.7589,-1.7589,-1.7589,-1.7589,-1.7589,-1.7589,-1.7589,-1.7589,-1.7589,-1.7589,-1.7589,-1.7589,-1.7589,-1.7589,-1.7589,-1.7589,-1.6929,-1.644,-1.5689,-1.4449,-1.2403,-1.1592,-1.0945,-1.0351,-0.9644,-0.9372,-0.9537,-1.008,-1.046,-1.0621,-1.0891,-1.2403,-1.3642,-1.4716,-1.5524,-1.5956,-1.6876,-1.7529,-1.7589,-1.7589,-1.7589,-1.7589,-1.7589,-1.7589,-1.7589,-1.7589,-1.7589,-1.7589,-1.7589,-1.7589,-1.7589,-1.7589,-1.7589,-1.7589,-1.7595,-1.7629,-1.7883,-1.8203,-1.8504,-1.8838,-1.9098,-1.9363,-1.9397,-1.9424,-1.9424,-1.9511,-1.9659,-2.0171,-2.1188,-2.2624,-2.3929,-2.5857,-2.7964,-2.9344,-3.0518,-3.0762,-3.0898,-3.0898,-3.0898,-3.0898,-3.0898,-3.0898,-3.0898,-3.0898,-3.0645,-2.7391,-2.5976,-2.5733,-2.2514,-2.1102,-2.1102,-2.1102,-2.0788,-2.0267,-1.9726,-1.9466,-1.9437,-1.9424,-1.9424,-1.9424,-1.9424,-1.9424,-1.9424,-1.9424,-1.9424,-1.9424,-1.939,-1.9245,-1.9011,-1.8657,-1.8357,-1.8049,-1.7929,-1.7709,-1.7589,-1.7589,-1.7589,-1.7589,-1.7589,-1.7589,-1.7589,-1.7589,-1.7589,-1.7589,-1.7589,-1.7589,-1.7589,-1.7589,-1.7589,-1.7589,-1.7589,-1.7094,-1.6658,-1.563,-1.4121,-1.224,-1.1214,-1.0351,-1.0025,-1.008,-0.9805,-0.9805,-1.0406,-1.1647,-1.2512,-1.3156,-1.3642,-1.4722,-1.397,-1.4829,-1.6717,-1.7199,-1.7529,-1.7589,-1.7589,-1.7589,-1.7589,-1.7589,-1.7589,-1.7589,-1.7589,-1.7589,-1.7589,-1.7589,-1.7589,-1.7589,-1.7589,-1.7589,-1.7589,-1.7736,-1.7769,-1.8056,-1.8364,-1.8631,-1.8918,-1.9178,-1.9332,-1.941,-1.9424,-1.9424,-1.9558,-1.97,-2.0106,-2.0703,-2.2268,-2.4077,-2.6044,-2.7991,-2.9226,-3.0333,-3.0704,-3.0898,-3.0898,-3.0898,-3.0898,-3.0898,-3.0898,-3.0898,-3.0274,-2.9166,-2.6893,-2.5976,-2.5733,-2.2514,-2.1102,-2.1102,-2.1096,-2.0775,-2.0194,-1.9653,-1.9424,-1.9424,-1.9424,-1.9424,-1.9424,-1.9424,-1.9424,-1.9424,-1.9424,-1.9424,-1.9424,-1.941,-1.9299,-1.9105,-1.8751,-1.8464,-1.8323,-1.8009,-1.7749,-1.7649,-1.7642,-1.7589,-1.7589,-1.7589,-1.7589,-1.7589,-1.7589,-1.7589,-1.7589,-1.7589,-1.7589,-1.7589,-1.7589,-1.7589,-1.7589,-1.7589,-1.6558,-1.537,-1.4502,-1.2994,-1.1374,-1.0347,-1.0025,-0.9864,-1.008,-0.986,-1.0241,-1.0781,-1.1755,-1.3102,-1.4019,-1.4829,-1.5583,-1.553,-1.5636,-1.6552,-1.7147,-1.7589,-1.7589,-1.7589,-1.7589,-1.7589,-1.7589,-1.7589,-1.7602,-1.7615,-1.7649,-1.7682,-1.7629,-1.7589,-1.7589,-1.7589,-1.7589,-1.7602,-1.7769,-1.7976,-1.827,-1.8524,-1.8791,-1.9005,-1.9259,-1.9345,-1.9424,-1.9424,-1.9424,-1.9559,-1.9753,-2.0253,-2.0834,-2.2346,-2.4209,-2.6158,-2.7931,-2.9157,-3.0089,-3.0704,-3.0898,-3.0898,-3.0898,-3.0898,-3.0898,-3.0898,-3.0898,-2.9903,-2.8239,-2.6651,-2.5741,-2.4947,-2.2271,-2.1102,-2.1102,-2.1102,-2.0782,-2.0207,-1.9713,-1.9497,-1.945,-1.9424,-1.9424,-1.9424,-1.9424,-1.9424,-1.9424,-1.9424,-1.9424,-1.9424,-1.9424,-1.9403,-1.9303,-1.8931,-1.8624,-1.8611,-1.8323,-1.8116,-1.7956,-1.7889,-1.7816,-1.7589,-1.7589,-1.7589,-1.7589,-1.7589,-1.7589,-1.7589,-1.7589,-1.7589,-1.7589,-1.7589,-1.7199,-1.6935,-1.6611,-1.563,-1.4126,-1.2837,-1.1647,-1.0241,-0.932,-0.9533,-0.9699,-0.9754,-0.9478,-1.0241,-1.1487,-1.2132,-1.3264,-1.4556,-1.5364,-1.6174,-1.6717,-1.6174,-1.6499,-1.7153,-1.7589,-1.7589,-1.7589,-1.7589,-1.7589,-1.7589,-1.7595,-1.7649,-1.7675,-1.7736,-1.7782,-1.7749,-1.7762,-1.7769,-1.7796,-1.7816,-1.7809,-1.7876,-1.8102,-1.8551,-1.8778,-1.8958,-1.9152,-1.9383,-1.9424,-1.9424,-1.9437,-1.9484,-1.9673,-1.9946,-2.0583,-2.1385,-2.2766,-2.4163,-2.6045,-2.7623,-2.9039,-3.002,-3.0772,-3.0898,-3.0898,-3.0898,-3.0898,-3.0898,-3.0898,-3.0898,-2.9893,-2.8298,-2.6651,-2.5085,-2.3566,-2.1853,-2.1102,-2.1102,-2.1069,-2.0775,-2.0267,-1.9907,-1.9626,-1.9504,-1.9464,-1.9424,-1.9424,-1.9424,-1.9424,-1.9424,-1.9424,-1.9424,-1.9424,-1.9424,-1.9424,-1.9292,-1.9032,-1.8838,-1.8871,-1.8611,-1.8457,-1.8384,-1.8277,-1.811,-1.7649,-1.7589,-1.7589,-1.7589,-1.7589,-1.7589,-1.7589,-1.7589,-1.7589,-1.7589,-1.7589,-1.7147,-1.6552,-1.6333,-1.531,-1.3642,-1.2403,-1.1433,-1.046,-0.9372,-0.9099,-0.9099,-0.9047,-0.8992,-0.9261,-1.1701,-1.2945,-1.3534,-1.477,-1.6121,-1.6829,-1.6717,-1.634,-1.6935,-1.7477,-1.7589,-1.7589,-1.7589,-1.7589,-1.7589,-1.7589,-1.7655,-1.7716,-1.7796,-1.7862,-1.8003,-1.7975,-1.7982,-1.7982,-1.7995,-1.8015,-1.8015,-1.7995,-1.8262,-1.8751,-1.8998,-1.9145,-1.9225,-1.9424,-1.9424,-1.943,-1.9457,-1.9499,-1.9753,-2.0094,-2.0632,-2.1428,-2.2603,-2.4155,-2.596,-2.7503,-2.8979,-2.9962,-3.0898,-3.0898,-3.0898,-3.0898,-3.0898,-3.0898,-3.0898,-3.0898,-2.9285,-2.6772,-2.6227,-2.4401,-2.2034,-2.1362,-2.1102,-2.1069,-2.0909,-2.0708,-2.0454,-2.0034,-1.9773,-1.9626,-1.9497,-1.9424,-1.9424,-1.9424,-1.9424,-1.9424,-1.9424,-1.9424,-1.9424,-1.9424,-1.9424,-1.9285,-1.9092,-1.8945,-1.8911,-1.8804,-1.8651,-1.8551,-1.8524,-1.827,-1.7929,-1.7736,-1.7589,-1.7589,-1.7589,-1.7589,-1.7589,-1.7595,-1.7589,-1.7589,-1.7529,-1.7147,-1.6333,-1.6121,-1.515,-1.3324,-1.2077,-1.1378,-1.0186,-0.8937,-0.8937,-0.8937,-0.8937,-0.9427,-1.0402,-1.2186,-1.321,-1.3965,-1.5364,-1.6882,-1.7424,-1.7259,-1.7259,-1.7424,-1.7589,-1.7589,-1.7589,-1.7589,-1.7589,-1.7589,-1.7622,-1.7749,-1.7789,-1.7889,-1.7989,-1.8243,-1.8343,-1.8337,-1.8337,-1.837,-1.839,-1.8517,-1.8551,-1.8515,-1.8911,-1.9132,-1.9357,-1.9363,-1.9424,-1.9424,-1.9444,-1.9486,-1.9653,-1.9907,-2.0214,-2.0651,-2.15,-2.2799,-2.4324,-2.6219,-2.7572,-2.8852,-3.003,-3.0898,-3.0898,-3.0898,-3.0898,-3.0898,-3.0898,-3.0898,-3.0898,-2.8989,-2.6098,-2.5976,-2.4093,-2.1348,-2.1102,-2.1102,-2.1069,-2.0902,-2.0728,-2.0461,-2.01,-1.9806,-1.9646,-1.9531,-1.9424,-1.9424,-1.9424,-1.9424,-1.9424,-1.9424,-1.9424,-1.9424,-1.9424,-1.9424,-1.9305,-1.9212,-1.9092,-1.9112,-1.9085,-1.8991,-1.8858,-1.8691,-1.8571,-1.8317,-1.8123,-1.7949,-1.7936,-1.7903,-1.7782,-1.7736,-1.7622,-1.7318,-1.71,-1.6988,-1.6876,-1.5908,-1.5316,-1.4883,-1.2832,-1.1592,-1.1,-0.9427,-0.8937,-0.8937,-0.8937,-0.8992,-0.9427,-1.0296,-1.2295,-1.3102,-1.3426,-1.6068,-1.7424,-1.7589,-1.7477,-1.7477,-1.7589,-1.7589,-1.7595,-1.7602,-1.7602,-1.7649,-1.7655,-1.7789,-1.7923,-1.8075,-1.8182,-1.8335,-1.8577,-1.8644,-1.8644,-1.8644,-1.8691,-1.8724,-1.8898,-1.9058,-1.9065,-1.9045,-1.9219,-1.9424,-1.9424,-1.9464,-1.9497,-1.9519,-1.9659,-1.984,-2.0067,-2.0672,-2.1307,-2.2381,-2.3724,-2.5098,-2.6349,-2.7751,-2.9039,-3.0216,-3.0898,-3.0898,-3.0898,-3.0898,-3.0898,-3.0898,-3.0928,-3.0957,-2.8979,-2.6219,-2.5976,-2.4093,-2.1411,-2.1102,-2.1102,-2.1102,-2.1096,-2.0788,-2.0207,-2.0261,-1.9947,-1.9551,-1.9444,-1.9424,-1.9424,-1.9424,-1.9424,-1.9424,-1.9424,-1.9424,-1.9424,-1.9424,-1.9424,-1.9424,-1.9377,-1.9265,-1.9403,-1.9292,-1.9279,-1.9245,-1.9025,-1.8918,-1.8778,-1.8651,-1.8464,-1.831,-1.8156,-1.7975,-1.7943,-1.7822,-1.7217,-1.6953,-1.6927,-1.5945,-1.4798,-1.375,-1.2457,-1.0891,-0.9537,-0.921,-0.894,-0.8937,-0.8937,-0.8937,-0.8937,-0.9103,-0.9809,-1.2077,-1.3264,-1.3857,-1.5849,-1.7094,-1.7589,-1.7589,-1.7589,-1.7589,-1.7589,-1.7609,-1.7629,-1.7709,-1.7782,-1.7889,-1.8029,-1.823,-1.847,-1.8644,-1.8804,-1.8911,-1.8931,-1.8938,-1.8938,-1.8978,-1.8985,-1.9112,-1.9232,-1.9239,-1.9232,-1.9252,-1.9424,-1.9424,-1.9477,-1.9519,-1.9639,-1.9806,-2.0074,-2.0314,-2.1868,-2.2715,-2.3786,-2.4739,-2.6271,-2.7443,-2.811,-2.9216,-3.045,-3.0889,-3.0898,-3.0898,-3.0898,-3.0898,-3.0898,-3.1045,-3.1123,-2.8979,-2.6098,-2.5976,-2.4101,-2.1348,-2.1102,-2.1102,-2.1102,-2.1102,-2.0875,-2.0535,-2.0321,-1.9993,-1.9679,-1.9472,-1.9444,-1.9424,-1.9424,-1.9424,-1.9424,-1.9424,-1.9424,-1.9424,-1.9424,-1.9424,-1.9424,-1.9424,-1.9424,-1.9417,-1.9424,-1.9424,-1.9377,-1.9245,-1.9219,-1.9185,-1.9145,-1.8858,-1.8611,-1.8437,-1.829,-1.8149,-1.813,-1.7432,-1.7209,-1.7362,-1.6287,-1.5512,-1.4454,-1.3372,-1.2132,-1.0891,-1.0186,-0.8937,-0.8937,-0.8937,-0.8937,-0.8992,-0.932,-1.0351,-1.1269,-1.2512,-1.4126,-1.5689,-1.6499,-1.7206,-1.7589,-1.7589,-1.7589,-1.7602,-1.7622,-1.7756,-1.7869,-1.8036,-1.823,-1.8357,-1.851,-1.8738,-1.8878,-1.9038,-1.9138,-1.9158,-1.9158,-1.9172,-1.9185,-1.9205,-1.937,-1.9424,-1.9424,-1.9424,-1.9424,-1.9424,-1.9424,-1.9477,-1.9512,-1.9773,-1.996,-2.0274,-2.0808,-2.2288,-2.3495,-2.4024,-2.5192,-2.7194,-2.8477,-2.9157,-2.9835,-3.0645,-3.0889,-3.0898,-3.0898,-3.0898,-3.0898,-3.0928,-3.1045,-3.1279,-2.8989,-2.6158,-2.5976,-2.4101,-2.1411,-2.1102,-2.1056,-2.0975,-2.1056,-2.0895,-2.0501,-2.0253,-2.0007,-1.9619,-1.9497,-1.9424,-1.9424,-1.9424,-1.9424,-1.9424,-1.9424,-1.9424,-1.9424,-1.9424,-1.9424,-1.9424,-1.9424,-1.9424,-1.9424,-1.9424,-1.9424,-1.9424,-1.9424,-1.9424,-1.9397,-1.935,-1.9172,-1.8931,-1.8731,-1.8564,-1.8497,-1.8388,-1.7858,-1.7365,-1.7611,-1.7373,-1.623,-1.506,-1.4024,-1.2512,-1.1051,-0.9915,-0.8937,-0.8937,-0.8937,-0.8937,-0.8937,-0.9265,-1.0025,-1.1483,-1.2886,-1.4341,-1.5577,-1.6717,-1.7206,-1.7589,-1.7589,-1.7589,-1.7615,-1.7675,-1.7869,-1.8022,-1.8343,-1.8604,-1.8704,-1.8798,-1.8938,-1.9072,-1.9199,-1.937,-1.9403,-1.9397,-1.941,-1.9424,-1.9424,-1.9424,-1.9424,-1.9424,-1.9424,-1.9424,-1.9424,-1.9424,-1.9484,-1.9506,-1.98,-2.012,-2.0414,-2.106,-2.2446,-2.3507,-2.4178,-2.5879,-2.8059,-2.9344,-3.0206,-3.0645,-3.0889,-3.0889,-3.0898,-3.0898,-3.0898,-3.0898,-3.0908,-3.0976,-3.1279,-2.8979,-2.5976,-2.568,-2.373,-2.1285,-2.1102,-2.0955,-2.0722,-2.0942,-2.0742,-2.0267,-2.0127,-1.988,-1.9551,-1.943,-1.9424,-1.9424,-1.9424,-1.9424,-1.9424,-1.9424,-1.9424,-1.9424,-1.9424,-1.9424,-1.9424,-1.9424,-1.9424,-1.9424,-1.9424,-1.9424,-1.9424,-1.9424,-1.9424,-1.9424,-1.9424,-1.935,-1.9219,-1.9045,-1.8898,-1.8818,-1.8483,-1.79,-1.6856,-1.7024,-1.707,-1.4857,-1.357,-1.2906,-1.1546,-1.0186,-0.9427,-0.9316,-0.9316,-0.9261,-0.9265,-0.9427,-0.9537,-1.0296,-1.1755,-1.2994,-1.4449,-1.5849,-1.6876,-1.7312,-1.7582,-1.7589,-1.7589,-1.7609,-1.7829,-1.8043,-1.821,-1.8444,-1.8771,-1.8985,-1.9065,-1.9158,-1.9245,-1.9279,-1.9424,-1.9424,-1.9424,-1.9424,-1.9424,-1.9424,-1.9424,-1.9504,-1.9511,-1.9537,-1.9537,-1.9504,-1.9497,-1.9419,-1.9553,-1.9953,-2.0267,-2.0541,-2.1348,-2.2553,-2.3799,-2.4655,-2.6668,-2.9048,-2.9903,-3.0645,-3.0772,-3.0898,-3.0898,-3.0898,-3.0898,-3.0898,-3.0898,-3.0928,-3.0996,-3.1377,-2.8979,-2.5794,-2.3303,-2.1783,-2.1166,-2.1102,-2.0942,-2.0688,-2.0742,-2.0454,-1.9987,-1.9887,-1.9726,-1.947,-1.9424,-1.9424,-1.9424,-1.9424,-1.9424,-1.9424,-1.9424,-1.9424,-1.9424,-1.9424,-1.9424,-1.9424,-1.9424,-1.9424,-1.9424,-1.9424,-1.9424,-1.9424,-1.9424,-1.9424,-1.9424,-1.9424,-1.9424,-1.9417,-1.9285,-1.9112,-1.8965,-1.9045,-1.8717,-1.8177,-1.8249,-1.8068,-1.6448,-1.5614,-1.5101,-1.4169,-1.1814,-1.0836,-1.0562,-1.0562,-1.0566,-1.0566,-1.0511,-1.0402,-1.1109,-1.2349,-1.3642,-1.4556,-1.5743,-1.6552,-1.7147,-1.7424,-1.7589,-1.7589,-1.7702,-1.7969,-1.821,-1.8364,-1.8564,-1.8925,-1.9239,-1.9299,-1.9366,-1.9424,-1.9424,-1.9424,-1.9424,-1.9424,-1.9424,-1.9424,-1.9424,-1.9524,-1.9639,-1.972,-1.978,-1.9786,-1.9673,-1.9619,-1.9439,-1.9593,-2.0047,-2.0368,-2.0621,-2.1216,-2.2291,-2.3613,-2.5077,-2.7022,-2.892,-3.0147,-3.0889,-3.0898,-3.0898,-3.0898,-3.0898,-3.0898,-3.0898,-3.0898,-3.1025,-3.1123,-3.1562,-2.8979,-2.5733,-2.2452,-2.1102,-2.1102,-2.1102,-2.0949,-2.0688,-2.0541,-2.0227,-1.9846,-1.978,-1.9639,-1.9457,-1.9424,-1.9424,-1.9424,-1.9424,-1.9424,-1.9424,-1.9424,-1.9424,-1.9424,-1.9424,-1.9424,-1.9424,-1.9424,-1.9424,-1.9424,-1.9424,-1.9424,-1.9424,-1.9424,-1.9424,-1.9424,-1.9424,-1.9424,-1.9424,-1.9424,-1.9323,-1.9105,-1.9212,-1.9152,-1.8871,-1.8738,-1.8624,-1.7926,-1.6924,-1.6096,-1.5172,-1.3227,-1.2304,-1.1864,-1.1378,-1.1483,-1.1647,-1.1592,-1.1374,-1.224,-1.3372,-1.4556,-1.531,-1.6227,-1.7206,-1.7312,-1.7589,-1.7589,-1.7609,-1.7802,-1.8056,-1.8364,-1.8557,-1.8838,-1.9172,-1.9285,-1.9403,-1.9424,-1.9424,-1.9424,-1.9424,-1.9424,-1.9424,-1.9424,-1.9424,-1.9437,-1.9484,-1.9619,-1.9786,-1.9887,-2.0087,-1.9973,-1.99,-1.978,-1.9887,-2.0334,-2.0548,-2.0668,-2.1375,-2.2027,-2.3551,-2.5069,-2.6961,-2.8673,-3.0089,-3.0898,-3.0898,-3.0898,-3.0898,-3.0898,-3.0898,-3.0898,-3.0898,-3.1064,-3.1299,-3.1728,-2.8979,-2.5741,-2.2459,-2.1102,-2.1102,-2.1102,-2.0942,-2.0661,-2.0368,-2.008,-1.98,-1.9746,-1.9579,-1.9446,-1.9424,-1.9424,-1.9424,-1.9424,-1.9424,-1.9424,-1.9424,-1.9424,-1.9424,-1.9424,-1.9424,-1.9424,-1.9424,-1.9424,-1.9424,-1.9424,-1.9424,-1.9424,-1.9424,-1.9424,-1.9424,-1.9424,-1.9424,-1.9424,-1.9424,-1.9424,-1.9417,-1.9424,-1.9199,-1.9058,-1.8958,-1.8824,-1.8177,-1.752,-1.6599,-1.593,-1.5038,-1.4207,-1.3437,-1.2832,-1.294,-1.3102,-1.2778,-1.2886,-1.3588,-1.4883,-1.547,-1.6068,-1.7094,-1.7536,-1.7589,-1.7642,-1.7642,-1.7756,-1.7949,-1.8163,-1.8464,-1.8758,-1.9052,-1.9285,-1.939,-1.9424,-1.9424,-1.9424,-1.9424,-1.9424,-1.9424,-1.9424,-1.9424,-1.9424,-1.945,-1.9497,-1.9559,-1.97,-1.9887,-2.0174,-2.0287,-2.0314,-2.0314,-2.0488,-2.0661,-2.0695,-2.0735,-2.1047,-2.1783,-2.3358,-2.5061,-2.7022,-2.8792,-3.0274,-3.0898,-3.0898,-3.0898,-3.0898,-3.0898,-3.0937,-3.1064,-3.1143,-3.1279,-3.1533,-3.1894,-2.8989,-2.5741,-2.2452,-2.1102,-2.1102,-2.1102,-2.0942,-2.0661,-2.0368,-2.0067,-1.9833,-1.9559,-1.9399,-1.943,-1.9424,-1.9424,-1.9424,-1.9424,-1.9424,-1.9424,-1.9424,-1.9424,-1.9424,-1.9424,-1.9424,-1.9424,-1.9424,-1.9424,-1.9424,-1.9424,-1.9424,-1.9424,-1.9424,-1.9424,-1.9424,-1.9424,-1.9424,-1.9424,-1.9424,-1.9424,-1.9424,-1.9424,-1.9417,-1.9292,-1.9279,-1.9092,-1.8811,-1.8612,-1.8315,-1.79,-1.7261,-1.6132,-1.5219,-1.4502,-1.4502,-1.4609,-1.4288,-1.4449,-1.5204,-1.6174,-1.6658,-1.6876,-1.7589,-1.7609,-1.7682,-1.7842,-1.7883,-1.7969,-1.8082,-1.827,-1.8531,-1.8804,-1.9085,-1.9265,-1.9424,-1.9424,-1.9424,-1.9424,-1.9424,-1.9424,-1.9424,-1.9424,-1.9424,-1.9424,-1.9424,-1.9517,-1.9626,-1.9766,-1.9853,-2.0187,-2.0541,-2.0615,-2.0681,-2.0722,-2.0728,-2.0742,-2.0808,-2.0982,-2.1594,-2.3365,-2.5192,-2.7082,-2.8792,-3.0401,-3.0898,-3.0908,-3.0898,-3.0976,-3.1025,-3.1103,-3.1318,-3.1455,-3.1572,-3.1816,-3.2217]},{"header":{"parameterUnit":"m.s-1","parameterCategory":1,"la1":31.0,"la2":29.5877,"lo1":-88.7671,"lo2":-86.6584,"dy":0.0162,"dx":0.0185,"nx":115,"ny":88,"refTime":"2026-05-19T00:00:00:Z","depth":0,"parameterNumber":3,"parameterNumberName":"V-component_of_WINDS"},"data":[0.0,0.0,0.0,0.0,0.0,0.0,0.0,0.0,0.0,0.0,0.0,0.0,0.0,0.0,0.0,0.0,0.0,0.0,0.0,0.0,0.0,0.0,0.0,0.0,0.0,0.0,0.0,0.0,0.0,0.0,0.0,0.0,0.0,0.0,0.0,0.0,0.0,0.0,0.0,0.0,0.0,0.0,0.0,0.0,0.0,0.0,0.0,0.0,0.0,0.0,0.0,0.0,0.0,0.0,0.0,0.0,0.0,0.0,0.0,0.0,0.0,0.0,0.0,0.0,0.0,0.0,0.0,0.0,0.0,0.0,0.0,0.0,0.0,0.0,0.0,0.0,0.0,0.0,0.0,0.0,0.0,0.0,0.0,0.0,0.0,0.0,0.0,0.0,0.0,0.0,0.0,0.0,0.0,0.0,0.0,0.0,0.0,0.0,0.0,0.0,0.0,0.0,0.0,0.0,0.0,0.0,0.0,0.0,0.0,0.0,0.0,0.0,0.0,0.0,0.0,0.0,0.0,0.0,0.0,0.0,0.0,0.0,0.0,0.0,0.0,0.0,0.0,0.0,0.0,0.0,0.0,0.0,0.0,0.0,0.0,0.0,0.0,0.0,0.0,0.0,0.0,0.0,0.0,0.0,0.0,0.0,0.0,0.0,0.0,0.0,0.0,0.0,0.0,0.0,0.0,0.0,0.0,0.0,0.0,0.0,0.0,0.0,0.0,0.0,0.0,0.0,0.0,0.0,0.0,0.0,0.0,0.0,0.0,0.0,0.0,0.0,0.0,0.0,0.0,0.0,0.0,0.0,0.0,0.0,0.0,0.0,0.0,0.0,0.0,0.0,0.0,0.0,0.0,0.0,0.0,0.0,0.0,0.0,0.0,0.0,0.0,0.0,0.0,0.0,0.0,0.0,0.0,0.0,0.0,0.0,0.0,0.0,0.0,0.0,0.0,0.0,0.0,0.0,0.0,0.0,0.0,0.0,0.0,0.0,0.0,0.0,0.0,0.0,0.0,0.0,0.0,0.0,0.0,0.0,0.0,0.0,0.0,0.0,0.0,0.0,0.0,0.0,0.0,0.0,0.0,0.0,0.0,0.0,0.0,0.0,0.0,0.0,0.0,0.0,0.0,0.0,0.0,0.0,0.0,0.0,0.0,0.0,0.0,0.0,0.0,0.0,0.0,0.0,0.0,0.0,0.0,0.0,0.0,0.0,0.0,0.0,0.0,0.0,0.0,0.0,0.0,0.0,0.0,0.0,0.0,0.0,0.0,0.0,0.0,0.0,0.0,0.0,0.0,0.0,0.0,0.0,0.0,0.0,0.0,0.0,0.0,0.0,0.0,0.0,0.0,0.0,0.0,0.0,0.0,0.0,0.0,0.0,0.0,0.0,0.0,0.0,0.0,0.0,0.0,0.0,0.0,0.0,0.0,0.0,0.0,0.0,0.0,0.0,0.0,0.0,0.0,0.0,0.0,0.0,0.0,0.0,0.0,0.0,0.0,0.0,0.0,0.0,0.0,0.0,0.0,0.0,0.0,0.0,0.0,0.0,0.0,0.0,0.0,0.0,0.0,0.0,0.0,0.0,0.0,0.0,0.0,0.0,0.0,0.0,0.0,0.0,0.0,0.0,0.0,0.0,0.0,0.0,0.0,0.0,0.0,0.0,0.0,0.0,0.0,0.0,0.0,0.0,0.0,0.0,0.0,0.0,0.0,0.0,0.0,0.0,0.0,0.0,0.0,0.0,0.0,0.0,0.0,0.0,0.0,0.0,0.0,0.0,0.0,0.0,0.0,0.0,0.0,0.0,0.0,0.0,0.0,0.0,0.0,0.0,0.0,0.0,0.0,0.0,0.0,0.0,0.0,0.0,0.0,0.0,0.0,0.0,0.0,0.0,0.0,0.0,0.0,0.0,0.0,0.0,0.0,0.0,0.0,0.0,0.0,0.0,0.0,0.0,0.0,0.0,0.0,0.0,0.0,0.0,0.0,0.0,0.0,0.0,0.0,0.0,0.0,0.0,0.0,0.0,0.0,0.0,0.0,0.0,0.0,0.0,0.0,0.0,0.0,0.0,0.0,0.0,0.0,0.0,0.0,0.0,0.0,0.0,0.0,0.0,0.0,0.0,0.0,0.0,0.0,0.0,0.0,0.0,0.0,0.0,0.0,0.0,0.0,0.0,0.0,0.0,0.0,0.0,0.0,0.0,0.0,0.0,0.0,0.0,0.0,0.0,0.0,0.0,0.0,0.0,0.0,0.0,0.0,0.0,0.0,0.0,0.0,0.0,0.0,0.0,0.0,0.0,0.0,0.0,0.0,0.0,0.0,0.0,0.0,0.0,0.0,0.0,0.0,0.0,0.0,0.0,0.0,0.0,0.0,0.0,0.0,0.0,0.0,0.0,0.0,0.0,0.0,0.0,0.0,0.0,0.0,0.0,0.0,0.0,0.0,0.0,0.0,0.0,0.0,0.0,0.0,0.0,0.0,0.0,0.0,0.0,0.0,0.0,0.0,0.0,0.0,0.0,0.0,0.0,0.0,0.0,0.0,0.0,0.0,0.0,0.0,0.0,0.0,0.0,0.0,0.0,0.0,0.0,0.0,0.0,0.0,0.0,0.0,0.0,0.0,0.0,0.0,0.0,0.0,0.0,0.0,0.0,0.0,0.0,0.0,0.0,0.0,0.0,0.0,0.0,0.0,0.0,0.0,0.0,0.0,0.0,0.0,0.0,0.0,0.0,0.0,0.0,0.0,0.0,0.0,0.0,0.0,0.0,0.0,0.0,0.0,0.0,0.0,0.0,0.0,0.0,0.0,0.0,0.0,0.0,0.0,0.0,0.0,0.0,0.0,0.0,0.0,0.0,0.0,0.0,0.0,0.0,0.0,0.0,0.0,0.0,0.0,0.0,0.0,0.0,0.0,0.0,0.0,0.0,0.0,0.0,0.0,0.0,0.0,0.0,0.0,0.0,0.0,0.0,0.0,0.0,0.0,0.0,0.0,0.0,0.0,0.0,0.0,0.0,0.0,0.0,0.0,0.0,0.0,0.0,0.0,0.0,0.0,0.0,0.0,0.0,0.0,0.0,0.0,0.0,0.0,0.0,0.0,0.0,0.0,0.0,0.0,0.0,0.0,0.0,0.0,0.0,0.0,0.0,0.0,0.0,0.0,0.0,0.0,0.0,0.0,0.0,0.0,0.0,0.0,0.0,0.0,0.0,0.0,0.0,0.0,0.0,0.0,0.0,0.0,0.0,0.0,0.0,0.0,0.0,0.0,0.0,0.0,0.0,0.0,0.0,0.0,0.0,0.0,0.0,0.0,0.0,0.0,0.0,0.0,0.0,0.0,0.0,0.0,0.0,0.0,0.0,0.0,0.0,0.0,0.0,0.0,0.0,0.0,0.0,0.0,0.0,0.0,0.0,0.0,0.0,0.0,0.0,0.0,0.0,0.0,0.0,0.0,0.0,0.0,0.0,0.0,0.0,0.0,0.0,0.0,0.0,0.0,0.0,0.0,0.0,0.0,0.0,0.0,0.0,0.0,0.0,0.0,0.0,0.0,0.0,0.0,0.0,0.0,0.0,0.0,0.0,0.0,0.0,0.0,0.0,0.0,0.0,0.0,0.0,0.0,0.0,0.0,0.0,0.0,0.0,0.0,0.0,0.0,0.0,0.0,0.0,0.0,0.0,0.0,0.0,0.0,0.0,0.0,0.0,0.0,0.0,0.0,0.0,0.0,0.0,0.0,0.0,0.0,0.0,0.0,0.0,0.0,0.0,0.0,0.0,0.0,0.0,0.0,0.0,0.0,0.0,0.0,0.0,0.0,0.0,0.0,0.0,0.0,0.0,0.0,0.0,0.0,0.0,0.0,0.0,0.0,0.0,0.0,0.0,0.0,0.0,0.0,0.0,0.0,0.0,0.0,0.0,0.0,0.0,0.0,0.0,0.0,0.0,0.0,0.0,0.0,0.0,0.0,0.0,0.0,0.0,0.0,0.0,0.0,0.0,0.0,0.0,0.0,0.0,0.0,0.0,0.0,0.0,0.0,0.0,0.0,0.0,0.0,0.0,0.0,0.0,0.0,0.0,0.0,0.0,0.0,0.0,0.0,0.0,0.0,0.0,0.0,0.0,0.0,0.0,0.0,0.0,0.0,0.0,0.0,0.0,0.0,0.0,0.0,0.0,0.0,0.0,0.0,0.0,0.0,0.0,0.0,0.0,0.0,0.0,0.0,0.0,0.0,0.0,0.0,0.0,0.0,0.0,0.0,0.0,0.0,0.0,1.9786,0.0,0.0,0.0,0.0,0.0,0.0,0.0,0.0,0.0,0.0,0.0,0.0,0.0,0.0,0.0,0.0,0.0,0.0,0.0,0.0,0.0,0.0,0.0,0.0,0.0,0.0,0.0,0.0,0.0,0.0,0.0,0.0,0.0,0.0,0.0,0.0,0.0,0.0,0.0,0.0,0.0,0.0,0.0,0.0,0.0,0.0,0.0,0.0,0.0,0.0,0.0,0.0,0.0,0.0,0.0,0.0,0.0,0.0,0.0,0.0,0.0,0.0,0.0,0.0,0.0,0.0,0.0,0.0,0.0,0.0,0.0,0.0,0.0,0.0,0.0,0.0,0.0,0.0,0.0,0.0,0.0,0.0,0.0,0.0,0.0,0.0,0.0,0.0,0.0,0.0,0.0,0.0,0.0,0.0,0.0,0.0,0.0,0.0,0.0,0.0,0.0,0.0,0.0,0.0,0.0,0.0,0.0,0.0,0.0,0.0,1.9798,1.9798,1.9798,1.9798,1.9798,0.0,0.0,0.0,0.0,0.0,0.0,0.0,0.0,0.0,0.0,0.0,0.0,0.0,0.0,0.0,0.0,0.0,0.0,0.0,0.0,0.0,0.0,0.0,0.0,0.0,0.0,0.0,0.0,0.0,0.0,0.0,0.0,0.0,0.0,0.0,0.0,0.0,0.0,0.0,0.0,0.0,0.0,0.0,0.0,0.0,0.0,0.0,0.0,0.0,0.0,0.0,0.0,0.0,0.0,0.0,0.0,0.0,0.0,0.0,0.0,0.0,0.0,0.0,0.0,0.0,0.0,0.0,0.0,0.0,0.0,0.0,0.0,0.0,0.0,0.0,0.0,0.0,0.0,0.0,0.0,0.0,0.0,0.0,0.0,0.0,0.0,0.0,0.0,0.0,0.0,0.0,0.0,0.0,0.0,0.0,0.0,0.0,0.0,0.0,0.0,0.0,0.0,0.0,0.0,0.0,0.0,0.0,0.0,0.0,0.0,0.0,0.0,1.9999,1.9999,2.0025,0.0,0.0,0.0,0.0,0.0,0.0,0.0,0.0,0.0,0.0,0.0,0.0,0.0,0.0,0.0,0.0,0.0,0.0,0.0,0.0,0.0,0.0,0.0,0.0,0.0,0.0,0.0,0.0,0.0,0.0,0.0,0.0,0.0,0.0,0.0,0.0,0.0,0.0,0.0,0.0,0.0,0.0,0.0,0.0,0.0,0.0,0.0,0.0,0.0,0.0,0.0,0.0,0.0,0.0,0.0,0.0,0.0,0.0,0.0,0.0,0.0,0.0,0.0,0.0,0.0,0.0,0.0,0.0,0.0,0.0,0.0,0.0,0.0,0.0,0.0,0.0,0.0,0.0,0.0,0.0,0.0,0.0,0.0,0.0,0.0,0.0,0.0,0.0,0.0,0.0,0.0,0.0,0.0,0.0,0.0,0.0,0.0,0.0,0.0,0.0,0.0,0.0,0.0,0.0,0.0,0.0,0.0,0.0,0.0,0.0,2.0062,2.0591,2.0616,0.0,2.0643,0.0,0.0,0.0,0.0,0.0,0.0,0.0,0.0,0.0,0.0,0.0,0.0,0.0,0.0,0.0,0.0,0.0,0.0,0.0,0.0,0.0,0.0,0.0,0.0,0.0,0.0,0.0,0.0,0.0,0.0,0.0,0.0,0.0,0.0,0.0,0.0,0.0,0.0,0.0,0.0,0.0,0.0,0.0,0.0,0.0,0.0,0.0,0.0,0.0,0.0,0.0,0.0,0.0,0.0,0.0,0.0,0.0,0.0,0.0,0.0,0.0,0.0,0.0,0.0,0.0,0.0,0.0,0.0,0.0,0.0,0.0,0.0,0.0,0.0,0.0,0.0,0.0,0.0,0.0,0.0,0.0,0.0,0.0,0.0,0.0,0.0,0.0,0.0,0.0,0.0,0.0,0.0,0.0,0.0,0.0,0.0,0.0,0.0,0.0,0.0,0.0,0.0,0.0,0.0,0.0,0.0,0.0,0.0,0.0,0.0,2.0453,2.0679,2.1039,2.103,0.0,0.0,0.0,0.0,0.0,0.0,0.0,0.0,0.0,0.0,0.0,0.0,0.0,0.0,0.0,0.0,0.0,0.0,0.0,0.0,0.0,0.0,0.0,0.0,0.0,0.0,0.0,0.0,0.0,0.0,0.0,0.0,0.0,0.0,0.0,0.0,0.0,0.0,0.0,0.0,0.0,0.0,0.0,0.0,0.0,0.0,0.0,0.0,0.0,0.0,0.0,0.0,0.0,0.0,0.0,0.0,0.0,0.0,0.0,0.0,0.0,0.0,0.0,0.0,0.0,0.0,0.0,0.0,0.0,0.0,0.0,0.0,0.0,0.0,0.0,0.0,0.0,0.0,0.0,0.0,0.0,0.0,0.0,0.0,0.0,0.0,0.0,0.0,0.0,0.0,0.0,0.0,0.0,0.0,0.0,0.0,0.0,0.0,0.0,0.0,0.0,0.0,0.0,0.0,0.0,0.0,0.0,0.0,0.0,0.0,2.0859,2.1169,2.1496,2.1917,2.1765,2.0909,0.0,0.0,0.0,0.0,0.0,0.0,0.0,0.0,0.0,0.0,0.0,0.0,0.0,0.0,0.0,0.0,0.0,0.0,0.0,0.0,0.0,0.0,0.0,0.0,0.0,0.0,0.0,0.0,0.0,0.0,0.0,0.0,0.0,0.0,0.0,0.0,0.0,0.0,0.0,0.0,0.0,0.0,0.0,0.0,0.0,0.0,0.0,0.0,0.0,0.0,0.0,0.0,0.0,0.0,0.0,0.0,0.0,0.0,0.0,0.0,0.0,0.0,0.0,0.0,0.0,0.0,0.0,0.0,0.0,0.0,0.0,0.0,0.0,0.0,0.0,0.0,0.0,0.0,0.0,0.0,0.0,0.0,0.0,0.0,0.0,0.0,0.0,0.0,0.0,0.0,0.0,0.0,0.0,0.0,0.0,0.0,0.0,0.0,0.0,0.0,0.0,0.0,0.0,0.0,0.0,0.0,0.0,0.0,0.0,2.1969,2.2293,2.3379,2.347,2.2906,0.0,0.0,0.0,0.0,0.0,0.0,0.0,0.0,0.0,0.0,0.0,0.0,0.0,0.0,0.0,0.0,0.0,0.0,0.0,0.0,0.0,0.0,0.0,0.0,0.0,0.0,0.0,0.0,0.0,0.0,0.0,0.0,0.0,0.0,0.0,0.0,0.0,0.0,0.0,0.0,0.0,0.0,0.0,0.0,0.0,0.0,0.0,0.0,0.0,0.0,0.0,0.0,0.0,0.0,0.0,0.0,0.0,0.0,0.0,0.0,0.0,0.0,0.0,0.0,0.0,0.0,0.0,0.0,0.0,0.0,0.0,0.0,0.0,0.0,0.0,0.0,0.0,0.0,0.0,0.0,0.0,0.0,0.0,0.0,0.0,0.0,0.0,0.0,0.0,0.0,0.0,0.0,0.0,0.0,0.0,0.0,0.0,0.0,0.0,0.0,0.0,0.0,0.0,0.0,0.0,0.0,0.0,0.0,0.0,2.0836,2.1368,2.2246,2.3407,2.3098,2.2663,0.0,0.0,0.0,0.0,0.0,0.0,0.0,0.0,0.0,0.0,0.0,0.0,0.0,0.0,0.0,0.0,0.0,0.0,0.0,0.0,0.0,0.0,0.0,0.0,0.0,0.0,0.0,0.0,0.0,0.0,0.0,0.0,0.0,0.0,0.0,0.0,0.0,0.0,0.0,0.0,0.0,0.0,0.0,0.0,0.0,0.0,0.0,0.0,0.0,0.0,0.0,0.0,0.0,0.0,0.0,0.0,0.0,0.0,0.0,0.0,0.0,0.0,0.0,0.0,0.0,0.0,0.0,0.0,0.0,0.0,0.0,0.0,0.0,0.0,0.0,0.0,0.0,0.0,0.0,0.0,0.0,0.0,0.0,0.0,0.0,0.0,0.0,0.0,0.0,0.0,0.0,0.0,0.0,0.0,0.0,0.0,0.0,0.0,0.0,0.0,0.0,0.0,0.0,0.0,0.0,0.0,0.0,0.0,0.0,2.1094,0.0,2.3379,0.0,2.3376,2.2881,0.0,0.0,0.0,0.0,0.0,0.0,0.0,0.0,0.0,0.0,0.0,0.0,0.0,0.0,0.0,0.0,0.0,0.0,0.0,0.0,0.0,0.0,0.0,0.0,0.0,0.0,0.0,0.0,0.0,0.0,0.0,0.0,0.0,0.0,0.0,0.0,0.0,0.0,0.0,0.0,0.0,0.0,0.0,0.0,0.0,0.0,0.0,0.0,0.0,0.0,0.0,0.0,0.0,0.0,0.0,0.0,0.0,0.0,0.0,0.0,0.0,0.0,0.0,0.0,0.0,0.0,0.0,0.0,0.0,0.0,0.0,0.0,0.0,0.0,0.0,0.0,0.0,0.0,0.0,0.0,0.0,0.0,0.0,0.0,0.0,0.0,0.0,0.0,0.0,0.0,0.0,0.0,0.0,0.0,0.0,0.0,0.0,0.0,0.0,0.0,0.0,0.0,0.0,0.0,0.0,0.0,0.0,0.0,2.2999,2.3596,2.5431,2.5732,2.4546,2.4496,2.3656,0.0,0.0,0.0,0.0,0.0,0.0,0.0,0.0,0.0,0.0,0.0,0.0,0.0,0.0,0.0,0.0,0.0,0.0,0.0,0.0,0.0,0.0,0.0,0.0,0.0,0.0,0.0,0.0,0.0,0.0,0.0,0.0,0.0,0.0,0.0,0.0,0.0,0.0,0.0,0.0,0.0,0.0,0.0,0.0,0.0,0.0,0.0,0.0,0.0,0.0,0.0,0.0,0.0,0.0,0.0,0.0,0.0,0.0,0.0,0.0,0.0,0.0,0.0,0.0,0.0,0.0,0.0,0.0,0.0,0.0,0.0,0.0,0.0,0.0,0.0,0.0,0.0,0.0,0.0,0.0,0.0,0.0,0.0,0.0,0.0,0.0,0.0,0.0,0.0,0.0,0.0,0.0,0.0,0.0,0.0,0.0,0.0,0.0,0.0,0.0,0.0,0.0,0.0,0.0,0.0,0.0,0.0,0.0,0.0,2.373,2.4737,2.5271,2.5221,2.4374,2.3849,0.0,0.0,0.0,0.0,0.0,0.0,0.0,0.0,0.0,0.0,0.0,0.0,0.0,0.0,0.0,0.0,0.0,0.0,0.0,0.0,0.0,0.0,0.0,0.0,0.0,0.0,0.0,0.0,0.0,0.0,0.0,0.0,0.0,0.0,0.0,0.0,0.0,0.0,0.0,0.0,0.0,0.0,0.0,0.0,0.0,0.0,0.0,0.0,0.0,0.0,0.0,0.0,0.0,0.0,0.0,0.0,0.0,0.0,0.0,0.0,0.0,0.0,0.0,0.0,0.0,0.0,0.0,0.0,0.0,0.0,0.0,0.0,0.0,0.0,0.0,0.0,0.0,0.0,0.0,0.0,0.0,0.0,0.0,0.0,0.0,0.0,0.0,0.0,0.0,0.0,0.0,0.0,0.0,0.0,0.0,0.0,0.0,0.0,0.0,0.0,0.0,0.0,0.0,0.0,0.0,0.0,0.0,0.0,0.0,2.5189,2.557,2.57,2.5582,2.4545,2.4036,2.4171,0.0,0.0,0.0,0.0,0.0,0.0,0.0,0.0,0.0,0.0,0.0,0.0,0.0,0.0,0.0,0.0,0.0,0.0,0.0,0.0,0.0,0.0,0.0,0.0,0.0,0.0,0.0,0.0,0.0,0.0,0.0,0.0,0.0,0.0,0.0,0.0,0.0,0.0,0.0,0.0,0.0,0.0,0.0,0.0,0.0,0.0,0.0,0.0,0.0,0.0,0.0,0.0,0.0,0.0,0.0,0.0,0.0,0.0,0.0,0.0,0.0,0.0,0.0,0.0,0.0,0.0,0.0,0.0,0.0,0.0,0.0,0.0,0.0,0.0,0.0,0.0,0.0,0.0,0.0,0.0,0.0,0.0,0.0,0.0,0.0,0.0,0.0,0.0,0.0,0.0,0.0,0.0,0.0,0.0,0.0,0.0,0.0,0.0,0.0,0.0,0.0,0.0,0.0,0.0,0.0,0.0,0.0,0.0,2.763,2.769,2.7058,2.5752,2.5023,2.435,0.0,0.0,0.0,0.0,0.0,0.0,0.0,0.0,0.0,0.0,0.0,0.0,0.0,0.0,0.0,0.0,0.0,0.0,0.0,0.0,0.0,0.0,0.0,0.0,0.0,0.0,0.0,0.0,0.0,0.0,0.0,0.0,0.0,0.0,0.0,0.0,0.0,0.0,0.0,0.0,0.0,0.0,0.0,0.0,0.0,0.0,0.0,0.0,0.0,0.0,0.0,0.0,0.0,0.0,0.0,0.0,0.0,0.0,0.0,0.0,0.0,0.0,0.0,0.0,0.0,0.0,0.0,0.0,0.0,0.0,0.0,0.0,0.0,0.0,0.0,0.0,0.0,0.0,0.0,0.0,0.0,0.0,0.0,0.0,0.0,0.0,0.0,0.0,0.0,0.0,0.0,0.0,0.0,0.0,0.0,0.0,0.0,0.0,0.0,0.0,0.0,0.0,0.0,0.0,0.0,0.0,0.0,0.0,0.0,2.8278,2.8828,2.8674,2.778,2.6206,2.5247,0.0,0.0,0.0,0.0,0.0,0.0,0.0,0.0,0.0,0.0,0.0,0.0,0.0,0.0,0.0,0.0,0.0,0.0,0.0,0.0,0.0,0.0,0.0,0.0,0.0,0.0,0.0,0.0,0.0,0.0,0.0,0.0,0.0,0.0,0.0,0.0,0.0,0.0,0.0,0.0,0.0,0.0,0.0,0.0,0.0,0.0,0.0,0.0,0.0,0.0,0.0,0.0,0.0,0.0,0.0,0.0,0.0,0.0,0.0,0.0,0.0,0.0,0.0,0.0,0.0,0.0,0.0,0.0,0.0,0.0,0.0,0.0,0.0,0.0,0.0,0.0,0.0,0.0,0.0,0.0,0.0,0.0,0.0,0.0,0.0,0.0,0.0,0.0,0.0,0.0,0.0,0.0,0.0,0.0,0.0,0.0,0.0,0.0,0.0,0.0,0.0,0.0,0.0,0.0,0.0,0.0,0.0,0.0,2.7809,2.9355,2.952,2.952,2.94,2.7754,2.6467,0.0,0.0,0.0,0.0,0.0,0.0,0.0,0.0,0.0,0.0,0.0,0.0,0.0,0.0,0.0,0.0,0.0,0.0,0.0,0.0,0.0,0.0,0.0,0.0,0.0,0.0,0.0,0.0,0.0,0.0,0.0,0.0,0.0,0.0,0.0,0.0,0.0,0.0,0.0,0.0,0.0,0.0,0.0,0.0,0.0,0.0,0.0,0.0,0.0,0.0,0.0,0.0,0.0,0.0,0.0,0.0,0.0,0.0,0.0,0.0,0.0,0.0,0.0,0.0,0.0,0.0,0.0,0.0,0.0,0.0,0.0,0.0,0.0,0.0,0.0,0.0,0.0,0.0,0.0,0.0,0.0,0.0,0.0,0.0,0.0,0.0,0.0,0.0,0.0,0.0,0.0,0.0,0.0,0.0,0.0,0.0,0.0,0.0,0.0,0.0,0.0,0.0,0.0,0.0,0.0,0.0,0.0,0.0,2.8637,3.0552,3.0058,3.0028,3.0432,2.9205,2.7649,0.0,0.0,0.0,0.0,0.0,0.0,0.0,0.0,0.0,0.0,0.0,0.0,0.0,0.0,0.0,0.0,0.0,0.0,0.0,0.0,0.0,0.0,0.0,0.0,0.0,0.0,0.0,0.0,0.0,0.0,0.0,0.0,0.0,0.0,0.0,0.0,0.0,0.0,0.0,0.0,0.0,0.0,0.0,0.0,0.0,0.0,0.0,0.0,0.0,0.0,0.0,0.0,0.0,0.0,0.0,0.0,0.0,0.0,0.0,0.0,0.0,0.0,0.0,0.0,0.0,0.0,0.0,0.0,0.0,0.0,0.0,0.0,0.0,0.0,0.0,0.0,0.0,0.0,0.0,0.0,0.0,0.0,0.0,0.0,0.0,0.0,0.0,0.0,0.0,0.0,0.0,0.0,0.0,0.0,0.0,0.0,0.0,0.0,0.0,0.0,0.0,0.0,0.0,0.0,0.0,0.0,0.0,0.0,2.934,3.1212,3.1152,3.0911,3.0507,2.8742,2.7615,0.0,0.0,0.0,0.0,0.0,0.0,0.0,0.0,0.0,0.0,0.0,0.0,0.0,0.0,0.0,0.0,0.0,0.0,0.0,0.0,0.0,0.0,0.0,0.0,0.0,0.0,0.0,0.0,0.0,0.0,0.0,0.0,0.0,0.0,0.0,0.0,0.0,0.0,0.0,0.0,0.0,0.0,0.0,0.0,0.0,0.0,0.0,0.0,2.5385,0.0,0.0,0.0,0.0,0.0,0.0,0.0,0.0,0.0,0.0,0.0,0.0,0.0,0.0,0.0,0.0,0.0,0.0,0.0,0.0,0.0,0.0,0.0,0.0,0.0,0.0,0.0,0.0,0.0,0.0,0.0,0.0,0.0,0.0,0.0,0.0,0.0,0.0,0.0,0.0,0.0,0.0,0.0,0.0,0.0,0.0,0.0,0.0,0.0,0.0,0.0,0.0,0.0,0.0,0.0,0.0,0.0,0.0,0.0,3.0163,3.1451,3.1496,3.1331,3.0928,2.9654,2.8393,0.0,0.0,0.0,0.0,0.0,0.0,0.0,0.0,0.0,0.0,0.0,0.0,0.0,0.0,0.0,0.0,0.0,0.0,0.0,0.0,0.0,0.0,0.0,0.0,0.0,0.0,0.0,0.0,0.0,0.0,0.0,0.0,0.0,0.0,0.0,0.0,0.0,0.0,0.0,0.0,0.0,0.0,0.0,0.0,0.0,0.0,0.0,0.0,0.0,0.0,0.0,0.0,0.0,0.0,0.0,0.0,0.0,0.0,0.0,0.0,0.0,0.0,0.0,0.0,0.0,0.0,0.0,0.0,0.0,0.0,0.0,0.0,0.0,0.0,0.0,0.0,0.0,0.0,0.0,0.0,0.0,0.0,0.0,0.0,0.0,0.0,0.0,0.0,0.0,0.0,0.0,0.0,0.0,0.0,0.0,0.0,0.0,0.0,0.0,0.0,0.0,0.0,0.0,0.0,0.0,0.0,0.0,2.9924,3.0791,3.1615,3.1555,3.1496,3.1496,3.0866,2.937,2.7031,0.0,0.0,0.0,0.0,0.0,0.0,0.0,0.0,0.0,0.0,0.0,0.0,0.0,0.0,0.0,0.0,0.0,0.0,0.0,0.0,0.0,0.0,0.0,0.0,0.0,0.0,0.0,0.0,0.0,0.0,0.0,0.0,0.0,0.0,0.0,0.0,0.0,0.0,2.7426,2.7626,0.0,0.0,0.0,0.0,0.0,0.0,0.0,0.0,2.7205,0.0,0.0,0.0,0.0,0.0,0.0,0.0,0.0,0.0,0.0,0.0,0.0,0.0,0.0,0.0,0.0,0.0,0.0,0.0,0.0,0.0,0.0,0.0,0.0,0.0,0.0,0.0,0.0,0.0,0.0,0.0,0.0,0.0,0.0,0.0,0.0,0.0,0.0,0.0,0.0,0.0,0.0,0.0,0.0,0.0,0.0,0.0,0.0,0.0,0.0,0.0,0.0,0.0,0.0,0.0,0.0,3.0972,3.0178,3.0582,3.2258,3.178,3.1496,3.1481,3.0838,2.9804,2.8353,0.0,0.0,0.0,0.0,0.0,0.0,0.0,0.0,0.0,0.0,0.0,0.0,0.0,0.0,0.0,0.0,0.0,0.0,0.0,0.0,0.0,0.0,0.0,0.0,0.0,0.0,0.0,0.0,0.0,0.0,0.0,0.0,0.0,0.0,0.0,0.0,0.0,0.0,0.0,2.9794,3.0052,0.0,0.0,0.0,0.0,0.0,0.0,0.0,0.0,2.6763,0.0,0.0,0.0,0.0,0.0,0.0,0.0,0.0,0.0,0.0,0.0,0.0,0.0,0.0,0.0,0.0,0.0,0.0,0.0,0.0,0.0,0.0,0.0,0.0,0.0,0.0,0.0,0.0,0.0,0.0,0.0,0.0,0.0,0.0,0.0,0.0,0.0,0.0,0.0,0.0,0.0,0.0,0.0,0.0,0.0,0.0,0.0,0.0,0.0,0.0,0.0,0.0,0.0,0.0,0.0,3.0911,3.1405,3.2063,3.2976,3.2706,3.2363,3.2019,3.1361,3.0432,0.0,0.0,0.0,0.0,0.0,0.0,0.0,0.0,0.0,0.0,0.0,0.0,0.0,0.0,0.0,0.0,0.0,0.0,0.0,0.0,0.0,0.0,0.0,0.0,0.0,0.0,0.0,0.0,0.0,0.0,0.0,0.0,0.0,0.0,0.0,0.0,0.0,0.0,0.0,0.0,3.1162,3.1233,3.0717,0.0,0.0,0.0,0.0,0.0,0.0,2.7928,2.7735,0.0,0.0,0.0,0.0,0.0,0.0,0.0,0.0,0.0,0.0,0.0,0.0,0.0,0.0,0.0,0.0,0.0,0.0,0.0,0.0,0.0,0.0,0.0,0.0,0.0,0.0,0.0,0.0,0.0,0.0,0.0,0.0,0.0,0.0,0.0,0.0,0.0,0.0,0.0,0.0,0.0,0.0,0.0,0.0,0.0,0.0,0.0,0.0,0.0,0.0,0.0,0.0,0.0,0.0,0.0,3.0731,3.2422,3.3425,3.3664,3.3559,3.3245,3.2721,3.2034,3.1077,0.0,0.0,0.0,0.0,0.0,0.0,0.0,0.0,0.0,0.0,0.0,0.0,0.0,0.0,0.0,0.0,0.0,0.0,0.0,0.0,0.0,0.0,0.0,0.0,0.0,0.0,0.0,0.0,0.0,0.0,0.0,0.0,0.0,0.0,0.0,0.0,0.0,0.0,0.0,0.0,0.0,3.2573,3.2129,3.2336,0.0,0.0,0.0,0.0,3.0311,2.9907,0.0,0.0,0.0,0.0,0.0,0.0,0.0,0.0,0.0,0.0,0.0,0.0,0.0,0.0,0.0,0.0,0.0,0.0,0.0,0.0,0.0,0.0,0.0,0.0,0.0,0.0,0.0,0.0,0.0,0.0,0.0,0.0,0.0,0.0,0.0,0.0,0.0,0.0,0.0,0.0,0.0,0.0,0.0,0.0,0.0,0.0,0.0,0.0,0.0,0.0,0.0,0.0,0.0,0.0,0.0,0.0,3.1361,3.2183,3.3185,3.4294,3.3814,3.3455,3.338,3.2751,3.1764,0.0,0.0,0.0,0.0,0.0,0.0,0.0,0.0,0.0,0.0,0.0,0.0,0.0,0.0,0.0,0.0,0.0,0.0,0.0,0.0,0.0,0.0,0.0,0.0,0.0,0.0,0.0,0.0,0.0,0.0,0.0,0.0,0.0,0.0,0.0,0.0,0.0,0.0,0.0,0.0,0.0,3.5211,3.3245,3.4171,3.471,0.0,0.0,3.335,3.3326,3.3245,0.0,0.0,0.0,0.0,0.0,0.0,0.0,0.0,0.0,0.0,0.0,0.0,0.0,0.0,0.0,0.0,0.0,0.0,0.0,0.0,0.0,0.0,0.0,0.0,0.0,0.0,0.0,0.0,0.0,0.0,0.0,0.0,0.0,0.0,0.0,0.0,0.0,0.0,0.0,0.0,0.0,0.0,0.0,0.0,0.0,0.0,0.0,0.0,0.0,0.0,0.0,0.0,0.0,0.0,0.0,3.1557,3.2231,3.3933,3.511,3.566,3.4994,3.4442,3.4084,3.3051,3.1719,0.0,0.0,0.0,0.0,0.0,0.0,0.0,0.0,0.0,0.0,0.0,0.0,0.0,0.0,0.0,0.0,0.0,0.0,0.0,0.0,0.0,0.0,0.0,0.0,0.0,0.0,0.0,0.0,0.0,0.0,0.0,0.0,0.0,0.0,0.0,0.0,0.0,0.0,0.0,0.0,0.0,0.0,3.5859,3.669,0.0,0.0,0.0,3.4817,3.5244,0.0,0.0,0.0,0.0,0.0,0.0,0.0,0.0,0.0,0.0,0.0,0.0,0.0,0.0,0.0,0.0,0.0,0.0,0.0,0.0,0.0,0.0,0.0,0.0,0.0,0.0,0.0,0.0,0.0,0.0,0.0,0.0,0.0,0.0,0.0,0.0,0.0,0.0,0.0,0.0,0.0,0.0,0.0,0.0,0.0,0.0,0.0,0.0,0.0,0.0,0.0,0.0,0.0,0.0,0.0,0.0,0.0,3.3242,3.5636,3.6891,3.6863,3.6177,3.546,3.4758,3.344,0.0,0.0,0.0,0.0,0.0,0.0,0.0,0.0,0.0,0.0,0.0,0.0,0.0,0.0,0.0,0.0,0.0,0.0,0.0,0.0,0.0,0.0,0.0,0.0,0.0,0.0,0.0,2.6283,0.0,0.0,0.0,0.0,0.0,0.0,0.0,0.0,0.0,0.0,0.0,0.0,0.0,0.0,3.8366,3.8544,3.9198,3.9602,0.0,0.0,3.7221,3.8008,3.7107,3.5997,0.0,0.0,0.0,0.0,0.0,0.0,0.0,0.0,0.0,0.0,0.0,0.0,0.0,0.0,0.0,0.0,0.0,0.0,0.0,0.0,0.0,0.0,0.0,0.0,0.0,0.0,0.0,0.0,0.0,0.0,0.0,0.0,0.0,0.0,0.0,0.0,0.0,0.0,0.0,0.0,0.0,0.0,0.0,0.0,0.0,0.0,0.0,0.0,0.0,0.0,0.0,0.0,0.0,0.0,3.3179,3.4579,3.6646,3.7714,3.7608,3.6909,3.6181,3.5447,3.4128,3.2482,0.0,0.0,0.0,0.0,0.0,0.0,0.0,0.0,0.0,0.0,0.0,0.0,0.0,0.0,0.0,0.0,0.0,0.0,0.0,0.0,0.0,0.0,0.0,0.0,0.0,0.0,0.0,0.0,0.0,0.0,0.0,0.0,0.0,0.0,0.0,0.0,0.0,0.0,0.0,0.0,0.0,4.0012,4.0779,4.1467,4.235,0.0,4.2557,4.1869,4.254,4.2507,4.1354,3.801,0.0,0.0,0.0,0.0,0.0,0.0,0.0,0.0,0.0,0.0,0.0,0.0,0.0,0.0,0.0,0.0,0.0,0.0,0.0,0.0,0.0,0.0,0.0,0.0,0.0,0.0,0.0,0.0,2.9782,0.0,0.0,0.0,0.0,0.0,0.0,0.0,0.0,0.0,0.0,0.0,0.0,0.0,0.0,0.0,0.0,0.0,0.0,0.0,0.0,0.0,0.0,0.0,0.0,3.3841,3.5446,3.7932,3.9198,3.9153,3.7945,3.6925,3.6196,3.4437,3.2557,0.0,0.0,0.0,0.0,0.0,0.0,0.0,0.0,0.0,0.0,0.0,0.0,0.0,0.0,0.0,0.0,0.0,0.0,0.0,0.0,0.0,0.0,0.0,0.0,0.0,0.0,0.0,0.0,3.0651,3.1079,3.1767,0.0,0.0,0.0,0.0,0.0,0.0,0.0,0.0,0.0,0.0,4.1654,4.2395,4.3548,0.0,0.0,4.4512,4.3759,4.4461,4.304,4.1342,3.996,3.8456,0.0,0.0,0.0,0.0,0.0,0.0,0.0,0.0,0.0,0.0,0.0,0.0,0.0,0.0,0.0,0.0,0.0,0.0,0.0,0.0,0.0,0.0,0.0,0.0,0.0,0.0,0.0,3.0554,0.0,0.0,0.0,0.0,0.0,0.0,0.0,0.0,0.0,0.0,0.0,0.0,0.0,0.0,0.0,0.0,0.0,0.0,0.0,0.0,0.0,0.0,0.0,0.0,3.4987,3.6811,3.9425,4.0652,4.0414,3.9135,3.7852,3.6615,3.4988,3.3169,0.0,0.0,0.0,0.0,0.0,0.0,0.0,0.0,0.0,0.0,0.0,0.0,0.0,0.0,0.0,0.0,0.0,0.0,0.0,0.0,0.0,0.0,0.0,0.0,0.0,0.0,0.0,0.0,3.2429,3.2429,3.2713,0.0,0.0,0.0,0.0,0.0,0.0,0.0,0.0,0.0,0.0,4.3833,4.4601,4.563,4.6504,4.7052,4.5801,4.4973,4.5471,4.3967,4.2443,4.1549,0.0,0.0,0.0,0.0,0.0,0.0,0.0,0.0,0.0,0.0,0.0,0.0,0.0,0.0,0.0,0.0,0.0,0.0,0.0,0.0,0.0,0.0,0.0,0.0,0.0,0.0,0.0,3.0374,0.0,0.0,3.1496,0.0,0.0,0.0,0.0,0.0,0.0,0.0,0.0,0.0,0.0,0.0,0.0,0.0,0.0,0.0,0.0,0.0,0.0,0.0,0.0,0.0,0.0,3.6614,3.8896,4.1059,4.1886,4.1213,4.0435,3.8962,3.6768,3.5933,3.4616,3.2586,0.0,0.0,0.0,0.0,0.0,0.0,0.0,0.0,0.0,0.0,0.0,0.0,0.0,0.0,0.0,0.0,0.0,0.0,0.0,0.0,0.0,0.0,0.0,0.0,0.0,0.0,3.3288,3.275,3.2076,0.0,0.0,0.0,0.0,0.0,0.0,0.0,0.0,0.0,4.2463,4.4931,4.6702,4.7452,4.7702,4.7793,4.7916,4.6684,4.5737,4.5805,4.6232,4.5677,0.0,0.0,0.0,0.0,0.0,0.0,0.0,0.0,0.0,0.0,0.0,0.0,0.0,0.0,0.0,0.0,0.0,0.0,0.0,0.0,0.0,0.0,0.0,0.0,0.0,0.0,0.0,3.5346,3.4722,0.0,0.0,0.0,0.0,0.0,0.0,0.0,0.0,0.0,0.0,0.0,3.736,3.8066,0.0,0.0,0.0,0.0,0.0,0.0,0.0,0.0,0.0,0.0,0.0,0.0,3.6231,3.8937,4.1153,4.2416,4.2624,4.146,4.0238,3.893,3.7285,3.5382,3.3249,0.0,0.0,0.0,0.0,0.0,0.0,0.0,0.0,0.0,0.0,0.0,0.0,0.0,0.0,0.0,0.0,0.0,0.0,0.0,0.0,0.0,0.0,0.0,0.0,0.0,3.3136,0.0,0.0,0.0,0.0,0.0,0.0,0.0,0.0,0.0,0.0,4.007,4.158,4.3518,4.5326,4.6925,4.8229,4.8871,4.9407,0.0,0.0,0.0,0.0,0.0,0.0,0.0,0.0,0.0,0.0,0.0,0.0,0.0,0.0,4.7216,4.1376,3.9876,3.9634,3.9876,0.0,0.0,0.0,0.0,0.0,0.0,0.0,0.0,0.0,0.0,0.0,0.0,0.0,0.0,3.8644,3.8431,3.7903,0.0,0.0,0.0,0.0,0.0,0.0,0.0,0.0,4.0597,4.1265,4.1032,4.1452,4.128,4.0493,3.9529,3.7737,0.0,0.0,0.0,0.0,0.0,0.0,0.0,0.0,3.7297,3.9732,4.1948,4.32,4.3358,4.2456,4.136,4.0144,3.8187,3.6234,3.429,3.2551,3.1383,0.0,0.0,0.0,0.0,0.0,0.0,0.0,0.0,0.0,0.0,0.0,0.0,0.0,0.0,0.0,0.0,0.0,0.0,0.0,0.0,0.0,0.0,0.0,3.3915,0.0,0.0,0.0,0.0,0.0,0.0,0.0,0.0,0.0,4.0706,4.2065,4.3701,4.539,4.6697,4.8007,4.9353,0.0,0.0,0.0,0.0,0.0,0.0,0.0,4.7942,4.8759,4.828,4.7968,4.8495,5.052,5.1791,5.1018,0.0,0.0,4.5936,4.4495,4.4226,4.4461,4.4778,4.5017,4.5143,4.5427,4.5638,0.0,0.0,0.0,0.0,4.1161,0.0,0.0,0.0,4.0782,4.0922,0.0,4.0154,0.0,0.0,0.0,0.0,3.8197,3.9588,0.0,0.0,4.4575,4.5314,4.4666,4.4632,4.4231,4.3494,4.3413,4.2262,4.0079,3.6587,0.0,0.0,0.0,0.0,0.0,0.0,3.974,4.117,4.3379,4.4164,4.3477,4.3409,4.2349,4.0216,3.8638,3.7169,3.5803,3.5626,3.4602,3.2513,3.1664,0.0,0.0,0.0,0.0,0.0,0.0,0.0,0.0,0.0,0.0,0.0,0.0,0.0,0.0,0.0,0.0,0.0,0.0,0.0,0.0,3.4483,0.0,0.0,0.0,0.0,0.0,0.0,0.0,0.0,0.0,4.334,4.2936,4.4257,4.5994,4.7991,0.0,0.0,0.0,0.0,4.9937,5.0126,4.9518,4.9106,4.9106,4.959,4.9785,4.9177,0.0,0.0,5.0528,5.2101,5.2891,5.0723,5.2224,5.3584,5.3451,5.1971,5.1341,5.1927,5.0927,5.0797,5.189,5.0707,5.0126,4.6369,0.0,0.0,0.0,0.0,4.3467,4.4731,4.6651,4.6516,4.6012,4.5239,4.4792,0.0,0.0,0.0,0.0,0.0,0.0,4.3305,4.4739,4.5399,4.5855,4.616,4.6189,4.5771,4.5043,4.4939,4.4294,4.3122,4.1445,3.9023,3.5928,0.0,0.0,0.0,0.0,4.0114,4.123,4.2878,4.391,4.4248,4.3707,4.2584,4.0915,3.9454,3.8455,3.8035,3.7017,3.5893,3.4687,3.3457,0.0,0.0,0.0,0.0,0.0,0.0,0.0,0.0,0.0,0.0,0.0,0.0,0.0,0.0,0.0,0.0,0.0,0.0,0.0,3.4387,3.4213,3.4444,0.0,0.0,0.0,0.0,0.0,0.0,0.0,0.0,0.0,4.5698,4.6265,4.6999,0.0,0.0,4.9881,5.0704,5.1143,5.1594,5.2203,5.2108,0.0,5.1966,5.118,5.0886,5.1821,5.2981,5.3836,5.4009,5.455,5.4787,5.41,5.455,5.5163,5.5607,5.4212,5.306,5.3105,5.2803,5.267,5.3025,5.2397,5.1836,5.009,4.6815,4.5482,4.5565,4.6585,4.6699,4.7873,4.9725,4.954,4.9255,4.89,4.8054,4.6191,4.3614,4.2462,0.0,0.0,0.0,4.5145,4.6583,4.6583,4.6955,4.7631,4.7378,4.6853,4.6155,4.5996,4.5563,4.4852,4.4254,4.2579,3.9864,0.0,3.881,3.9098,4.0456,4.1619,4.2458,4.3396,4.4113,4.4581,4.3826,4.2844,4.166,4.0476,3.9597,3.9005,3.8166,3.7313,3.6529,3.5076,3.3744,0.0,0.0,0.0,0.0,0.0,0.0,0.0,0.0,0.0,0.0,0.0,3.1949,3.0381,0.0,0.0,0.0,3.4198,3.5332,3.5812,3.5794,0.0,0.0,0.0,0.0,0.0,0.0,0.0,4.491,4.5601,4.6242,4.7203,4.7482,4.7993,4.915,4.9738,5.0472,5.161,0.0,5.2289,5.3096,5.3185,5.3185,5.3185,5.2399,5.2215,5.3463,5.4051,5.4509,5.5005,5.5376,5.5486,5.5225,5.5372,5.5849,5.6657,5.5686,5.4921,5.5235,5.5289,5.5289,5.5289,5.4463,5.3719,5.3112,5.2232,5.0202,4.9695,5.0253,5.027,5.071,5.1336,5.0659,5.1099,5.2131,5.0168,4.9171,4.8815,4.6109,0.0,4.5872,4.594,4.6718,4.7973,4.8003,4.8342,4.8951,4.8294,4.7627,4.6971,4.6835,4.643,4.5786,4.5605,4.5444,4.5204,4.3417,4.2724,4.3152,4.3355,4.3774,4.4383,4.4514,4.4598,4.4581,4.3826,4.3091,4.2366,4.1602,4.0578,3.9312,3.9122,3.8759,3.8062,3.666,3.552,3.4697,0.0,0.0,0.0,0.0,0.0,0.0,0.0,0.0,0.0,0.0,0.0,0.0,0.0,0.0,0.0,3.647,0.0,3.7592,3.8564,0.0,0.0,0.0,4.1903,4.209,4.4355,4.5936,4.6068,0.0,0.0,4.7795,4.8161,4.8987,5.0508,5.0765,5.1353,5.2894,5.2509,5.2362,5.3115,5.3185,5.3185,5.3185,5.3112,5.3298,5.4014,5.4308,5.4271,5.4344,5.4821,5.5023,5.4436,5.4913,5.5629,5.6455,5.6387,5.6895,5.7542,5.7757,5.7807,5.7692,5.6567,5.5508,5.389,5.3162,5.2655,5.2181,5.1775,5.1775,5.2232,5.2926,5.2773,5.2553,5.2249,5.1758,5.0591,4.8934,4.7682,4.7225,4.7382,4.797,4.8409,4.8731,4.8748,4.8832,4.8984,4.8832,4.8622,4.839,4.826,4.8094,4.7849,4.7663,4.7574,4.749,4.7028,4.5773,4.3816,4.4414,4.4616,4.4401,4.4541,4.4598,4.4581,4.3826,4.3255,4.2978,4.1818,4.1192,4.1103,4.0306,3.9691,3.9353,3.8608,3.7601,3.6304,3.4463,0.0,0.0,0.0,0.0,0.0,0.0,0.0,0.0,0.0,3.5066,3.2161,0.0,3.5982,0.0,3.7439,3.886,4.008,4.0185,0.0,0.0,4.3006,4.3793,4.5601,4.5884,4.6358,4.7597,4.799,4.8269,4.8574,4.9241,4.9713,4.9908,5.0417,5.1169,5.2142,5.2674,5.2986,5.3151,5.3167,5.3185,5.3185,5.3185,5.328,5.3442,5.35,5.3482,5.35,5.3647,5.3683,5.3537,5.3628,5.4087,5.4858,5.4968,5.5537,5.6722,5.7127,5.7351,5.7839,5.6763,5.5678,5.4465,5.3518,5.3518,5.3247,5.2841,5.2824,5.3095,5.3501,5.3518,5.3247,5.2824,5.2469,5.1251,4.9492,4.9069,4.8697,4.8443,4.8832,4.9018,4.9018,4.9018,4.9018,4.9032,4.9299,4.9098,4.8472,4.8911,4.8788,4.8199,4.8259,4.8324,4.8324,4.8324,4.7493,4.5944,4.6076,4.6028,4.5723,4.5252,4.4998,4.4981,4.4296,4.371,4.322,4.249,4.1985,4.1785,4.1196,4.0637,4.0163,3.9567,3.8856,3.8031,3.6432,3.5332,0.0,0.0,0.0,0.0,0.0,0.0,0.0,0.0,0.0,0.0,0.0,3.7911,3.8654,4.0304,4.1855,4.3122,4.3339,4.397,4.5308,4.5703,4.6446,4.7777,4.7969,4.8369,4.9267,4.9208,4.9175,4.9403,4.9501,4.9631,4.9788,5.0058,5.0545,5.1334,5.216,5.2656,5.2656,5.2968,5.3185,5.3185,5.3185,5.3185,5.3185,5.3185,5.3185,5.3185,5.3185,5.3185,5.3185,5.3185,5.3442,5.4216,5.4107,5.4437,5.5702,5.5786,5.6096,5.7611,5.6509,5.5262,5.4769,5.3518,5.3518,5.3518,5.3518,5.3518,5.3518,5.3518,5.3518,5.3518,5.345,5.2655,5.1539,5.0253,5.0135,4.9695,4.9018,4.9018,4.9018,4.9018,4.9018,4.9046,4.9152,4.9722,4.9465,4.8487,4.9298,4.9098,4.804,4.8193,4.8324,4.8324,4.8324,4.8324,4.8287,4.7795,4.7446,4.7259,4.6167,4.5622,4.5622,4.5089,4.4369,4.3499,4.3346,4.2923,4.205,4.1895,4.1513,4.0878,4.0185,3.9792,3.9777,3.8439,3.7627,0.0,3.6899,0.0,0.0,0.0,0.0,0.0,0.0,0.0,0.0,3.9323,4.0285,4.209,4.3871,4.5211,4.5993,4.6819,4.7324,4.7375,4.8414,4.9137,4.9175,5.0052,5.0683,5.0683,5.038,5.0171,5.0056,4.9445,4.9278,4.974,4.9584,4.9684,5.0398,5.1353,5.205,5.2016,5.2674,5.3185,5.3185,5.3185,5.3185,5.3185,5.3185,5.3185,5.3185,5.3185,5.3185,5.3185,5.3185,5.3445,5.4142,5.3709,5.3808,5.5133,5.4506,5.455,5.6681,5.607,5.4909,5.4296,5.3518,5.3518,5.3518,5.3518,5.3518,5.3518,5.3518,5.3518,5.3518,5.3433,5.2655,5.1826,5.098,5.0355,4.9695,4.9018,4.9018,4.9018,4.9018,4.9018,4.9286,4.9792,4.9947,5.0484,5.1215,5.0191,4.9868,5.0183,4.8924,4.8324,4.8324,4.8324,4.8324,4.8287,0.0,0.0,0.0,4.6359,4.6233,4.624,4.6136,4.5611,4.47,4.4179,0.0,4.3178,4.2286,4.1949,4.2264,4.1703,0.0,0.0,0.0,0.0,0.0,0.0,0.0,0.0,0.0,0.0,0.0,4.1287,4.0919,4.0744,4.2717,4.4341,4.5049,4.6054,4.6671,4.6873,4.7916,4.8564,4.8596,4.9641,5.0374,5.0354,5.0567,5.0683,5.0683,5.0643,5.0453,5.0147,4.9692,4.9321,4.917,4.879,4.8619,4.8802,5.0618,5.1924,5.205,5.2692,5.3167,5.3185,5.3185,5.3185,5.3185,5.3185,5.3185,5.3185,5.3185,5.3185,5.3185,5.3185,5.3222,5.3427,5.3301,5.3409,5.4451,5.3904,5.392,5.5707,5.5327,5.4668,5.4499,5.3518,5.3518,5.3518,0.0,5.3518,5.3518,5.3518,5.3518,5.3518,5.345,5.2655,5.1894,5.1183,5.0422,4.9695,4.9018,4.9018,4.9182,4.9492,4.9492,4.985,5.0554,5.0903,5.1223,5.1547,5.066,5.0256,5.0186,4.8939,4.8324,4.8324,4.8324,4.8324,4.8324,4.8324,4.7977,4.7345,4.7044,4.6869,4.6869,4.6571,4.6135,4.5608,4.491,0.0,0.0,0.0,0.0,0.0,0.0,0.0,0.0,0.0,0.0,4.1831,4.2077,4.2066,4.1715,4.2415,4.3204,4.4011,4.4621,4.4441,4.3272,4.519,4.67,4.7327,4.7898,4.8418,4.885,4.9433,4.9789,4.9808,5.0344,5.0683,5.0683,5.0683,5.0683,5.0683,5.0683,5.0614,5.0421,4.9853,4.9445,4.9202,4.8675,4.8324,4.8453,4.9701,5.1024,5.1869,5.2674,5.3185,5.3185,5.3185,5.3185,5.3185,5.3185,5.3185,5.3185,5.3185,5.3185,5.3185,5.3185,5.3185,5.3143,5.268,5.241,5.2997,5.2723,5.2631,5.3767,5.4035,5.4186,5.4735,5.3518,5.3518,5.3518,5.3518,5.3518,5.3518,5.3518,5.3518,0.0,0.0,5.2655,5.1911,5.1151,5.0422,4.9695,4.9018,4.9018,4.9359,4.9987,4.9987,5.0445,5.1292,5.1856,5.179,5.1251,5.0944,5.041,4.9651,4.8747,4.8324,4.8324,4.8324,4.8324,4.8324,4.8324,4.8324,4.8287,4.7797,4.7551,4.7551,4.7021,4.6601,4.637,4.5703,4.5232,4.4912,4.4268,4.3608,4.2983,4.2928,4.2947,4.2965,4.3571,4.4213,4.4874,4.5588,4.601,4.6009,4.6209,4.639,4.6538,4.7518,4.751,4.6042,4.7233,4.8365,4.9148,4.9468,4.9913,5.0635,5.0683,5.0683,5.0683,5.0683,5.0683,5.0683,5.0683,5.0683,5.0683,5.0683,5.0663,5.0554,4.9949,4.9479,4.9311,4.8727,4.8324,4.8416,4.9095,5.0308,5.174,5.2509,5.2986,5.3148,5.3185,5.3185,5.3185,5.3185,5.3185,5.3185,5.3185,5.3185,5.3185,5.3185,5.3124,5.2959,5.2149,5.154,5.2011,5.1756,5.1631,5.2347,5.3036,5.3683,5.4279,5.3518,5.3518,5.3518,5.3518,5.3518,5.3518,5.3518,5.3518,5.3518,5.345,5.2655,5.1894,5.1134,5.0422,4.9695,4.9018,4.9018,4.9359,4.9987,4.9987,5.0699,5.1928,5.2065,5.2037,5.1816,5.1124,5.0376,4.9603,4.8726,4.8324,4.8324,4.8324,4.8324,4.8324,4.8324,4.8324,4.8287,4.821,4.8153,4.8172,4.8075,4.7691,4.6999,4.6871,4.6451,4.5773,4.5608,4.5516,4.5406,4.5406,4.5406,4.5406,4.5461,4.5626,4.5736,4.616,4.6411,4.6445,4.7372,4.8265,4.8923,4.9473,4.9359,4.8509,4.9217,4.9943,5.0392,5.0433,5.0558,5.0683,5.0683,5.0683,5.0683,5.0683,5.0683,5.0683,5.0683,5.0683,5.0683,5.0683,5.0525,5.0237,4.9787,4.9341,4.9029,4.8622,4.8324,4.8434,4.904,5.0216,5.1593,5.2068,5.2454,5.3041,5.3185,5.3185,5.3185,5.3185,5.3185,5.3185,5.3185,5.3185,5.3185,5.3185,5.2977,5.2445,5.2154,5.1972,5.2109,5.2004,5.2304,5.2934,5.3299,5.3534,5.4532,5.3551,5.3518,5.3518,5.3518,5.3518,5.3518,5.3518,5.3518,5.3518,5.3382,5.2232,5.1506,5.1133,5.0016,4.9323,4.9018,4.9018,4.9563,5.0554,5.0581,5.1361,5.2617,5.2684,5.2473,5.1977,5.1187,5.038,4.9592,4.871,4.8324,4.8324,4.8324,4.8324,4.8324,4.8324,4.8324,4.8324,4.8324,4.8324,4.8324,4.8324,4.8141,4.7774,4.7333,4.6947,4.6544,4.614,4.5902,4.5902,4.5902,4.5902,4.5902,4.6324,4.6544,4.6581,4.7358,4.7814,4.7795,4.8525,4.9206,4.9775,4.9987,5.0042,4.9914,5.0221,5.0493,5.0673,5.0683,5.0683,5.0683,5.0683,5.0683,5.0683,5.0683,5.0683,5.0683,5.0683,5.0683,5.0673,5.0493,5.0313,5.0135,4.9561,4.9123,4.8897,4.855,4.8306,4.8324,4.8655,4.9499,5.1041,5.2068,5.2747,5.3112,5.3185,5.3185,5.3185,5.3185,5.3185,5.3185,5.3185,5.3185,5.3185,5.3185,5.2915,5.2224,5.2135,5.203,5.1731,5.2032,5.2432,5.277,5.314,5.3484,5.4854,5.3518,5.3518,5.3518,5.3518,5.3518,5.3518,5.3518,5.3518,5.3518,5.3298,5.1877,5.1234,5.1033,4.9678,4.9018,4.9032,4.9168,4.9925,5.1034,5.1266,5.1988,5.3103,5.3185,5.2692,5.1756,5.1096,5.0288,4.9335,4.8618,4.8324,4.8324,4.8324,4.8324,4.8324,4.8324,4.8324,4.8324,4.8324,4.8324,4.8324,4.8324,4.8324,4.825,4.77,4.7369,4.7333,4.6764,4.6434,4.6452,4.6452,4.6452,4.6471,4.7003,4.7351,4.7463,4.8427,4.9123,4.9307,4.9589,4.9911,5.0195,5.0237,5.0358,5.0634,5.0683,5.0683,5.0683,5.0683,5.0683,5.0683,5.0683,5.0683,5.0683,5.0683,5.0683,5.0683,5.0683,5.0683,5.0663,5.0347,5.008,4.9866,4.9337,4.8897,4.8727,4.8477,4.8325,4.8324,4.8434,4.9187,5.0306,5.1756,5.2582,5.2876,5.3093,5.3167,5.3185,5.3185,5.3185,5.3185,5.3185,5.3185,5.3185,5.3185,5.2787,5.2137,5.2068,5.1903,5.1511,5.1831,5.2349,5.2687,5.3111,5.3501,5.4837,5.3602,5.3518,5.3518,5.3518,5.3518,5.3518,5.3518,5.3518,5.3518,5.3399,5.1877,5.1234,5.1014,4.9678,4.9066,4.9077,4.9652,5.0352,5.1138,5.1734,5.2445,5.3164,5.3185,5.2417,5.1114,5.0857,5.0031,4.8618,4.8379,4.8324,4.8324,4.8324,4.8324,4.8324,4.8324,4.8324,4.8324,4.8324,4.8324,4.8324,4.8324,4.8324,4.8324,4.8233,4.8196,4.8122,4.8103,4.8086,4.8086,4.8049,4.8067,4.8067,4.8141,4.8177,4.8216,4.8973,4.9728,5.0421,5.0565,5.0565,5.0624,5.0614,5.0634,5.0683,5.0683,5.0683,5.0683,5.0683,5.0683,5.0683,5.0683,5.0683,5.0683,5.0683,5.0683,5.0683,5.0683,5.0683,5.0683,5.0325,4.9962,4.9603,4.9155,4.8744,4.8458,4.8364,4.8324,4.8361,4.8802,4.9242,4.9719,5.0508,5.1334,5.2013,5.2784,5.3112,5.3185,5.3185,5.3185,5.3185,5.3185,5.3185,5.3185,5.3185,5.2747,5.1943,5.167,5.199,5.1655,5.1939,5.2553,5.3179,5.345,5.3518,5.4448,5.3518,5.3518,5.3518,5.3518,5.3518,5.3518,5.3518,5.3518,5.3717,5.3886,5.207,5.1234,5.115,5.0564,5.0056,4.9652,5.0324,5.1016,5.1667,5.1976,5.249,5.3143,5.3185,5.2601,5.1518,5.1041,5.0196,4.915,4.8563,4.8324,4.8324,4.8324,4.8324,4.8324,4.8324,4.8324,4.8324,4.8324,4.8324,4.8324,4.8324,4.8324,4.8324,4.8324,4.8324,4.8324,4.8324,4.8324,4.8324,4.8324,4.8324,4.8324,4.8532,4.8657,4.871,4.9397,5.0092,5.0663,5.0683,5.0683,5.0683,5.0683,5.0683,5.0683,5.0683,5.0683,5.0683,5.0683,5.0683,5.0683,5.0683,5.0683,5.0683,5.0683,5.0683,5.0683,5.0683,5.0683,5.0644,5.0147,4.9706,4.9445,4.893,4.8513,4.8325,4.8324,4.8324,4.8343,4.8618,4.8783,4.893,4.9536,5.06,5.1701,5.2692,5.3075,5.3185,5.3185,5.3185,5.3185,5.3185,5.3185,5.3185,5.3185,5.2876,5.2011,5.2306,5.2649,5.2247,5.2452,5.3145,5.345,5.3501,5.3518,5.416,5.3551,5.3518,5.3518,5.3518,5.3518,5.3518,5.3518,5.3518,5.3913,5.4375,5.2606,5.1814,5.1737,5.1156,5.0638,5.0432,5.1042,5.1618,5.2112,5.2294,5.2684,5.3164,5.3185,5.2784,5.2013,5.1408,5.06,4.9629,4.871,4.8324,4.8324,4.8324,4.8324,4.8324,4.8324,4.8324,4.8324,4.8324,4.8324,4.8324,4.8324,4.8324,4.8324,4.8324,4.8324,4.8324,4.8324,4.8324,4.8324,4.8324,4.8324,4.8306,4.8586,4.883,4.911,4.97,5.0272,5.0673,5.0683,5.0683,5.0683,5.0683,5.0683,5.0683,5.0683,5.0683,5.0683,5.0683,5.0683,5.0683,5.0683,5.0683,5.0683,5.0683,5.0683,5.0683,5.0683,5.0683,5.0624,5.0031,4.9405,4.9158,4.8676,4.8324,4.8324,4.8324,4.8324,4.8324,4.8324,4.8343,4.8361,4.904,4.9996,5.1189,5.2179,5.2729,5.2968,5.2968,5.3185,5.3185,5.3185,5.3185,5.3185,5.3185,5.2949,5.2319,5.2668,5.3241,5.2917,5.3078,5.3467,5.3501,5.3518,5.3518,5.4177,5.3551,5.3518,5.3518,5.3518,5.3518,5.3518,5.3518,5.3518,5.3913,5.4503,5.3583,5.3276,5.3135,5.1221,5.0442,5.1104,5.1741,5.2089,5.2224,5.2809,5.3164,5.3185,5.3185,5.2803,5.2142,5.1922,5.1059,4.9629,4.8765,4.8324,4.8324,4.8324,4.8324,4.8324,4.8324,4.8324,4.8324,4.8324,4.8324,4.8324,4.8324,4.8324,4.8324,4.8324,4.8324,4.8324,4.8324,4.8324,4.8324,4.8324,4.8324,4.8306,4.8345,4.8728,4.9431,4.9866,5.0283,5.0624,5.0683,5.0683,5.0683,5.0683,5.0683,5.0683,5.0683,5.0683,5.0683,5.0683,5.0683,5.0683,5.0683,5.0683,5.0683,5.0683,5.0683,5.0683,5.0683,5.0683,5.0575,5.0006,4.9268,4.8513,4.8344,4.8324,4.8324,4.8324,4.8324,4.8324,4.8324,4.8324,4.8453,4.893,4.9629,4.9849,5.1261,5.205,5.2325,5.2803,5.3185,5.3185,5.3185,5.3185,5.3185,5.3185,5.3004,5.2582,5.2702,5.3214,5.3274,5.3296,5.3501,5.3518,5.3518,5.3518,5.3737,5.3518,5.3518,5.3518,5.3518,5.3518,5.3518,5.3518,5.3518,5.4203,5.4844,5.3483,5.3478,5.4683,5.2384,5.1476,5.1808,5.2468,5.2809,5.2831,5.3082,5.3185,5.3185,5.3185,5.3096,5.2747,5.2215,5.1189,4.9739,4.928,4.8838,4.8379,4.8324,4.8324,4.8324,4.8324,4.8324,4.8324,4.8324,4.8324,4.8324,4.8324,4.8324,4.8324,4.8324,4.8324,4.8324,4.8324,4.8324,4.8324,4.8324,4.8324,4.8363,4.8797,4.9431,5.0171,5.041,5.0544,5.0673,5.0683,5.0683,5.0683,5.0683,5.0683,5.0683,5.0683,5.0683,5.0683,5.0683,5.0683,5.0683,5.0683,5.0683,5.0683,5.0683,5.0683,5.0683,5.0683,5.0683,5.0575,5.0006,4.9187,4.855,4.8324,4.8324,4.8324,4.8324,4.8324,4.8324,4.8324,4.8324,4.8343,4.8563,4.8765,4.8765,5.0674,5.2032,5.2234,5.2582,5.3002,5.3185,5.3185,5.3185,5.3185,5.3185,5.3158,5.2834,5.2855,5.3324,5.3437,5.3518,5.3518,5.3518,5.3518,5.3518,5.3518,5.3518,5.3518,5.3518,5.3518,5.3518,5.3518,5.3534,5.375,5.4562,5.523,5.4053,5.4247,5.5153,5.3668,5.2667,5.2527,5.2977,5.3185,5.3185,5.3185,5.3185,5.3185,5.3185,5.3185,5.3078,5.238,5.13,5.0106,4.9721,4.9132,4.8343,4.8324,4.8324,4.8324,4.8324,4.8324,4.8324,4.8324,4.8324,4.8324,4.8324,4.8324,4.8324,4.8324,4.8324,4.8324,4.8324,4.8324,4.8324,4.8324,4.8364,4.8532,4.9123,4.98,5.041,5.0643,5.0683,5.0683,5.0683,5.0683,5.0683,5.0683,5.0683,5.0683,5.0683,5.0683,5.0683,5.0683,5.0683,5.0683,5.0683,5.0683,5.0683,5.0683,5.0683,5.0683,5.0683,5.0554,5.026,4.9827,4.9155,4.8495,4.8344,4.8324,4.8324,4.8324,4.8324,4.8324,4.8324,4.8324,4.8324,4.8343,4.8398,4.8563,4.9921,5.1206,5.1536,5.2527,5.2947,5.3185,5.3185,5.3185,5.3185,5.32,5.3242,5.3256,5.3193,5.3271,5.3432,5.3518,5.3518,5.3518,5.3518,5.3518,5.3518,5.3518,5.3518,5.3518,5.3518,5.3518,5.3518,5.3701,5.4264,5.4982,5.574,5.5569,5.542,5.543,5.4554,5.3879,5.3216,5.3146,5.3185,5.3185,5.3185,5.3185,5.3185,5.3185,5.3185,5.3148,5.238,5.1555,5.0692,4.9959,4.917,4.8453,4.8324,4.8324,4.8324,4.8324,4.8324,4.8324,4.8324,4.8324,4.8324,4.8324,4.8324,4.8324,4.8324,4.8324,4.8324,4.8324,4.8324,4.8324,4.8324,4.8495,4.888,4.9326,4.97,5.0171,5.0493,5.0673,5.0683,5.0683,5.0683,5.0683,5.0683,5.0683,5.0683,5.0683,5.0683,5.0683,5.0683,5.0683,5.0683,5.0683,5.0683,5.0683,5.0683,5.0683,5.0683,5.0673,5.0399,4.9779,4.9493,4.9158,4.855,4.8324,4.8324,4.8324,4.8324,4.8324,4.8324,4.8324,4.8324,4.8324,4.8324,4.8324,4.8618,4.904,4.9921,5.0802,5.2123,5.2983,5.313,5.3185,5.3185,5.3182,5.2922,5.2948,5.3158,5.3143,5.3085,5.3196,5.3331,5.3518,5.3518,5.3518,5.3518,5.3518,5.3518,5.3518,5.3518,5.3518,5.3518,5.3783,5.4249,5.4513,5.5338,5.6268,5.5944,5.5674,5.543,5.4748,5.3977,5.3222,5.3185,5.3185,5.3185,5.3185,5.3185,5.3185,5.3185,5.3185,5.3057,5.238,5.1573,5.0765,4.9996,4.915,4.8453,4.8324,4.8324,4.8324,4.8324,4.8324,4.8324,4.8324,4.8324,4.8324,4.8324,4.8324,4.8324,4.8324,4.8324,4.8324,4.8324,4.8324,4.8324,4.8324,4.8604,4.9234,4.9687,5.0092,5.0442,5.0614,5.0683,5.0683,5.0683,5.0683,5.0683,5.0683,5.0683,5.0683,5.0683,5.0683,5.0683,5.0683,5.0683,5.0683,5.0683,5.0683,5.0683,5.0683,5.0683,5.0663,5.0453,5.0087,4.9589,4.9265,4.8846,4.8458,4.8324,4.8324,4.8324,4.8324,4.8324,4.8324,4.8324,4.8324,4.8324,4.8324,4.8508,4.8912,4.9389,5.0086,5.0839,5.1922,5.2894,5.3057,5.3185,5.3185,5.3061,5.2829,5.2795,5.2994,5.2999,5.2895,5.3145,5.3433,5.3518,5.3518,5.3518,5.3518,5.3518,5.3518,5.3518,5.3518,5.3518,5.3518,5.3896,5.4589,5.4909,5.5741,5.6639,5.6701,5.6179,5.5603,5.5042,5.4234,5.3277,5.3185,5.3185,5.3185,5.3185,5.3185,5.3185,5.3185,5.3023,5.2711,5.2234,5.1426,5.0362,4.9849,4.915,4.8434,4.8324,4.8324,4.8324,4.8324,4.8324,4.8324,4.8324,4.8324,4.8324,4.8324,4.8324,4.8324,4.8324,4.8324,4.8324,4.8324,4.8324,4.8344,4.8439,4.8847,4.946,4.9866,5.0272,5.0585,5.0683,5.0683,5.0683,5.0683,5.0683,5.0683,5.0683,5.0683,5.0683,5.0683,5.0683,5.0683,5.0683,5.0683,5.0683,5.0683,5.0683,5.0683,5.0683,5.0683,5.0653,5.0347,4.9949,4.9547,4.9155,4.8763,4.8439,4.8324,4.8324,4.8324,4.8324,4.8324,4.8324,4.8324,4.8434,4.8618,4.8875,4.9095,4.9334,4.9829,5.038,5.1041,5.1775,5.2546,5.3004,5.313,5.3185,5.3006,5.2795,5.2812,5.2961,5.2653,5.252,5.2976,5.3501,5.3518,5.3518,5.3518,5.3518,5.3518,5.3518,5.3518,5.3518,5.3501,5.3584,5.4074,5.4726,5.5483,5.6241,5.7022,5.7564,5.6997,5.5849,5.5482,5.4656,5.3405,5.3185,5.3185,5.3185,5.3185,5.3185,5.3185,5.3185,5.2894,5.2344,5.1977,5.1153,4.9996,4.9555,4.9114,4.8379,4.8324,4.8324,4.8324,4.8324,4.8324,4.8324,4.8324,4.8324,4.8324,4.8324,4.8324,4.8324,4.8324,4.8324,4.8324,4.8324,4.8324,4.8363,4.8674,4.9108,4.9489,4.9898,5.0347,5.0673,5.0683,5.0683,5.0683,5.0683,5.0683,5.0683,5.0683,5.0683,5.0683,5.0683,5.0683,5.0683,5.0683,5.0683,5.0683,5.0683,5.0673,5.0644,5.0585,5.0575,5.0565,5.0206,4.9773,4.9445,4.9092,4.8728,4.8363,4.8324,4.8324,4.8324,4.8324,4.8324,4.8379,4.8489,4.882,4.9095,4.9407,4.9756,5.0013,5.0141,5.071,5.1334,5.1903,5.2399,5.2968,5.3112,5.3185,5.3006,5.2804,5.2845,5.2839,5.2578,5.2668,5.3213,5.3484,5.3501,5.3518,5.3518,5.3518,5.3518,5.3518,5.3518,5.3518,5.3584,5.4059,5.4713,5.5466,5.6232,5.6946,5.7637,5.7909,5.7097,5.5724,5.5596,5.473,5.3518,5.3185,5.3185,5.3185,5.3185,5.3185,5.3185,5.3185,5.3075,5.2711,5.1738,5.0894,5.0398,4.9315,4.8636,4.8343,4.8324,4.8324,4.8324,4.8324,4.8324,4.8324,4.8324,4.8324,4.8324,4.8324,4.8324,4.8324,4.8324,4.8324,4.8324,4.8324,4.8324,4.8363,4.898,4.9371,4.9532,5.0147,5.0565,5.0663,5.0683,5.0683,5.0683,5.0683,5.0683,5.0683,5.0683,5.0683,5.0683,5.0683,5.0683,5.0683,5.0683,5.0683,5.0683,5.0683,5.0575,5.0294,5.026,5.0159,4.9885,4.9475,4.9171,4.9046,4.8728,4.8458,4.8345,4.8324,4.8324,4.8324,4.8324,4.8324,4.8379,4.8728,4.9077,4.9572,4.9939,5.038,5.0655,5.071,5.1041,5.1646,5.2087,5.2362,5.2858,5.3167,5.3185,5.3133,5.2797,5.275,5.2814,5.2762,5.312,5.3433,5.3484,5.3518,5.3518,5.3518,5.3518,5.3518,5.3518,5.3518,5.3518,5.3584,5.4296,5.5012,5.5762,5.6545,5.7327,5.7886,5.7978,5.7097,5.5688,5.5596,5.4693,5.3332,5.3185,5.3185,5.3185,5.3185,5.3185,5.3185,5.3185,5.3041,5.2637,5.1775,5.1169,5.0637,4.9462,4.8912,4.8783,4.8471,4.8324,4.8324,4.8324,4.8324,4.8324,4.8324,4.8324,4.8324,4.8324,4.8324,4.8324,4.8324,4.8324,4.8324,4.8324,4.8324,4.8458,4.9029,4.9489,4.958,5.026,5.0683,5.0683,5.0683,5.0683,5.0683,5.0683,5.0683,5.0683,5.0683,5.0683,5.0683,5.0683,5.0683,5.0683,5.0554,5.0554,5.0673,5.0683,5.0421,4.9962,4.984,4.9746,4.9522,4.9171,4.8947,4.8813,4.8568,4.8324,4.8324,4.8324,4.8324,4.8324,4.8324,4.8324,4.8379,4.8875,4.9444,4.9976,5.0545,5.1022,5.1628,5.1848,5.1793,5.2307,5.2417,5.2656,5.2858,5.3185,5.324,5.3167,5.2827,5.2729,5.2954,5.3099,5.3234,5.345,5.3484,5.3518,5.3518,5.3518,5.3518,5.3518,5.3518,5.3518,5.3518,5.3618,5.4374,5.5131,5.578,5.6677,5.7425,5.7886,5.7978,5.7079,5.5633,5.5574,5.473,5.3203,5.3185,5.3185,5.3185,5.3185,5.3185,5.3185,5.3185,5.2913,5.2399,5.2105,5.1591,5.093,5.005,4.9592,4.9298,4.8691,4.8361,4.8324,4.8324,4.8324,4.8324,4.8324,4.8324,4.8324,4.8324,4.8324,4.8324,4.8324,4.8324,4.8324,4.8324,4.8324,4.8324,4.9059,4.9445,4.9608,5.026,5.0634,5.0683,5.0683,5.0683,5.0683,5.0683,5.0683,5.0683,5.0683,5.0683,5.0683,5.0683,5.0683,5.0683,5.0336,5.0336,5.0504,5.0614,5.0272,4.9733,4.9504,4.9431,4.9311,4.9062,4.8847,4.8812,4.8514,4.8344,4.8324,4.8324,4.8324,4.8324,4.8324,4.8324,4.8581,4.9132,4.9793,5.049,5.1096,5.172,5.238,5.302,5.291,5.3002,5.2949,5.3002,5.3002,5.3222,5.3316,5.3239,5.3139,5.3229,5.3495,5.357,5.3476,5.345,5.3501,5.3518,5.3518,5.3518,5.3518,5.3518,5.3518,5.3518,5.3518,5.3734,5.4896,5.5552,5.5791,5.7173,5.7797,5.7955,5.7978,5.7042,5.5592,5.5464,5.4711,5.3314,5.3185,5.3185,5.3185,5.3185,5.3185,5.3185,5.3185,5.3093,5.2784,5.2252,5.1922,5.1463,5.0435,4.961,4.9537,4.882,4.8324,4.8324,4.8324,4.8324,4.8324,4.8324,4.8324,4.8324,4.8324,4.8324,4.8324,4.8324,4.8324,4.8324,4.8324,4.8324,4.8495,4.9013,4.9445,4.965,5.0279,5.0663,5.0683,5.0683,5.0683,5.0683,5.0683,5.0683,5.0683,5.0683,5.0683,5.0683,5.0683,5.0683,5.0624,5.0347,5.0135,5.0159,5.0206,4.9962,4.9547,4.9218,4.893,4.8621,4.8514,4.8477,4.8439,4.8383,4.8324,4.8324,4.8324,4.8324,4.8324,4.8324,4.8324,4.8728,4.926,4.9829,5.0435,5.1298,5.1848,5.2417,5.302,5.3185,5.3185,5.3185,5.3185,5.3185,5.3405,5.3573,5.3609,5.358,5.3735,5.3836,5.3627,5.3467,5.3501,5.3518,5.3518,5.3518,5.3518,5.3518,5.3518,5.3518,5.3518,5.3518,5.3717,5.5059,5.5706,5.6004,5.7321,5.7978,5.7886,5.7629,5.6712,5.5574,5.517,5.4326,5.3442,5.3185,5.3185,5.3185,5.3185,5.3185,5.3185,5.3185,5.3185,5.3133,5.2803,5.2582,5.2142,5.1041,5.0215,5.0013,4.8912,4.8361,4.8324,4.8324,4.8324,4.8324,4.8324,4.8324,4.8324,4.8324,4.8324,4.8324,4.8324,4.8324,4.8324,4.8324,4.8324,4.8458,4.888,4.9326,4.9622,5.0249,5.0634,5.0683,5.0683,5.0683,5.0683,5.0683,5.0683,5.0683,5.0683,5.0683,5.0683,5.0683,5.0683,5.0565,5.0214,4.9779,4.9589,4.976,4.9608,4.9311,4.9027,4.8745,4.842,4.8324,4.8324,4.8324,4.8306,4.8324,4.8324,4.8324,4.8324,4.8324,4.8324,4.8324,4.8324,4.8838,4.937,5.0086,5.1151,5.1903,5.2399,5.2858,5.3167,5.3185,5.3185,5.3185,5.3185,5.3555,5.394,5.3894,5.3875,5.3922,5.3993,5.3745,5.3534,5.3518,5.3518,5.3518,5.3518,5.3518,5.3518,5.3518,5.3518,5.3518,5.3518,5.3734,5.5042,5.5706,5.592,5.734,5.7978,5.7831,5.7152,5.6418,5.5574,5.4785,5.3977,5.3369,5.3185,5.3185,5.3185,5.3185,5.3185,5.3185,5.3185,5.3185,5.3185,5.3112,5.3075,5.2527,5.161,5.0563,5.0325,4.9077,4.8379,4.8324,4.8324,4.8324,4.8324,4.8324,4.8324,4.8324,4.8324,4.8324,4.8324,4.8324,4.8324,4.8324,4.8324,4.8324,4.8343,4.8692,4.9094,4.9561,5.0147,5.0673,5.0673,5.0683,5.0683,5.0683,5.0683,5.0683,5.0683,5.0683,5.0683,5.0683,5.0683,5.0624,5.0358,4.9974,4.9401,4.8994,4.9202,4.9234,4.8978,4.888,4.8639,4.8402,4.8324,4.8324,4.8324,4.8324,4.8324,4.8324,4.8324,4.8324,4.8324,4.8324,4.8324,4.8324,4.8581,4.9205,4.9939,5.1022,5.2105,5.2674,5.2876,5.3148,5.3185,5.3185,5.3222,5.3277,5.3757,5.4111,5.4181,5.4172,5.4189,5.408,5.3788,5.3617,5.3534,5.3518,5.3518,5.3518,5.3518,5.3518,5.3518,5.3518,5.3518,5.3518,5.3734,5.5072,5.5734,5.5958,5.7364,5.7978,5.7868,5.7134,5.629,5.5537,5.4748,5.3959,5.3314,5.3185,5.3185,5.3185,5.3185,5.3185,5.3185,5.3185,5.3185,5.3185,5.3112,5.2821,5.2197,5.1261,5.0508,4.9738,4.882,4.8324,4.8324,4.8324,4.8324,4.8324,4.8324,4.8324,4.8324,4.8324,4.8324,4.8324,4.8324,4.8324,4.8324,4.8324,4.8324,4.8344,4.8692,4.9075,4.9489,4.9962,5.0336,5.0624,5.0683,5.0683,5.0683,5.0683,5.0683,5.0683,5.0683,5.0683,5.0683,5.0634,5.0453,5.0104,4.976,4.9311,4.8945,4.8963,4.898,4.8812,4.8604,4.842,4.8325,4.8324,4.8324,4.8324,4.8324,4.8324,4.8324,4.8324,4.8324,4.8324,4.8324,4.8324,4.8324,4.8728,4.9353,5.0143,5.0986,5.205,5.2986,5.3059,5.3185,5.3185,5.3203,5.3314,5.3497,5.3995,5.4275,5.4327,5.4399,5.4401,5.4191,5.3871,5.3666,5.3534,5.3518,5.3518,5.3518,5.3518,5.3518,5.3518,5.3534,5.3913,5.4074,5.4328,5.5702,5.6313,5.6474,5.7498,5.7978,5.7611,5.6767,5.5978,5.5335,5.4271,5.3555,5.3295,5.3185,5.3185,5.3185,5.3185,5.3185,5.3185,5.3185,5.3185,5.3057,5.2803,5.2435,5.194,5.1187,5.0325,4.9592,4.8728,4.8324,4.8324,4.8324,4.8324,4.8324,4.8324,4.8324,4.8324,4.8324,4.8324,4.8324,4.8324,4.8324,4.8324,4.8324,4.8324,4.8344,4.8477,4.8897,4.9371,4.9719,5.0068,5.0554,5.0683,5.0683,5.0683,5.0683,5.0683,5.0683,5.0683,5.0683,5.0624,5.0464,5.0128,4.9617,4.9352,4.9029,4.8621,4.8604,4.8586,4.855,4.842,4.8325,4.8324,4.8324,4.8324,4.8324,4.8324,4.8324,4.8324,4.8324,4.8324,4.8324,4.8324,4.8324,4.8324,4.8673,4.9206,5.018,5.1004,5.2068,5.2968,5.313,5.3185,5.3185,5.324,5.335,5.3867,5.4418,5.45,5.4506,5.4538,5.4686,5.4313,5.3975,5.3733,5.3518,5.3518,5.3518,5.3518,5.3518,5.3518,5.3518,5.3568,5.4296,5.4589,5.4848,5.6232,5.6869,5.704,5.7679,5.7868,5.7556,5.6308,5.5537,5.5005,5.4032,5.3203,5.3185,5.3185,5.3185,5.3185,5.3185,5.3185,5.3185,5.3167,5.3075,5.2729,5.2399,5.1922,5.1518,5.0839,5.0105,4.9297,4.8545,4.8324,4.8324,4.8324,4.8324,4.8324,4.8324,4.8324,4.8324,4.8324,4.8324,4.8324,4.8324,4.8324,4.8324,4.8324,4.8324,4.8324,4.8402,4.8657,4.9326,4.9489,4.9885,5.0534,5.0683,5.0683,5.0673,5.0554,5.0504,5.0504,5.0573,5.0565,5.0472,5.0159,4.97,4.9075,4.8796,4.8692,4.842,4.8325,4.8325,4.8325,4.8344,4.8324,4.8324,4.8324,4.8324,4.8324,4.8324,4.8324,4.8324,4.8324,4.8324,4.8324,4.8324,4.8324,4.8324,4.8324,4.8893,5.0031,5.1059,5.2123,5.2839,5.3148,5.3185,5.3185,5.3277,5.3408,5.4161,5.4932,5.4858,5.4697,5.4922,5.4961,5.4539,5.4027,5.3701,5.3518,5.3518,5.3518,5.3518,5.3518,5.3518,5.3518,5.3551,5.4279,5.4589,5.4848,5.6304,5.6938,5.704,5.7703,5.7574,5.7005,5.6033,5.5207,5.4418,5.3665,5.3222,5.3185,5.3185,5.3185,5.3185,5.3185,5.3185,5.3185,5.3185,5.2876,5.2454,5.2105,5.1573,5.1041,5.0251,4.9352,4.8636,4.8471,4.8324,4.8324,4.8324,4.8324,4.8324,4.8324,4.8324,4.8324,4.8324,4.8324,4.8324,4.8324,4.8324,4.8324,4.8324,4.8325,4.8363,4.8325,4.871,4.9345,4.9489,4.9936,5.0432,5.0683,5.0683,5.0653,5.0421,5.0283,5.0294,5.0249,5.0183,5.0068,4.98,4.9371,4.898,4.8604,4.8421,4.8344,4.8324,4.8324,4.8324,4.8324,4.8324,4.8324,4.8324,4.8324,4.8324,4.8324,4.8324,4.8324,4.8324,4.8324,4.8324,4.8324,4.8324,4.8489,4.8636,4.9205,5.0472,5.1426,5.2454,5.2858,5.313,5.3185,5.3185,5.3463,5.3586,5.4294,5.4939,5.4983,5.492,5.5127,5.4863,5.4114,5.3668,5.3534,5.3518,5.3518,5.3518,5.3518,5.3518,5.3518,5.3518,5.3601,5.4743,5.5232,5.5408,5.6858,5.7522,5.7589,5.7844,5.7556,5.6748,5.5941,5.4913,5.3849,5.3316,5.3203,5.3185,5.3185,5.3185,5.3185,5.3185,5.3185,5.3185,5.3185,5.2913,5.2491,5.1793,5.1187,5.0582,4.9939,4.915,4.8416,4.8324,4.8324,4.8324,4.8324,4.8324,4.8324,4.8324,4.8324,4.8324,4.8324,4.8324,4.8324,4.8324,4.8324,4.8324,4.8324,4.8421,4.855,4.8639,4.9029,4.9636,4.9872,5.0037,5.026,5.0575,5.0683,5.0634,5.0294,5.0249,5.0283,5.0225,5.0012,4.9754,4.9412,4.9139,4.8911,4.8532,4.8326,4.8324,4.8324,4.8324,4.8324,4.8324,4.8324,4.8324,4.8324,4.8324,4.8324,4.8324,4.8324,4.8324,4.8324,4.8324,4.8324,4.8343,4.8361,4.8857,4.9462,5.0233,5.1298,5.2105,5.2876,5.302,5.3185,5.3185,5.3295,5.3885,5.4067,5.4413,5.4809,5.4984,5.4896,5.484,5.4382,5.3651,5.3518,5.3518,5.3518,5.3518,5.3518,5.3518,5.3518,5.3518,5.3518,5.3634,5.5072,5.5706,5.5847,5.7321,5.7978,5.7978,5.7978,5.7446,5.6418,5.5409,5.4234,5.3463,5.3203,5.3185,5.3185,5.3185,5.3185,5.3185,5.3185,5.3185,5.3185,5.3185,5.3057,5.2894,5.1499,5.0747,5.0233,4.9646,4.8857,4.8324,4.8324,4.8324,4.8324,4.8324,4.8324,4.8324,4.8324,4.8324,4.8324,4.8324,4.8324,4.8324,4.8324,4.8324,4.8324,4.8324,4.8477,4.8604,4.883,4.9171,4.9746,4.9962,5.0147,5.0313,5.0493,5.0565,5.0534,5.0388,5.0291,5.0237,5.0159,4.9746,4.9401,4.9092,4.8863,4.8744,4.8495,4.8325,4.8324,4.8324,4.8324,4.8324,4.8324,4.8324,4.8324,4.8324,4.8324,4.8324,4.8324,4.8324,4.8324,4.8324,4.8324,4.8324,4.8343,4.8434,4.9132,5.0013,5.0839,5.1756,5.2472,5.302,5.3112,5.3185,5.3185,5.3424,5.4014,5.4492,5.4838,5.5128,5.5362,5.5136,5.4735,5.4186,5.3668,5.3551,5.3518,5.3518,5.3518,5.3518,5.3518,5.3518,5.3518,5.3518,5.3618,5.5089,5.5706,5.5819,5.734,5.7978,5.7978,5.7978,5.7116,5.5684,5.4197,5.3482,5.3222,5.3185,5.3185,5.3185,5.3185,5.3185,5.3185,5.3185,5.3185,5.3185,5.3093,5.2876,5.2234,5.1261,5.0435,4.9757,4.926,4.8655,4.8324,4.8324,4.8324,4.8324,4.8324,4.8324,4.8324,4.8324,4.8324,4.8324,4.8324,4.8324,4.8324,4.8324,4.8324,4.8324,4.8324,4.8439,4.855,4.8829,4.9246,4.9787,5.0068,5.0313,5.0399,5.0388,5.0442,5.0442,5.0302,4.9949,4.9719,4.9532,4.9401,4.911,4.9329,4.9078,4.855,4.8402,4.8325,4.8324,4.8324,4.8324,4.8324,4.8324,4.8324,4.8324,4.8324,4.8324,4.8324,4.8324,4.8324,4.8324,4.8324,4.8324,4.8324,4.8728,4.882,4.9609,5.0453,5.1187,5.1977,5.2692,5.3115,5.3148,5.3185,5.3185,5.3552,5.4124,5.4682,5.519,5.5462,5.5873,5.5221,5.4787,5.4249,5.375,5.3584,5.3518,5.3518,5.3518,5.3518,5.3518,5.3518,5.3518,5.3783,5.4281,5.5291,5.5706,5.5819,5.734,5.7978,5.7978,5.796,5.7079,5.5482,5.3995,5.3185,5.3185,5.3185,5.3185,5.3185,5.3185,5.3185,5.3185,5.3185,5.3185,5.3185,5.3148,5.3023,5.2491,5.1518,5.0729,5.0343,4.9481,4.8765,4.8489,4.8471,4.8324,4.8324,4.8324,4.8324,4.8324,4.8324,4.8324,4.8324,4.8324,4.8324,4.8324,4.8324,4.8324,4.8324,4.8324,4.8604,4.8932,4.9155,4.9575,5.0012,5.0294,5.0399,5.0451,5.0388,5.0432,5.0336,5.0183,4.9924,4.9547,4.9295,4.9078,4.8864,4.8881,4.8847,4.8586,4.8421,4.8324,4.8324,4.8324,4.8324,4.8324,4.8324,4.8324,4.8361,4.8398,4.8489,4.8581,4.8434,4.8324,4.8324,4.8324,4.8324,4.8361,4.882,4.9389,5.0196,5.0894,5.1628,5.2215,5.2913,5.3151,5.3185,5.3185,5.3185,5.3739,5.4271,5.4899,5.5537,5.6188,5.6348,5.5621,5.4818,5.4264,5.3865,5.3584,5.3518,5.3518,5.3518,5.3518,5.3518,5.3518,5.3518,5.3946,5.4682,5.5408,5.5836,5.6196,5.7456,5.7978,5.7978,5.7978,5.7097,5.5519,5.4161,5.3387,5.3259,5.3185,5.3185,5.3185,5.3185,5.3185,5.3185,5.3185,5.3185,5.3185,5.3185,5.313,5.2855,5.2013,5.1169,5.1132,5.0343,4.9774,4.9334,4.8984,4.8948,4.8324,4.8324,4.8324,4.8324,4.8324,4.8324,4.8324,4.8324,4.8324,4.8324,4.8324,4.8402,4.8495,4.8586,4.8829,4.9265,4.9636,4.9949,5.0336,5.0594,5.0514,5.0483,5.0472,5.0525,5.0336,5.0006,4.9813,4.9504,4.9139,4.8913,4.8692,4.855,4.8692,4.8604,4.8439,4.8324,4.8324,4.8324,4.8324,4.8324,4.8324,4.8343,4.8489,4.8563,4.8728,4.8857,4.8765,4.8802,4.882,4.8893,4.8948,4.893,4.9114,4.9904,5.0967,5.1591,5.2087,5.2619,5.3075,5.3185,5.3185,5.3222,5.335,5.4051,5.4616,5.5235,5.5892,5.6525,5.658,5.5695,5.4952,5.4328,5.3881,5.3568,5.3518,5.3518,5.3518,5.3518,5.3518,5.3518,5.3518,5.3929,5.4651,5.5408,5.6177,5.6894,5.7679,5.7978,5.7978,5.7886,5.7079,5.5684,5.4693,5.3922,5.3405,5.3295,5.3185,5.3185,5.3185,5.3185,5.3185,5.3185,5.3185,5.3185,5.3185,5.3185,5.3004,5.2289,5.1756,5.1848,5.1132,5.071,5.0508,5.0215,4.9756,4.8489,4.8324,4.8324,4.8324,4.8324,4.8324,4.8324,4.8324,4.8324,4.8324,4.8324,4.8421,4.8586,4.8639,4.893,4.9401,4.9746,5.0019,5.0291,5.0565,5.0634,5.0634,5.0663,5.0673,5.0585,4.9936,4.9608,4.9431,4.9075,4.871,4.8532,4.855,4.8658,4.8495,4.8344,4.8324,4.8324,4.8324,4.8324,4.8324,4.8324,4.8508,4.8673,4.8893,4.9077,4.9462,4.9555,4.9574,4.9574,4.961,4.9665,4.9665,4.961,5.0345,5.1518,5.2197,5.2601,5.2821,5.3185,5.3185,5.3203,5.3277,5.3573,5.4271,5.502,5.5737,5.6189,5.6654,5.6392,5.5671,5.5012,5.4359,5.3913,5.3518,5.3518,5.3518,5.3518,5.3518,5.3518,5.3518,5.3518,5.4218,5.535,5.561,5.6456,5.7589,5.7904,5.7978,5.7886,5.7446,5.6895,5.6198,5.5042,5.4326,5.3922,5.3387,5.3185,5.3185,5.3185,5.3185,5.3185,5.3185,5.3185,5.3185,5.3185,5.3185,5.2986,5.2454,5.205,5.1958,5.1665,5.1242,5.0967,5.0894,5.0196,4.926,4.8728,4.8324,4.8324,4.8324,4.8324,4.8324,4.8343,4.8324,4.8324,4.8325,4.8421,4.8639,4.871,4.898,4.9508,4.9827,5.0031,5.0347,5.0683,5.0683,5.0683,5.0683,5.0554,5.0283,4.98,4.9518,4.9311,4.8913,4.8514,4.8363,4.8402,4.8402,4.8363,4.8324,4.8324,4.8324,4.8324,4.8324,4.8324,4.8416,4.8765,4.9041,4.9317,4.9592,5.0123,5.0398,5.038,5.038,5.0472,5.0527,5.0875,5.0967,5.1042,5.1958,5.2564,5.3002,5.302,5.3185,5.3185,5.324,5.3537,5.3995,5.4693,5.5537,5.6355,5.6747,5.6785,5.6277,5.5592,5.4999,5.4405,5.3898,5.3518,5.3518,5.3518,5.3518,5.3518,5.3518,5.3518,5.3518,5.4376,5.5649,5.5706,5.6588,5.7867,5.7978,5.7978,5.7886,5.7428,5.695,5.6216,5.5225,5.4418,5.3977,5.3479,5.3185,5.3185,5.3185,5.3185,5.3185,5.3185,5.3185,5.3185,5.3185,5.3185,5.3041,5.2784,5.2454,5.2509,5.2435,5.2179,5.1811,5.1353,5.1022,5.0325,4.9793,4.9315,4.9279,4.9187,4.8857,4.8728,4.8582,4.8401,4.8458,4.8477,4.8495,4.878,4.8949,4.9062,4.9617,4.9962,5.0135,5.0554,5.0683,5.0683,5.0683,5.0673,5.0554,5.0325,4.9773,4.9547,4.946,4.8728,4.8363,4.8324,4.8344,4.8344,4.8324,4.8324,4.8343,4.8361,4.8361,4.8489,4.8508,4.8875,4.9242,4.9831,5.0124,5.0547,5.1041,5.1224,5.1224,5.1224,5.1353,5.1444,5.1922,5.2362,5.238,5.2325,5.2803,5.3185,5.3185,5.3295,5.3387,5.3628,5.4014,5.4509,5.5133,5.5847,5.6611,5.6636,5.6575,5.6043,5.5552,5.4909,5.4328,5.3816,5.3518,5.3518,5.3518,5.3518,5.3518,5.3518,5.3568,5.3619,5.4359,5.5592,5.5706,5.6588,5.7844,5.7978,5.7978,5.7978,5.796,5.7116,5.5706,5.5666,5.4803,5.3534,5.324,5.3185,5.3185,5.3185,5.3185,5.3185,5.3185,5.3185,5.3185,5.3185,5.3185,5.3185,5.3057,5.2931,5.313,5.3004,5.2968,5.2876,5.227,5.1977,5.1591,5.1242,5.0729,5.0306,4.9884,4.9555,4.9297,4.8967,4.8789,4.8716,4.8643,4.8891,4.9169,4.9371,4.9733,5.0159,5.0534,5.0614,5.0702,5.0683,5.0683,5.0683,5.0683,5.0653,5.0462,4.9827,4.9504,4.9341,4.8779,4.8439,4.8324,4.8324,4.8324,4.8324,4.8324,4.8379,4.8434,4.8655,4.8857,4.915,4.9536,5.0086,5.0747,5.1224,5.1665,5.1958,5.2013,5.2032,5.2032,5.2142,5.216,5.2509,5.2839,5.2858,5.2839,5.2894,5.3185,5.3185,5.3332,5.3628,5.3959,5.4418,5.5152,5.5812,5.5873,5.6398,5.6379,5.6224,5.5546,5.5042,5.4726,5.4232,5.3684,5.3501,5.3518,5.3518,5.3518,5.3518,5.3518,5.3771,5.3907,5.4359,5.5649,5.5706,5.6606,5.7867,5.7978,5.7978,5.7978,5.7978,5.7354,5.6418,5.5831,5.4932,5.4069,5.35,5.324,5.3185,5.3185,5.3185,5.3185,5.3185,5.3185,5.3185,5.3185,5.3185,5.3185,5.3185,5.3185,5.3167,5.3185,5.3185,5.3057,5.2876,5.2803,5.2711,5.2601,5.1811,5.1132,5.0655,5.0251,5.0033,4.9811,4.9397,4.8937,4.9028,4.9211,4.901,4.919,4.9475,4.9813,5.0159,5.0347,5.0683,5.0683,5.0683,5.0683,5.0673,5.0594,5.0313,5.0056,4.9719,4.9265,4.883,4.8604,4.842,4.8324,4.8324,4.8324,4.8361,4.8416,4.8783,4.9095,4.9554,5.0086,5.0435,5.0857,5.1481,5.1867,5.2307,5.2582,5.2637,5.2637,5.2674,5.2711,5.2766,5.3038,5.3185,5.3185,5.3185,5.3185,5.3185,5.3185,5.3332,5.361,5.4326,5.484,5.5702,5.6401,5.64,5.6374,5.6427,5.6087,5.5144,5.4558,5.4264,5.3962,5.3618,5.3501,5.3518,5.3518,5.3518,5.3518,5.3568,5.3771,5.4177,5.4376,5.5621,5.5706,5.6606,5.7844,5.7978,5.785,5.7629,5.785,5.7409,5.6326,5.5835,5.4968,5.3904,5.3387,5.3185,5.3185,5.3185,5.3185,5.3185,5.3185,5.3185,5.3185,5.3185,5.3185,5.3185,5.3185,5.3185,5.3185,5.3185,5.3185,5.3185,5.3185,5.3185,5.3112,5.2983,5.2674,5.2013,5.1463,5.1004,5.082,5.0694,4.9909,4.9379,4.9561,4.9231,4.8859,4.9069,4.9314,4.9719,5.0104,5.0421,5.0683,5.0683,5.0683,5.0683,5.0683,5.0604,5.0399,4.9987,4.9603,4.9202,4.8846,4.855,4.842,4.8324,4.8324,4.8324,4.8398,4.8563,4.9095,4.9684,5.0398,5.1114,5.1389,5.1646,5.2032,5.2399,5.2747,5.3038,5.313,5.3112,5.3148,5.3185,5.3185,5.3185,5.3185,5.3185,5.3185,5.3185,5.3185,5.3185,5.335,5.3592,5.4399,5.528,5.6088,5.6704,5.68,5.675,5.6616,5.5816,5.4774,5.4186,5.3799,5.3618,5.3501,5.3501,5.3518,5.3518,5.3518,5.3518,5.3534,5.3653,5.4177,5.4359,5.5706,5.5865,5.6763,5.789,5.7978,5.7574,5.6932,5.7538,5.6987,5.5684,5.5486,5.462,5.3534,5.3203,5.3185,5.3185,5.3185,5.3185,5.3185,5.3185,5.3185,5.3185,5.3185,5.3185,5.3185,5.3185,5.3185,5.3185,5.3185,5.3185,5.3185,5.3185,5.3185,5.3185,5.3185,5.2983,5.2803,5.2325,5.1922,5.1701,5.1303,5.0723,5.0195,4.9973,4.9751,4.9559,4.9562,4.9679,5.0012,5.0347,5.0554,5.0575,5.0575,5.0585,5.0604,5.0554,5.0534,5.0325,4.9924,4.9575,4.9171,4.8779,4.8495,4.8383,4.8306,4.8324,4.8324,4.8379,4.8985,4.9572,5.0031,5.0674,5.1573,5.216,5.238,5.2637,5.2876,5.2968,5.3185,5.3185,5.3185,5.3185,5.3185,5.3185,5.3185,5.3405,5.3424,5.3497,5.3497,5.3405,5.3387,5.3353,5.372,5.4821,5.5684,5.6436,5.6909,5.7072,5.6755,5.6367,5.5443,5.4345,5.3946,5.3618,5.3568,5.3518,5.3518,5.3518,5.3518,5.3518,5.3518,5.3568,5.3687,5.4346,5.4359,5.5791,5.696,5.7684,5.7955,5.7978,5.7538,5.684,5.6987,5.6198,5.4913,5.4638,5.4197,5.3314,5.3185,5.3185,5.3185,5.3185,5.3185,5.3185,5.3185,5.3185,5.3185,5.3185,5.3185,5.3185,5.3185,5.3185,5.3185,5.3185,5.3185,5.3185,5.3185,5.3185,5.3185,5.3185,5.3185,5.3167,5.2986,5.2509,5.2105,5.2325,5.2132,5.133,5.0827,5.0498,5.0248,4.9899,4.9587,4.9415,4.993,5.0171,5.023,5.023,5.0249,5.0249,5.026,5.0283,5.0111,4.976,4.9401,4.9139,4.8813,4.8586,4.8421,4.8363,4.8324,4.8324,4.8636,4.937,5.0031,5.0453,5.1004,5.1995,5.2858,5.3023,5.3206,5.3185,5.3185,5.3185,5.3185,5.3185,5.3185,5.3185,5.3185,5.346,5.3959,5.4179,5.4344,5.4363,5.4051,5.3904,5.3408,5.383,5.5078,5.5959,5.6657,5.7125,5.7322,5.6832,5.6159,5.525,5.4391,5.3832,5.3501,5.3518,5.3518,5.3518,5.3518,5.3518,5.3518,5.3518,5.3737,5.3907,5.4668,5.4359,5.5819,5.7364,5.7978,5.7978,5.7978,5.7556,5.684,5.6436,5.5574,5.4528,5.4344,5.3959,5.3277,5.3185,5.3185,5.3185,5.3185,5.3185,5.3185,5.3185,5.3185,5.3185,5.3185,5.3185,5.3185,5.3185,5.3185,5.3185,5.3185,5.3185,5.3185,5.3185,5.3185,5.3185,5.3185,5.3185,5.3185,5.3185,5.291,5.2491,5.2784,5.2619,5.1848,5.1481,5.1169,5.0797,5.0398,5.0095,4.9627,4.9797,4.9811,4.9898,5.0031,4.9987,4.9949,4.9962,5.0012,4.9787,4.9475,4.9139,4.893,4.8675,4.842,4.8383,4.8324,4.8324,4.8379,4.8912,4.9609,5.0453,5.0986,5.1756,5.2674,5.2986,5.313,5.3185,5.3185,5.3185,5.3185,5.3185,5.3185,5.3185,5.3185,5.3222,5.335,5.3904,5.4363,5.4638,5.5188,5.4876,5.4675,5.4344,5.4638,5.5868,5.6455,5.6785,5.717,5.757,5.6858,5.6141,5.5279,5.4499,5.3865,5.3518,5.3518,5.3518,5.3518,5.3518,5.3518,5.3518,5.3518,5.3805,5.4211,5.4955,5.4359,5.5836,5.7382,5.7978,5.7978,5.7978,5.7538,5.6767,5.5959,5.517,5.4399,5.4252,5.3794,5.3427,5.3185,5.3185,5.3185,5.3185,5.3185,5.3185,5.3185,5.3185,5.3185,5.3185,5.3185,5.3185,5.3185,5.3185,5.3185,5.3185,5.3185,5.3185,5.3185,5.3185,5.3185,5.3185,5.3185,5.3185,5.3185,5.3185,5.3167,5.3185,5.2747,5.2362,5.2087,5.172,5.133,5.1062,5.0897,5.0332,4.977,4.9546,4.9498,4.9617,4.9589,4.9547,4.9631,4.9603,4.9416,4.9062,4.888,4.8728,4.8439,4.8343,4.8324,4.8471,4.8471,4.8783,4.9315,4.9903,5.0729,5.1536,5.2344,5.2986,5.3093,5.3185,5.3185,5.3185,5.3185,5.3185,5.3185,5.3185,5.3185,5.3185,5.3259,5.3387,5.3739,5.4124,5.4638,5.5427,5.5739,5.5812,5.5812,5.629,5.6767,5.6859,5.6969,5.7437,5.7684,5.6917,5.6123,5.525,5.4437,5.3783,5.3518,5.3518,5.3518,5.3518,5.3518,5.3585,5.3805,5.394,5.4177,5.4617,5.5243,5.4376,5.5836,5.7364,5.7978,5.7978,5.7978,5.7538,5.6767,5.5959,5.5133,5.4491,5.3739,5.3298,5.3203,5.3185,5.3185,5.3185,5.3185,5.3185,5.3185,5.3185,5.3185,5.3185,5.3185,5.3185,5.3185,5.3185,5.3185,5.3185,5.3185,5.3185,5.3185,5.3185,5.3185,5.3185,5.3185,5.3185,5.3185,5.3185,5.3185,5.3185,5.3185,5.3167,5.3004,5.2968,5.2454,5.2036,5.1838,5.1363,5.0723,4.9953,4.9467,4.9204,4.9155,4.9155,4.9123,4.9218,4.9171,4.8963,4.8692,4.855,4.8495,4.8324,4.8379,4.8581,4.9022,4.9132,4.937,4.9849,5.0196,5.0912,5.1665,5.2435,5.2931,5.3185,5.3185,5.3185,5.3185,5.3185,5.3185,5.3185,5.3185,5.3185,5.3185,5.3185,5.3442,5.3922,5.4308,5.4546,5.5464,5.6436,5.6638,5.6822,5.6932,5.695,5.6987,5.7171,5.7648,5.7755,5.6935,5.6087,5.522,5.4437,5.3734,5.3518,5.3534,5.3518,5.3653,5.3737,5.3873,5.4245,5.4482,5.4685,5.5108,5.5801]}]]